<?xml version="1.0" encoding="UTF-8" standalone="no" ?>
<gpx xmlns="http://www.topografix.com/GPX/1/1" xmlns:xsi="http://www.w3.org/2001/XMLSchema-instance" xsi:schemaLocation="http://www.topografix.com/GPX/1/1 http://www.topografix.com/GPX/1/1/gpx.xsd" version="1.1" creator="VisuGPX - https://www.visugpx.com">
  <metadata>
    <name>Loisirs &amp;amp; Découvertes à Celles 24600 (2)</name>
    <desc><![CDATA[Promenade autour de notre commune. Accessible à tous]]></desc>
  </metadata>
  <trk>
    <name><![CDATA[Tracé 22 sept. 2015 14:03:28 Celles]]></name>
    <trkseg>
      <trkpt lat="45.29428" lon="0.41044">
        <ele>98</ele>
        <time>2015-09-22T12:03:28Z</time>
      </trkpt>
      <trkpt lat="45.29428" lon="0.41048">
        <ele>90</ele>
        <time>2015-09-22T12:03:42Z</time>
      </trkpt>
      <trkpt lat="45.29427" lon="0.41055">
        <ele>95</ele>
        <time>2015-09-22T12:08:15Z</time>
      </trkpt>
      <trkpt lat="45.2943" lon="0.41062">
        <ele>95</ele>
        <time>2015-09-22T12:08:20Z</time>
      </trkpt>
      <trkpt lat="45.29434" lon="0.41066">
        <ele>95</ele>
        <time>2015-09-22T12:08:25Z</time>
      </trkpt>
      <trkpt lat="45.29437" lon="0.41071">
        <ele>95</ele>
        <time>2015-09-22T12:08:30Z</time>
      </trkpt>
      <trkpt lat="45.29441" lon="0.41073">
        <ele>95</ele>
        <time>2015-09-22T12:08:34Z</time>
      </trkpt>
      <trkpt lat="45.29445" lon="0.41076">
        <ele>93</ele>
        <time>2015-09-22T12:08:40Z</time>
      </trkpt>
      <trkpt lat="45.2945" lon="0.41078">
        <ele>93</ele>
        <time>2015-09-22T12:08:44Z</time>
      </trkpt>
      <trkpt lat="45.29455" lon="0.41081">
        <ele>92</ele>
        <time>2015-09-22T12:08:49Z</time>
      </trkpt>
      <trkpt lat="45.29459" lon="0.41085">
        <ele>93</ele>
        <time>2015-09-22T12:08:54Z</time>
      </trkpt>
      <trkpt lat="45.29463" lon="0.41088">
        <ele>92</ele>
        <time>2015-09-22T12:08:58Z</time>
      </trkpt>
      <trkpt lat="45.29468" lon="0.41092">
        <ele>93</ele>
        <time>2015-09-22T12:09:02Z</time>
      </trkpt>
      <trkpt lat="45.29473" lon="0.41096">
        <ele>92</ele>
        <time>2015-09-22T12:09:07Z</time>
      </trkpt>
      <trkpt lat="45.29478" lon="0.41097">
        <ele>93</ele>
        <time>2015-09-22T12:09:11Z</time>
      </trkpt>
      <trkpt lat="45.29481" lon="0.411">
        <ele>92</ele>
        <time>2015-09-22T12:09:15Z</time>
      </trkpt>
      <trkpt lat="45.29486" lon="0.41103">
        <ele>92</ele>
        <time>2015-09-22T12:09:20Z</time>
      </trkpt>
      <trkpt lat="45.2949" lon="0.41106">
        <ele>92</ele>
        <time>2015-09-22T12:09:24Z</time>
      </trkpt>
      <trkpt lat="45.29494" lon="0.41108">
        <ele>92</ele>
        <time>2015-09-22T12:09:28Z</time>
      </trkpt>
      <trkpt lat="45.29497" lon="0.41112">
        <ele>92</ele>
        <time>2015-09-22T12:09:32Z</time>
      </trkpt>
      <trkpt lat="45.295" lon="0.41115">
        <ele>93</ele>
        <time>2015-09-22T12:09:40Z</time>
      </trkpt>
      <trkpt lat="45.29505" lon="0.41126">
        <ele>91</ele>
        <time>2015-09-22T12:09:44Z</time>
      </trkpt>
      <trkpt lat="45.29511" lon="0.41134">
        <ele>89</ele>
        <time>2015-09-22T12:09:49Z</time>
      </trkpt>
      <trkpt lat="45.29515" lon="0.41139">
        <ele>89</ele>
        <time>2015-09-22T12:09:53Z</time>
      </trkpt>
      <trkpt lat="45.29518" lon="0.41145">
        <ele>88</ele>
        <time>2015-09-22T12:09:58Z</time>
      </trkpt>
      <trkpt lat="45.29523" lon="0.41151">
        <ele>88</ele>
        <time>2015-09-22T12:10:03Z</time>
      </trkpt>
      <trkpt lat="45.29526" lon="0.41158">
        <ele>91</ele>
        <time>2015-09-22T12:10:08Z</time>
      </trkpt>
      <trkpt lat="45.29529" lon="0.41163">
        <ele>92</ele>
        <time>2015-09-22T12:10:12Z</time>
      </trkpt>
      <trkpt lat="45.29533" lon="0.4117">
        <ele>93</ele>
        <time>2015-09-22T12:10:17Z</time>
      </trkpt>
      <trkpt lat="45.29535" lon="0.41175">
        <ele>93</ele>
        <time>2015-09-22T12:10:21Z</time>
      </trkpt>
      <trkpt lat="45.29538" lon="0.4118">
        <ele>95</ele>
        <time>2015-09-22T12:10:26Z</time>
      </trkpt>
      <trkpt lat="45.29541" lon="0.41185">
        <ele>94</ele>
        <time>2015-09-22T12:10:30Z</time>
      </trkpt>
      <trkpt lat="45.29543" lon="0.41191">
        <ele>96</ele>
        <time>2015-09-22T12:10:35Z</time>
      </trkpt>
      <trkpt lat="45.29546" lon="0.41197">
        <ele>95</ele>
        <time>2015-09-22T12:10:39Z</time>
      </trkpt>
      <trkpt lat="45.29551" lon="0.41202">
        <ele>96</ele>
        <time>2015-09-22T12:10:44Z</time>
      </trkpt>
      <trkpt lat="45.29553" lon="0.41207">
        <ele>96</ele>
        <time>2015-09-22T12:10:48Z</time>
      </trkpt>
      <trkpt lat="45.29557" lon="0.41212">
        <ele>96</ele>
        <time>2015-09-22T12:10:53Z</time>
      </trkpt>
      <trkpt lat="45.2956" lon="0.41217">
        <ele>95</ele>
        <time>2015-09-22T12:10:57Z</time>
      </trkpt>
      <trkpt lat="45.29563" lon="0.41223">
        <ele>95</ele>
        <time>2015-09-22T12:11:02Z</time>
      </trkpt>
      <trkpt lat="45.29567" lon="0.41229">
        <ele>95</ele>
        <time>2015-09-22T12:11:06Z</time>
      </trkpt>
      <trkpt lat="45.29568" lon="0.4124">
        <ele>94</ele>
        <time>2015-09-22T12:11:10Z</time>
      </trkpt>
      <trkpt lat="45.29572" lon="0.41244">
        <ele>93</ele>
        <time>2015-09-22T12:11:14Z</time>
      </trkpt>
      <trkpt lat="45.29576" lon="0.41247">
        <ele>94</ele>
        <time>2015-09-22T12:11:18Z</time>
      </trkpt>
      <trkpt lat="45.29579" lon="0.41252">
        <ele>96</ele>
        <time>2015-09-22T12:11:22Z</time>
      </trkpt>
      <trkpt lat="45.29582" lon="0.41259">
        <ele>95</ele>
        <time>2015-09-22T12:11:26Z</time>
      </trkpt>
      <trkpt lat="45.29585" lon="0.41266">
        <ele>94</ele>
        <time>2015-09-22T12:11:31Z</time>
      </trkpt>
      <trkpt lat="45.29587" lon="0.4127">
        <ele>94</ele>
        <time>2015-09-22T12:11:35Z</time>
      </trkpt>
      <trkpt lat="45.29591" lon="0.41273">
        <ele>96</ele>
        <time>2015-09-22T12:11:41Z</time>
      </trkpt>
      <trkpt lat="45.29595" lon="0.4127">
        <ele>95</ele>
        <time>2015-09-22T12:11:45Z</time>
      </trkpt>
      <trkpt lat="45.29598" lon="0.41267">
        <ele>100</ele>
        <time>2015-09-22T12:11:51Z</time>
      </trkpt>
      <trkpt lat="45.29603" lon="0.41264">
        <ele>100</ele>
        <time>2015-09-22T12:11:55Z</time>
      </trkpt>
      <trkpt lat="45.29607" lon="0.41259">
        <ele>99</ele>
        <time>2015-09-22T12:12:00Z</time>
      </trkpt>
      <trkpt lat="45.29611" lon="0.41252">
        <ele>99</ele>
        <time>2015-09-22T12:12:05Z</time>
      </trkpt>
      <trkpt lat="45.29615" lon="0.41249">
        <ele>98</ele>
        <time>2015-09-22T12:12:10Z</time>
      </trkpt>
      <trkpt lat="45.2962" lon="0.41247">
        <ele>98</ele>
        <time>2015-09-22T12:12:14Z</time>
      </trkpt>
      <trkpt lat="45.29624" lon="0.41241">
        <ele>99</ele>
        <time>2015-09-22T12:12:18Z</time>
      </trkpt>
      <trkpt lat="45.29629" lon="0.41236">
        <ele>100</ele>
        <time>2015-09-22T12:12:22Z</time>
      </trkpt>
      <trkpt lat="45.29633" lon="0.41231">
        <ele>102</ele>
        <time>2015-09-22T12:12:26Z</time>
      </trkpt>
      <trkpt lat="45.29637" lon="0.41229">
        <ele>103</ele>
        <time>2015-09-22T12:12:31Z</time>
      </trkpt>
      <trkpt lat="45.29641" lon="0.41231">
        <ele>104</ele>
        <time>2015-09-22T12:12:36Z</time>
      </trkpt>
      <trkpt lat="45.29646" lon="0.41232">
        <ele>103</ele>
        <time>2015-09-22T12:12:40Z</time>
      </trkpt>
      <trkpt lat="45.29651" lon="0.41232">
        <ele>104</ele>
        <time>2015-09-22T12:12:44Z</time>
      </trkpt>
      <trkpt lat="45.29656" lon="0.41231">
        <ele>105</ele>
        <time>2015-09-22T12:12:49Z</time>
      </trkpt>
      <trkpt lat="45.2966" lon="0.41232">
        <ele>105</ele>
        <time>2015-09-22T12:12:53Z</time>
      </trkpt>
      <trkpt lat="45.29664" lon="0.41235">
        <ele>107</ele>
        <time>2015-09-22T12:12:58Z</time>
      </trkpt>
      <trkpt lat="45.29667" lon="0.41239">
        <ele>110</ele>
        <time>2015-09-22T12:13:02Z</time>
      </trkpt>
      <trkpt lat="45.29674" lon="0.41241">
        <ele>111</ele>
        <time>2015-09-22T12:13:07Z</time>
      </trkpt>
      <trkpt lat="45.29677" lon="0.41246">
        <ele>113</ele>
        <time>2015-09-22T12:13:11Z</time>
      </trkpt>
      <trkpt lat="45.29681" lon="0.41247">
        <ele>115</ele>
        <time>2015-09-22T12:13:16Z</time>
      </trkpt>
      <trkpt lat="45.29686" lon="0.41252">
        <ele>113</ele>
        <time>2015-09-22T12:13:20Z</time>
      </trkpt>
      <trkpt lat="45.29691" lon="0.41258">
        <ele>111</ele>
        <time>2015-09-22T12:13:25Z</time>
      </trkpt>
      <trkpt lat="45.29696" lon="0.41263">
        <ele>112</ele>
        <time>2015-09-22T12:13:29Z</time>
      </trkpt>
      <trkpt lat="45.297" lon="0.41269">
        <ele>108</ele>
        <time>2015-09-22T12:13:34Z</time>
      </trkpt>
      <trkpt lat="45.29705" lon="0.41272">
        <ele>107</ele>
        <time>2015-09-22T12:13:38Z</time>
      </trkpt>
      <trkpt lat="45.29705" lon="0.41273">
        <ele>110</ele>
        <time>2015-09-22T12:13:43Z</time>
      </trkpt>
      <trkpt lat="45.29712" lon="0.41282">
        <ele>112</ele>
        <time>2015-09-22T12:13:47Z</time>
      </trkpt>
      <trkpt lat="45.29719" lon="0.41283">
        <ele>114</ele>
        <time>2015-09-22T12:13:52Z</time>
      </trkpt>
      <trkpt lat="45.29723" lon="0.41283">
        <ele>111</ele>
        <time>2015-09-22T12:13:56Z</time>
      </trkpt>
      <trkpt lat="45.29729" lon="0.41285">
        <ele>111</ele>
        <time>2015-09-22T12:14:00Z</time>
      </trkpt>
      <trkpt lat="45.29734" lon="0.41285">
        <ele>113</ele>
        <time>2015-09-22T12:14:05Z</time>
      </trkpt>
      <trkpt lat="45.29739" lon="0.41284">
        <ele>112</ele>
        <time>2015-09-22T12:14:10Z</time>
      </trkpt>
      <trkpt lat="45.29742" lon="0.41285">
        <ele>114</ele>
        <time>2015-09-22T12:14:15Z</time>
      </trkpt>
      <trkpt lat="45.29746" lon="0.41289">
        <ele>114</ele>
        <time>2015-09-22T12:14:19Z</time>
      </trkpt>
      <trkpt lat="45.29751" lon="0.4129">
        <ele>113</ele>
        <time>2015-09-22T12:14:23Z</time>
      </trkpt>
      <trkpt lat="45.29755" lon="0.41293">
        <ele>115</ele>
        <time>2015-09-22T12:14:28Z</time>
      </trkpt>
      <trkpt lat="45.2976" lon="0.41299">
        <ele>115</ele>
        <time>2015-09-22T12:14:32Z</time>
      </trkpt>
      <trkpt lat="45.29767" lon="0.41304">
        <ele>110</ele>
        <time>2015-09-22T12:14:37Z</time>
      </trkpt>
      <trkpt lat="45.29772" lon="0.41309">
        <ele>109</ele>
        <time>2015-09-22T12:14:41Z</time>
      </trkpt>
      <trkpt lat="45.29776" lon="0.41316">
        <ele>111</ele>
        <time>2015-09-22T12:14:46Z</time>
      </trkpt>
      <trkpt lat="45.2978" lon="0.41321">
        <ele>112</ele>
        <time>2015-09-22T12:14:51Z</time>
      </trkpt>
      <trkpt lat="45.29784" lon="0.41325">
        <ele>110</ele>
        <time>2015-09-22T12:14:55Z</time>
      </trkpt>
      <trkpt lat="45.29789" lon="0.41331">
        <ele>109</ele>
        <time>2015-09-22T12:15:00Z</time>
      </trkpt>
      <trkpt lat="45.29792" lon="0.41336">
        <ele>109</ele>
        <time>2015-09-22T12:15:04Z</time>
      </trkpt>
      <trkpt lat="45.29794" lon="0.41344">
        <ele>109</ele>
        <time>2015-09-22T12:15:09Z</time>
      </trkpt>
      <trkpt lat="45.298" lon="0.41347">
        <ele>107</ele>
        <time>2015-09-22T12:15:14Z</time>
      </trkpt>
      <trkpt lat="45.29804" lon="0.41351">
        <ele>107</ele>
        <time>2015-09-22T12:15:19Z</time>
      </trkpt>
      <trkpt lat="45.29807" lon="0.41353">
        <ele>107</ele>
        <time>2015-09-22T12:15:23Z</time>
      </trkpt>
      <trkpt lat="45.29813" lon="0.41359">
        <ele>106</ele>
        <time>2015-09-22T12:15:28Z</time>
      </trkpt>
      <trkpt lat="45.29819" lon="0.41365">
        <ele>106</ele>
        <time>2015-09-22T12:15:33Z</time>
      </trkpt>
      <trkpt lat="45.29824" lon="0.41369">
        <ele>105</ele>
        <time>2015-09-22T12:15:37Z</time>
      </trkpt>
      <trkpt lat="45.29828" lon="0.41372">
        <ele>104</ele>
        <time>2015-09-22T12:15:41Z</time>
      </trkpt>
      <trkpt lat="45.29832" lon="0.41376">
        <ele>105</ele>
        <time>2015-09-22T12:15:45Z</time>
      </trkpt>
      <trkpt lat="45.29836" lon="0.41379">
        <ele>106</ele>
        <time>2015-09-22T12:15:50Z</time>
      </trkpt>
      <trkpt lat="45.29842" lon="0.41382">
        <ele>107</ele>
        <time>2015-09-22T12:15:55Z</time>
      </trkpt>
      <trkpt lat="45.29845" lon="0.41384">
        <ele>108</ele>
        <time>2015-09-22T12:16:00Z</time>
      </trkpt>
      <trkpt lat="45.29851" lon="0.41388">
        <ele>108</ele>
        <time>2015-09-22T12:16:05Z</time>
      </trkpt>
      <trkpt lat="45.29856" lon="0.41391">
        <ele>109</ele>
        <time>2015-09-22T12:16:09Z</time>
      </trkpt>
      <trkpt lat="45.2986" lon="0.41394">
        <ele>109</ele>
        <time>2015-09-22T12:16:13Z</time>
      </trkpt>
      <trkpt lat="45.29865" lon="0.41396">
        <ele>109</ele>
        <time>2015-09-22T12:16:17Z</time>
      </trkpt>
      <trkpt lat="45.2987" lon="0.41396">
        <ele>110</ele>
        <time>2015-09-22T12:16:21Z</time>
      </trkpt>
      <trkpt lat="45.29874" lon="0.41397">
        <ele>112</ele>
        <time>2015-09-22T12:16:25Z</time>
      </trkpt>
      <trkpt lat="45.29879" lon="0.414">
        <ele>111</ele>
        <time>2015-09-22T12:16:30Z</time>
      </trkpt>
      <trkpt lat="45.29884" lon="0.41403">
        <ele>110</ele>
        <time>2015-09-22T12:16:34Z</time>
      </trkpt>
      <trkpt lat="45.29888" lon="0.41407">
        <ele>108</ele>
        <time>2015-09-22T12:16:38Z</time>
      </trkpt>
      <trkpt lat="45.29893" lon="0.41409">
        <ele>107</ele>
        <time>2015-09-22T12:16:42Z</time>
      </trkpt>
      <trkpt lat="45.29898" lon="0.41412">
        <ele>106</ele>
        <time>2015-09-22T12:16:46Z</time>
      </trkpt>
      <trkpt lat="45.29902" lon="0.41414">
        <ele>106</ele>
        <time>2015-09-22T12:16:50Z</time>
      </trkpt>
      <trkpt lat="45.29908" lon="0.41417">
        <ele>106</ele>
        <time>2015-09-22T12:16:55Z</time>
      </trkpt>
      <trkpt lat="45.29911" lon="0.41419">
        <ele>108</ele>
        <time>2015-09-22T12:16:59Z</time>
      </trkpt>
      <trkpt lat="45.29915" lon="0.41422">
        <ele>108</ele>
        <time>2015-09-22T12:17:04Z</time>
      </trkpt>
      <trkpt lat="45.29919" lon="0.41428">
        <ele>107</ele>
        <time>2015-09-22T12:17:09Z</time>
      </trkpt>
      <trkpt lat="45.29924" lon="0.4143">
        <ele>108</ele>
        <time>2015-09-22T12:17:13Z</time>
      </trkpt>
      <trkpt lat="45.29929" lon="0.41434">
        <ele>109</ele>
        <time>2015-09-22T12:17:17Z</time>
      </trkpt>
      <trkpt lat="45.29931" lon="0.41437">
        <ele>110</ele>
        <time>2015-09-22T12:17:21Z</time>
      </trkpt>
      <trkpt lat="45.29936" lon="0.4144">
        <ele>111</ele>
        <time>2015-09-22T12:17:25Z</time>
      </trkpt>
      <trkpt lat="45.29938" lon="0.41445">
        <ele>112</ele>
        <time>2015-09-22T12:17:29Z</time>
      </trkpt>
      <trkpt lat="45.29942" lon="0.41449">
        <ele>111</ele>
        <time>2015-09-22T12:17:33Z</time>
      </trkpt>
      <trkpt lat="45.29945" lon="0.41454">
        <ele>112</ele>
        <time>2015-09-22T12:17:38Z</time>
      </trkpt>
      <trkpt lat="45.29949" lon="0.41459">
        <ele>111</ele>
        <time>2015-09-22T12:17:42Z</time>
      </trkpt>
      <trkpt lat="45.29953" lon="0.41464">
        <ele>110</ele>
        <time>2015-09-22T12:17:47Z</time>
      </trkpt>
      <trkpt lat="45.29957" lon="0.41467">
        <ele>111</ele>
        <time>2015-09-22T12:17:51Z</time>
      </trkpt>
      <trkpt lat="45.29961" lon="0.41471">
        <ele>112</ele>
        <time>2015-09-22T12:17:55Z</time>
      </trkpt>
      <trkpt lat="45.29964" lon="0.41475">
        <ele>112</ele>
        <time>2015-09-22T12:17:59Z</time>
      </trkpt>
      <trkpt lat="45.29968" lon="0.41481">
        <ele>112</ele>
        <time>2015-09-22T12:18:03Z</time>
      </trkpt>
      <trkpt lat="45.29973" lon="0.41487">
        <ele>112</ele>
        <time>2015-09-22T12:18:08Z</time>
      </trkpt>
      <trkpt lat="45.29977" lon="0.41489">
        <ele>112</ele>
        <time>2015-09-22T12:18:12Z</time>
      </trkpt>
      <trkpt lat="45.29982" lon="0.41491">
        <ele>112</ele>
        <time>2015-09-22T12:18:16Z</time>
      </trkpt>
      <trkpt lat="45.29989" lon="0.41496">
        <ele>113</ele>
        <time>2015-09-22T12:18:21Z</time>
      </trkpt>
      <trkpt lat="45.29994" lon="0.41499">
        <ele>112</ele>
        <time>2015-09-22T12:18:25Z</time>
      </trkpt>
      <trkpt lat="45.3" lon="0.41502">
        <ele>112</ele>
        <time>2015-09-22T12:18:30Z</time>
      </trkpt>
      <trkpt lat="45.30004" lon="0.41505">
        <ele>112</ele>
        <time>2015-09-22T12:18:34Z</time>
      </trkpt>
      <trkpt lat="45.30009" lon="0.41506">
        <ele>112</ele>
        <time>2015-09-22T12:18:38Z</time>
      </trkpt>
      <trkpt lat="45.30014" lon="0.41507">
        <ele>112</ele>
        <time>2015-09-22T12:18:42Z</time>
      </trkpt>
      <trkpt lat="45.30019" lon="0.41509">
        <ele>113</ele>
        <time>2015-09-22T12:18:47Z</time>
      </trkpt>
      <trkpt lat="45.30025" lon="0.41513">
        <ele>114</ele>
        <time>2015-09-22T12:18:52Z</time>
      </trkpt>
      <trkpt lat="45.30031" lon="0.41514">
        <ele>114</ele>
        <time>2015-09-22T12:18:56Z</time>
      </trkpt>
      <trkpt lat="45.30036" lon="0.41516">
        <ele>113</ele>
        <time>2015-09-22T12:19:00Z</time>
      </trkpt>
      <trkpt lat="45.30042" lon="0.41515">
        <ele>113</ele>
        <time>2015-09-22T12:19:05Z</time>
      </trkpt>
      <trkpt lat="45.30046" lon="0.41516">
        <ele>113</ele>
        <time>2015-09-22T12:19:09Z</time>
      </trkpt>
      <trkpt lat="45.30051" lon="0.41516">
        <ele>114</ele>
        <time>2015-09-22T12:19:13Z</time>
      </trkpt>
      <trkpt lat="45.30057" lon="0.41516">
        <ele>113</ele>
        <time>2015-09-22T12:19:17Z</time>
      </trkpt>
      <trkpt lat="45.30062" lon="0.41514">
        <ele>114</ele>
        <time>2015-09-22T12:19:21Z</time>
      </trkpt>
      <trkpt lat="45.30066" lon="0.41514">
        <ele>115</ele>
        <time>2015-09-22T12:19:25Z</time>
      </trkpt>
      <trkpt lat="45.30072" lon="0.41515">
        <ele>116</ele>
        <time>2015-09-22T12:19:30Z</time>
      </trkpt>
      <trkpt lat="45.30077" lon="0.41512">
        <ele>115</ele>
        <time>2015-09-22T12:19:34Z</time>
      </trkpt>
      <trkpt lat="45.30081" lon="0.4151">
        <ele>115</ele>
        <time>2015-09-22T12:19:38Z</time>
      </trkpt>
      <trkpt lat="45.30086" lon="0.41508">
        <ele>116</ele>
        <time>2015-09-22T12:19:42Z</time>
      </trkpt>
      <trkpt lat="45.3009" lon="0.41507">
        <ele>117</ele>
        <time>2015-09-22T12:19:46Z</time>
      </trkpt>
      <trkpt lat="45.30096" lon="0.41506">
        <ele>117</ele>
        <time>2015-09-22T12:19:50Z</time>
      </trkpt>
      <trkpt lat="45.30101" lon="0.41505">
        <ele>117</ele>
        <time>2015-09-22T12:19:54Z</time>
      </trkpt>
      <trkpt lat="45.30106" lon="0.41503">
        <ele>116</ele>
        <time>2015-09-22T12:19:58Z</time>
      </trkpt>
      <trkpt lat="45.30113" lon="0.41501">
        <ele>116</ele>
        <time>2015-09-22T12:20:03Z</time>
      </trkpt>
      <trkpt lat="45.30118" lon="0.41499">
        <ele>117</ele>
        <time>2015-09-22T12:20:07Z</time>
      </trkpt>
      <trkpt lat="45.30123" lon="0.41499">
        <ele>118</ele>
        <time>2015-09-22T12:20:11Z</time>
      </trkpt>
      <trkpt lat="45.30128" lon="0.41497">
        <ele>118</ele>
        <time>2015-09-22T12:20:15Z</time>
      </trkpt>
      <trkpt lat="45.30132" lon="0.41496">
        <ele>118</ele>
        <time>2015-09-22T12:20:19Z</time>
      </trkpt>
      <trkpt lat="45.30137" lon="0.41492">
        <ele>119</ele>
        <time>2015-09-22T12:20:23Z</time>
      </trkpt>
      <trkpt lat="45.30142" lon="0.41491">
        <ele>120</ele>
        <time>2015-09-22T12:20:28Z</time>
      </trkpt>
      <trkpt lat="45.30147" lon="0.4149">
        <ele>121</ele>
        <time>2015-09-22T12:20:32Z</time>
      </trkpt>
      <trkpt lat="45.30152" lon="0.41486">
        <ele>120</ele>
        <time>2015-09-22T12:20:37Z</time>
      </trkpt>
      <trkpt lat="45.30159" lon="0.41484">
        <ele>119</ele>
        <time>2015-09-22T12:20:42Z</time>
      </trkpt>
      <trkpt lat="45.30164" lon="0.41482">
        <ele>118</ele>
        <time>2015-09-22T12:20:46Z</time>
      </trkpt>
      <trkpt lat="45.30168" lon="0.4148">
        <ele>117</ele>
        <time>2015-09-22T12:20:50Z</time>
      </trkpt>
      <trkpt lat="45.30172" lon="0.41478">
        <ele>117</ele>
        <time>2015-09-22T12:20:54Z</time>
      </trkpt>
      <trkpt lat="45.30177" lon="0.41476">
        <ele>117</ele>
        <time>2015-09-22T12:20:58Z</time>
      </trkpt>
      <trkpt lat="45.30182" lon="0.41476">
        <ele>118</ele>
        <time>2015-09-22T12:21:02Z</time>
      </trkpt>
      <trkpt lat="45.30187" lon="0.41474">
        <ele>119</ele>
        <time>2015-09-22T12:21:06Z</time>
      </trkpt>
      <trkpt lat="45.30192" lon="0.41473">
        <ele>118</ele>
        <time>2015-09-22T12:21:10Z</time>
      </trkpt>
      <trkpt lat="45.30198" lon="0.41472">
        <ele>119</ele>
        <time>2015-09-22T12:21:15Z</time>
      </trkpt>
      <trkpt lat="45.30205" lon="0.41472">
        <ele>119</ele>
        <time>2015-09-22T12:21:20Z</time>
      </trkpt>
      <trkpt lat="45.30211" lon="0.41471">
        <ele>119</ele>
        <time>2015-09-22T12:21:24Z</time>
      </trkpt>
      <trkpt lat="45.30217" lon="0.41472">
        <ele>118</ele>
        <time>2015-09-22T12:21:29Z</time>
      </trkpt>
      <trkpt lat="45.30222" lon="0.41472">
        <ele>118</ele>
        <time>2015-09-22T12:21:34Z</time>
      </trkpt>
      <trkpt lat="45.30228" lon="0.41472">
        <ele>118</ele>
        <time>2015-09-22T12:21:39Z</time>
      </trkpt>
      <trkpt lat="45.30232" lon="0.41475">
        <ele>117</ele>
        <time>2015-09-22T12:21:43Z</time>
      </trkpt>
      <trkpt lat="45.30237" lon="0.41477">
        <ele>116</ele>
        <time>2015-09-22T12:21:48Z</time>
      </trkpt>
      <trkpt lat="45.30243" lon="0.41478">
        <ele>116</ele>
        <time>2015-09-22T12:21:53Z</time>
      </trkpt>
      <trkpt lat="45.30247" lon="0.41481">
        <ele>115</ele>
        <time>2015-09-22T12:21:57Z</time>
      </trkpt>
      <trkpt lat="45.30252" lon="0.41484">
        <ele>116</ele>
        <time>2015-09-22T12:22:01Z</time>
      </trkpt>
      <trkpt lat="45.30257" lon="0.41486">
        <ele>116</ele>
        <time>2015-09-22T12:22:05Z</time>
      </trkpt>
      <trkpt lat="45.30263" lon="0.41488">
        <ele>117</ele>
        <time>2015-09-22T12:22:10Z</time>
      </trkpt>
      <trkpt lat="45.30267" lon="0.4149">
        <ele>119</ele>
        <time>2015-09-22T12:22:14Z</time>
      </trkpt>
      <trkpt lat="45.30271" lon="0.41491">
        <ele>121</ele>
        <time>2015-09-22T12:22:18Z</time>
      </trkpt>
      <trkpt lat="45.30277" lon="0.41494">
        <ele>123</ele>
        <time>2015-09-22T12:22:23Z</time>
      </trkpt>
      <trkpt lat="45.30281" lon="0.41496">
        <ele>122</ele>
        <time>2015-09-22T12:22:27Z</time>
      </trkpt>
      <trkpt lat="45.30287" lon="0.41501">
        <ele>122</ele>
        <time>2015-09-22T12:22:32Z</time>
      </trkpt>
      <trkpt lat="45.30293" lon="0.41504">
        <ele>122</ele>
        <time>2015-09-22T12:22:36Z</time>
      </trkpt>
      <trkpt lat="45.30299" lon="0.41508">
        <ele>120</ele>
        <time>2015-09-22T12:22:40Z</time>
      </trkpt>
      <trkpt lat="45.30305" lon="0.41511">
        <ele>118</ele>
        <time>2015-09-22T12:22:45Z</time>
      </trkpt>
      <trkpt lat="45.30311" lon="0.41513">
        <ele>117</ele>
        <time>2015-09-22T12:22:50Z</time>
      </trkpt>
      <trkpt lat="45.30315" lon="0.41518">
        <ele>118</ele>
        <time>2015-09-22T12:22:54Z</time>
      </trkpt>
      <trkpt lat="45.30321" lon="0.41524">
        <ele>118</ele>
        <time>2015-09-22T12:22:59Z</time>
      </trkpt>
      <trkpt lat="45.30327" lon="0.41528">
        <ele>118</ele>
        <time>2015-09-22T12:23:04Z</time>
      </trkpt>
      <trkpt lat="45.30331" lon="0.41528">
        <ele>117</ele>
        <time>2015-09-22T12:23:08Z</time>
      </trkpt>
      <trkpt lat="45.30338" lon="0.41531">
        <ele>115</ele>
        <time>2015-09-22T12:23:13Z</time>
      </trkpt>
      <trkpt lat="45.30342" lon="0.41536">
        <ele>115</ele>
        <time>2015-09-22T12:23:17Z</time>
      </trkpt>
      <trkpt lat="45.30346" lon="0.41541">
        <ele>115</ele>
        <time>2015-09-22T12:23:21Z</time>
      </trkpt>
      <trkpt lat="45.30352" lon="0.41545">
        <ele>116</ele>
        <time>2015-09-22T12:23:25Z</time>
      </trkpt>
      <trkpt lat="45.30357" lon="0.41549">
        <ele>115</ele>
        <time>2015-09-22T12:23:30Z</time>
      </trkpt>
      <trkpt lat="45.30362" lon="0.41552">
        <ele>115</ele>
        <time>2015-09-22T12:23:34Z</time>
      </trkpt>
      <trkpt lat="45.30368" lon="0.41557">
        <ele>116</ele>
        <time>2015-09-22T12:23:39Z</time>
      </trkpt>
      <trkpt lat="45.30374" lon="0.41562">
        <ele>115</ele>
        <time>2015-09-22T12:23:44Z</time>
      </trkpt>
      <trkpt lat="45.30379" lon="0.41566">
        <ele>115</ele>
        <time>2015-09-22T12:23:48Z</time>
      </trkpt>
      <trkpt lat="45.30382" lon="0.4157">
        <ele>115</ele>
        <time>2015-09-22T12:23:52Z</time>
      </trkpt>
      <trkpt lat="45.30386" lon="0.41575">
        <ele>115</ele>
        <time>2015-09-22T12:23:57Z</time>
      </trkpt>
      <trkpt lat="45.3039" lon="0.41579">
        <ele>115</ele>
        <time>2015-09-22T12:24:01Z</time>
      </trkpt>
      <trkpt lat="45.30395" lon="0.41583">
        <ele>115</ele>
        <time>2015-09-22T12:24:06Z</time>
      </trkpt>
      <trkpt lat="45.304" lon="0.41588">
        <ele>114</ele>
        <time>2015-09-22T12:24:11Z</time>
      </trkpt>
      <trkpt lat="45.30404" lon="0.41592">
        <ele>114</ele>
        <time>2015-09-22T12:24:15Z</time>
      </trkpt>
      <trkpt lat="45.30409" lon="0.41595">
        <ele>114</ele>
        <time>2015-09-22T12:24:19Z</time>
      </trkpt>
      <trkpt lat="45.30414" lon="0.41597">
        <ele>114</ele>
        <time>2015-09-22T12:24:23Z</time>
      </trkpt>
      <trkpt lat="45.30419" lon="0.41601">
        <ele>114</ele>
        <time>2015-09-22T12:24:28Z</time>
      </trkpt>
      <trkpt lat="45.30426" lon="0.41604">
        <ele>114</ele>
        <time>2015-09-22T12:24:33Z</time>
      </trkpt>
      <trkpt lat="45.30431" lon="0.41605">
        <ele>114</ele>
        <time>2015-09-22T12:24:37Z</time>
      </trkpt>
      <trkpt lat="45.30436" lon="0.41607">
        <ele>115</ele>
        <time>2015-09-22T12:24:41Z</time>
      </trkpt>
      <trkpt lat="45.30441" lon="0.41608">
        <ele>114</ele>
        <time>2015-09-22T12:24:45Z</time>
      </trkpt>
      <trkpt lat="45.30448" lon="0.41608">
        <ele>114</ele>
        <time>2015-09-22T12:24:50Z</time>
      </trkpt>
      <trkpt lat="45.30454" lon="0.41608">
        <ele>113</ele>
        <time>2015-09-22T12:24:54Z</time>
      </trkpt>
      <trkpt lat="45.3046" lon="0.41608">
        <ele>113</ele>
        <time>2015-09-22T12:24:59Z</time>
      </trkpt>
      <trkpt lat="45.30464" lon="0.41608">
        <ele>113</ele>
        <time>2015-09-22T12:25:03Z</time>
      </trkpt>
      <trkpt lat="45.30469" lon="0.41607">
        <ele>113</ele>
        <time>2015-09-22T12:25:07Z</time>
      </trkpt>
      <trkpt lat="45.30474" lon="0.41608">
        <ele>114</ele>
        <time>2015-09-22T12:25:12Z</time>
      </trkpt>
      <trkpt lat="45.30479" lon="0.41607">
        <ele>114</ele>
        <time>2015-09-22T12:25:16Z</time>
      </trkpt>
      <trkpt lat="45.30484" lon="0.41601">
        <ele>112</ele>
        <time>2015-09-22T12:25:20Z</time>
      </trkpt>
      <trkpt lat="45.30489" lon="0.41599">
        <ele>111</ele>
        <time>2015-09-22T12:25:24Z</time>
      </trkpt>
      <trkpt lat="45.30495" lon="0.41598">
        <ele>111</ele>
        <time>2015-09-22T12:25:29Z</time>
      </trkpt>
      <trkpt lat="45.30499" lon="0.41596">
        <ele>110</ele>
        <time>2015-09-22T12:25:33Z</time>
      </trkpt>
      <trkpt lat="45.30506" lon="0.41595">
        <ele>112</ele>
        <time>2015-09-22T12:25:38Z</time>
      </trkpt>
      <trkpt lat="45.3051" lon="0.41593">
        <ele>112</ele>
        <time>2015-09-22T12:25:42Z</time>
      </trkpt>
      <trkpt lat="45.30515" lon="0.41592">
        <ele>111</ele>
        <time>2015-09-22T12:25:46Z</time>
      </trkpt>
      <trkpt lat="45.30519" lon="0.41591">
        <ele>111</ele>
        <time>2015-09-22T12:25:50Z</time>
      </trkpt>
      <trkpt lat="45.30524" lon="0.4159">
        <ele>112</ele>
        <time>2015-09-22T12:25:54Z</time>
      </trkpt>
      <trkpt lat="45.3053" lon="0.41589">
        <ele>113</ele>
        <time>2015-09-22T12:25:59Z</time>
      </trkpt>
      <trkpt lat="45.30536" lon="0.41588">
        <ele>113</ele>
        <time>2015-09-22T12:26:03Z</time>
      </trkpt>
      <trkpt lat="45.30541" lon="0.41587">
        <ele>113</ele>
        <time>2015-09-22T12:26:07Z</time>
      </trkpt>
      <trkpt lat="45.30546" lon="0.41585">
        <ele>113</ele>
        <time>2015-09-22T12:26:12Z</time>
      </trkpt>
      <trkpt lat="45.30552" lon="0.41584">
        <ele>113</ele>
        <time>2015-09-22T12:26:17Z</time>
      </trkpt>
      <trkpt lat="45.30557" lon="0.41583">
        <ele>113</ele>
        <time>2015-09-22T12:26:21Z</time>
      </trkpt>
      <trkpt lat="45.30562" lon="0.41583">
        <ele>114</ele>
        <time>2015-09-22T12:26:25Z</time>
      </trkpt>
      <trkpt lat="45.30566" lon="0.41582">
        <ele>114</ele>
        <time>2015-09-22T12:26:29Z</time>
      </trkpt>
      <trkpt lat="45.30572" lon="0.41582">
        <ele>114</ele>
        <time>2015-09-22T12:26:34Z</time>
      </trkpt>
      <trkpt lat="45.30576" lon="0.4158">
        <ele>113</ele>
        <time>2015-09-22T12:26:39Z</time>
      </trkpt>
      <trkpt lat="45.30582" lon="0.41578">
        <ele>113</ele>
        <time>2015-09-22T12:26:44Z</time>
      </trkpt>
      <trkpt lat="45.30586" lon="0.41577">
        <ele>113</ele>
        <time>2015-09-22T12:26:48Z</time>
      </trkpt>
      <trkpt lat="45.30591" lon="0.41577">
        <ele>114</ele>
        <time>2015-09-22T12:26:52Z</time>
      </trkpt>
      <trkpt lat="45.30597" lon="0.41575">
        <ele>115</ele>
        <time>2015-09-22T12:26:57Z</time>
      </trkpt>
      <trkpt lat="45.30602" lon="0.41574">
        <ele>115</ele>
        <time>2015-09-22T12:27:01Z</time>
      </trkpt>
      <trkpt lat="45.30607" lon="0.41573">
        <ele>116</ele>
        <time>2015-09-22T12:27:05Z</time>
      </trkpt>
      <trkpt lat="45.30614" lon="0.41572">
        <ele>115</ele>
        <time>2015-09-22T12:27:10Z</time>
      </trkpt>
      <trkpt lat="45.30619" lon="0.4157">
        <ele>116</ele>
        <time>2015-09-22T12:27:14Z</time>
      </trkpt>
      <trkpt lat="45.30625" lon="0.41569">
        <ele>115</ele>
        <time>2015-09-22T12:27:19Z</time>
      </trkpt>
      <trkpt lat="45.30629" lon="0.41568">
        <ele>115</ele>
        <time>2015-09-22T12:27:23Z</time>
      </trkpt>
      <trkpt lat="45.30634" lon="0.41565">
        <ele>115</ele>
        <time>2015-09-22T12:27:27Z</time>
      </trkpt>
      <trkpt lat="45.30641" lon="0.41563">
        <ele>115</ele>
        <time>2015-09-22T12:27:32Z</time>
      </trkpt>
      <trkpt lat="45.30647" lon="0.41561">
        <ele>115</ele>
        <time>2015-09-22T12:27:37Z</time>
      </trkpt>
      <trkpt lat="45.30651" lon="0.4156">
        <ele>115</ele>
        <time>2015-09-22T12:27:41Z</time>
      </trkpt>
      <trkpt lat="45.30656" lon="0.41557">
        <ele>115</ele>
        <time>2015-09-22T12:27:45Z</time>
      </trkpt>
      <trkpt lat="45.3066" lon="0.41554">
        <ele>115</ele>
        <time>2015-09-22T12:27:49Z</time>
      </trkpt>
      <trkpt lat="45.30665" lon="0.41551">
        <ele>115</ele>
        <time>2015-09-22T12:27:53Z</time>
      </trkpt>
      <trkpt lat="45.30671" lon="0.4155">
        <ele>115</ele>
        <time>2015-09-22T12:27:58Z</time>
      </trkpt>
      <trkpt lat="45.30675" lon="0.41551">
        <ele>114</ele>
        <time>2015-09-22T12:28:02Z</time>
      </trkpt>
      <trkpt lat="45.3068" lon="0.41553">
        <ele>113</ele>
        <time>2015-09-22T12:28:06Z</time>
      </trkpt>
      <trkpt lat="45.30686" lon="0.41554">
        <ele>113</ele>
        <time>2015-09-22T12:28:11Z</time>
      </trkpt>
      <trkpt lat="45.30692" lon="0.41558">
        <ele>113</ele>
        <time>2015-09-22T12:28:16Z</time>
      </trkpt>
      <trkpt lat="45.30697" lon="0.41562">
        <ele>112</ele>
        <time>2015-09-22T12:28:21Z</time>
      </trkpt>
      <trkpt lat="45.307" lon="0.41567">
        <ele>112</ele>
        <time>2015-09-22T12:28:25Z</time>
      </trkpt>
      <trkpt lat="45.30705" lon="0.41572">
        <ele>112</ele>
        <time>2015-09-22T12:28:29Z</time>
      </trkpt>
      <trkpt lat="45.30709" lon="0.41576">
        <ele>112</ele>
        <time>2015-09-22T12:28:33Z</time>
      </trkpt>
      <trkpt lat="45.30713" lon="0.41581">
        <ele>112</ele>
        <time>2015-09-22T12:28:37Z</time>
      </trkpt>
      <trkpt lat="45.30718" lon="0.41587">
        <ele>113</ele>
        <time>2015-09-22T12:28:42Z</time>
      </trkpt>
      <trkpt lat="45.30723" lon="0.4159">
        <ele>112</ele>
        <time>2015-09-22T12:28:47Z</time>
      </trkpt>
      <trkpt lat="45.30727" lon="0.41594">
        <ele>111</ele>
        <time>2015-09-22T12:28:51Z</time>
      </trkpt>
      <trkpt lat="45.30731" lon="0.41596">
        <ele>112</ele>
        <time>2015-09-22T12:28:55Z</time>
      </trkpt>
      <trkpt lat="45.30735" lon="0.416">
        <ele>112</ele>
        <time>2015-09-22T12:28:59Z</time>
      </trkpt>
      <trkpt lat="45.3074" lon="0.41604">
        <ele>111</ele>
        <time>2015-09-22T12:29:04Z</time>
      </trkpt>
      <trkpt lat="45.30744" lon="0.41608">
        <ele>111</ele>
        <time>2015-09-22T12:29:09Z</time>
      </trkpt>
      <trkpt lat="45.30747" lon="0.41615">
        <ele>112</ele>
        <time>2015-09-22T12:29:13Z</time>
      </trkpt>
      <trkpt lat="45.30749" lon="0.4162">
        <ele>111</ele>
        <time>2015-09-22T12:29:17Z</time>
      </trkpt>
      <trkpt lat="45.30752" lon="0.41627">
        <ele>111</ele>
        <time>2015-09-22T12:29:22Z</time>
      </trkpt>
      <trkpt lat="45.30754" lon="0.41634">
        <ele>112</ele>
        <time>2015-09-22T12:29:26Z</time>
      </trkpt>
      <trkpt lat="45.30756" lon="0.4164">
        <ele>111</ele>
        <time>2015-09-22T12:29:30Z</time>
      </trkpt>
      <trkpt lat="45.30758" lon="0.41646">
        <ele>112</ele>
        <time>2015-09-22T12:29:34Z</time>
      </trkpt>
      <trkpt lat="45.3076" lon="0.41651">
        <ele>111</ele>
        <time>2015-09-22T12:29:38Z</time>
      </trkpt>
      <trkpt lat="45.30763" lon="0.41656">
        <ele>111</ele>
        <time>2015-09-22T12:29:43Z</time>
      </trkpt>
      <trkpt lat="45.30767" lon="0.41664">
        <ele>113</ele>
        <time>2015-09-22T12:29:48Z</time>
      </trkpt>
      <trkpt lat="45.3077" lon="0.4167">
        <ele>113</ele>
        <time>2015-09-22T12:29:52Z</time>
      </trkpt>
      <trkpt lat="45.30773" lon="0.41675">
        <ele>114</ele>
        <time>2015-09-22T12:29:56Z</time>
      </trkpt>
      <trkpt lat="45.30777" lon="0.41681">
        <ele>114</ele>
        <time>2015-09-22T12:30:00Z</time>
      </trkpt>
      <trkpt lat="45.3078" lon="0.41686">
        <ele>113</ele>
        <time>2015-09-22T12:30:04Z</time>
      </trkpt>
      <trkpt lat="45.30785" lon="0.41691">
        <ele>113</ele>
        <time>2015-09-22T12:30:09Z</time>
      </trkpt>
      <trkpt lat="45.30789" lon="0.41697">
        <ele>113</ele>
        <time>2015-09-22T12:30:13Z</time>
      </trkpt>
      <trkpt lat="45.30793" lon="0.41704">
        <ele>115</ele>
        <time>2015-09-22T12:30:18Z</time>
      </trkpt>
      <trkpt lat="45.30797" lon="0.41709">
        <ele>114</ele>
        <time>2015-09-22T12:30:22Z</time>
      </trkpt>
      <trkpt lat="45.30801" lon="0.41714">
        <ele>115</ele>
        <time>2015-09-22T12:30:27Z</time>
      </trkpt>
      <trkpt lat="45.30805" lon="0.41718">
        <ele>115</ele>
        <time>2015-09-22T12:30:31Z</time>
      </trkpt>
      <trkpt lat="45.30811" lon="0.41724">
        <ele>115</ele>
        <time>2015-09-22T12:30:36Z</time>
      </trkpt>
      <trkpt lat="45.30814" lon="0.4173">
        <ele>115</ele>
        <time>2015-09-22T12:30:40Z</time>
      </trkpt>
      <trkpt lat="45.30818" lon="0.41734">
        <ele>115</ele>
        <time>2015-09-22T12:30:44Z</time>
      </trkpt>
      <trkpt lat="45.30822" lon="0.41737">
        <ele>114</ele>
        <time>2015-09-22T12:30:48Z</time>
      </trkpt>
      <trkpt lat="45.30826" lon="0.41742">
        <ele>115</ele>
        <time>2015-09-22T12:30:52Z</time>
      </trkpt>
      <trkpt lat="45.3083" lon="0.41747">
        <ele>115</ele>
        <time>2015-09-22T12:30:57Z</time>
      </trkpt>
      <trkpt lat="45.30834" lon="0.41752">
        <ele>117</ele>
        <time>2015-09-22T12:31:01Z</time>
      </trkpt>
      <trkpt lat="45.30839" lon="0.41757">
        <ele>117</ele>
        <time>2015-09-22T12:31:06Z</time>
      </trkpt>
      <trkpt lat="45.30844" lon="0.41763">
        <ele>117</ele>
        <time>2015-09-22T12:31:11Z</time>
      </trkpt>
      <trkpt lat="45.30849" lon="0.41767">
        <ele>117</ele>
        <time>2015-09-22T12:31:15Z</time>
      </trkpt>
      <trkpt lat="45.30853" lon="0.41772">
        <ele>117</ele>
        <time>2015-09-22T12:31:20Z</time>
      </trkpt>
      <trkpt lat="45.30857" lon="0.41776">
        <ele>117</ele>
        <time>2015-09-22T12:31:24Z</time>
      </trkpt>
      <trkpt lat="45.30861" lon="0.41781">
        <ele>117</ele>
        <time>2015-09-22T12:31:28Z</time>
      </trkpt>
      <trkpt lat="45.30865" lon="0.41786">
        <ele>117</ele>
        <time>2015-09-22T12:31:32Z</time>
      </trkpt>
      <trkpt lat="45.3087" lon="0.41792">
        <ele>116</ele>
        <time>2015-09-22T12:31:37Z</time>
      </trkpt>
      <trkpt lat="45.30875" lon="0.41796">
        <ele>115</ele>
        <time>2015-09-22T12:31:41Z</time>
      </trkpt>
      <trkpt lat="45.30879" lon="0.41802">
        <ele>115</ele>
        <time>2015-09-22T12:31:46Z</time>
      </trkpt>
      <trkpt lat="45.30883" lon="0.41806">
        <ele>114</ele>
        <time>2015-09-22T12:31:50Z</time>
      </trkpt>
      <trkpt lat="45.30886" lon="0.4181">
        <ele>114</ele>
        <time>2015-09-22T12:31:54Z</time>
      </trkpt>
      <trkpt lat="45.3089" lon="0.41817">
        <ele>115</ele>
        <time>2015-09-22T12:31:59Z</time>
      </trkpt>
      <trkpt lat="45.30894" lon="0.41821">
        <ele>116</ele>
        <time>2015-09-22T12:32:03Z</time>
      </trkpt>
      <trkpt lat="45.30897" lon="0.41827">
        <ele>116</ele>
        <time>2015-09-22T12:32:07Z</time>
      </trkpt>
      <trkpt lat="45.309" lon="0.41832">
        <ele>117</ele>
        <time>2015-09-22T12:32:11Z</time>
      </trkpt>
      <trkpt lat="45.30903" lon="0.41836">
        <ele>117</ele>
        <time>2015-09-22T12:32:15Z</time>
      </trkpt>
      <trkpt lat="45.30909" lon="0.41841">
        <ele>117</ele>
        <time>2015-09-22T12:32:20Z</time>
      </trkpt>
      <trkpt lat="45.30914" lon="0.41847">
        <ele>116</ele>
        <time>2015-09-22T12:32:25Z</time>
      </trkpt>
      <trkpt lat="45.30918" lon="0.4185">
        <ele>117</ele>
        <time>2015-09-22T12:32:29Z</time>
      </trkpt>
      <trkpt lat="45.30924" lon="0.41854">
        <ele>116</ele>
        <time>2015-09-22T12:32:34Z</time>
      </trkpt>
      <trkpt lat="45.3093" lon="0.41857">
        <ele>117</ele>
        <time>2015-09-22T12:32:39Z</time>
      </trkpt>
      <trkpt lat="45.30936" lon="0.41859">
        <ele>117</ele>
        <time>2015-09-22T12:32:44Z</time>
      </trkpt>
      <trkpt lat="45.30941" lon="0.41861">
        <ele>117</ele>
        <time>2015-09-22T12:32:48Z</time>
      </trkpt>
      <trkpt lat="45.30946" lon="0.4186">
        <ele>117</ele>
        <time>2015-09-22T12:32:52Z</time>
      </trkpt>
      <trkpt lat="45.30952" lon="0.41861">
        <ele>117</ele>
        <time>2015-09-22T12:32:57Z</time>
      </trkpt>
      <trkpt lat="45.30957" lon="0.41862">
        <ele>117</ele>
        <time>2015-09-22T12:33:01Z</time>
      </trkpt>
      <trkpt lat="45.30963" lon="0.41863">
        <ele>117</ele>
        <time>2015-09-22T12:33:06Z</time>
      </trkpt>
      <trkpt lat="45.30967" lon="0.41864">
        <ele>117</ele>
        <time>2015-09-22T12:33:10Z</time>
      </trkpt>
      <trkpt lat="45.30972" lon="0.41865">
        <ele>118</ele>
        <time>2015-09-22T12:33:14Z</time>
      </trkpt>
      <trkpt lat="45.30979" lon="0.41868">
        <ele>119</ele>
        <time>2015-09-22T12:33:19Z</time>
      </trkpt>
      <trkpt lat="45.30983" lon="0.41869">
        <ele>120</ele>
        <time>2015-09-22T12:33:23Z</time>
      </trkpt>
      <trkpt lat="45.30989" lon="0.41873">
        <ele>121</ele>
        <time>2015-09-22T12:33:28Z</time>
      </trkpt>
      <trkpt lat="45.30994" lon="0.41874">
        <ele>121</ele>
        <time>2015-09-22T12:33:32Z</time>
      </trkpt>
      <trkpt lat="45.30999" lon="0.41874">
        <ele>121</ele>
        <time>2015-09-22T12:33:36Z</time>
      </trkpt>
      <trkpt lat="45.31004" lon="0.41876">
        <ele>121</ele>
        <time>2015-09-22T12:33:40Z</time>
      </trkpt>
      <trkpt lat="45.31012" lon="0.41877">
        <ele>121</ele>
        <time>2015-09-22T12:33:45Z</time>
      </trkpt>
      <trkpt lat="45.31017" lon="0.41879">
        <ele>121</ele>
        <time>2015-09-22T12:33:50Z</time>
      </trkpt>
      <trkpt lat="45.31021" lon="0.41882">
        <ele>122</ele>
        <time>2015-09-22T12:33:54Z</time>
      </trkpt>
      <trkpt lat="45.31026" lon="0.41883">
        <ele>122</ele>
        <time>2015-09-22T12:33:58Z</time>
      </trkpt>
      <trkpt lat="45.31033" lon="0.41887">
        <ele>122</ele>
        <time>2015-09-22T12:34:03Z</time>
      </trkpt>
      <trkpt lat="45.31038" lon="0.4189">
        <ele>121</ele>
        <time>2015-09-22T12:34:07Z</time>
      </trkpt>
      <trkpt lat="45.31042" lon="0.41893">
        <ele>121</ele>
        <time>2015-09-22T12:34:11Z</time>
      </trkpt>
      <trkpt lat="45.31049" lon="0.41898">
        <ele>121</ele>
        <time>2015-09-22T12:34:16Z</time>
      </trkpt>
      <trkpt lat="45.31054" lon="0.41902">
        <ele>121</ele>
        <time>2015-09-22T12:34:21Z</time>
      </trkpt>
      <trkpt lat="45.31059" lon="0.41906">
        <ele>121</ele>
        <time>2015-09-22T12:34:26Z</time>
      </trkpt>
      <trkpt lat="45.31063" lon="0.41909">
        <ele>122</ele>
        <time>2015-09-22T12:34:31Z</time>
      </trkpt>
      <trkpt lat="45.31069" lon="0.41913">
        <ele>121</ele>
        <time>2015-09-22T12:34:36Z</time>
      </trkpt>
      <trkpt lat="45.31072" lon="0.41917">
        <ele>122</ele>
        <time>2015-09-22T12:34:40Z</time>
      </trkpt>
      <trkpt lat="45.31077" lon="0.41921">
        <ele>122</ele>
        <time>2015-09-22T12:34:45Z</time>
      </trkpt>
      <trkpt lat="45.31081" lon="0.41924">
        <ele>122</ele>
        <time>2015-09-22T12:34:49Z</time>
      </trkpt>
      <trkpt lat="45.31084" lon="0.41928">
        <ele>121</ele>
        <time>2015-09-22T12:34:53Z</time>
      </trkpt>
      <trkpt lat="45.31087" lon="0.4193">
        <ele>120</ele>
        <time>2015-09-22T12:34:57Z</time>
      </trkpt>
      <trkpt lat="45.3109" lon="0.41934">
        <ele>119</ele>
        <time>2015-09-22T12:35:01Z</time>
      </trkpt>
      <trkpt lat="45.31094" lon="0.41938">
        <ele>120</ele>
        <time>2015-09-22T12:35:05Z</time>
      </trkpt>
      <trkpt lat="45.31097" lon="0.41942">
        <ele>121</ele>
        <time>2015-09-22T12:35:09Z</time>
      </trkpt>
      <trkpt lat="45.311" lon="0.41948">
        <ele>121</ele>
        <time>2015-09-22T12:35:13Z</time>
      </trkpt>
      <trkpt lat="45.31104" lon="0.41955">
        <ele>120</ele>
        <time>2015-09-22T12:35:18Z</time>
      </trkpt>
      <trkpt lat="45.31107" lon="0.41959">
        <ele>120</ele>
        <time>2015-09-22T12:35:22Z</time>
      </trkpt>
      <trkpt lat="45.31111" lon="0.41965">
        <ele>120</ele>
        <time>2015-09-22T12:35:27Z</time>
      </trkpt>
      <trkpt lat="45.31114" lon="0.41969">
        <ele>119</ele>
        <time>2015-09-22T12:35:31Z</time>
      </trkpt>
      <trkpt lat="45.31117" lon="0.41974">
        <ele>119</ele>
        <time>2015-09-22T12:35:35Z</time>
      </trkpt>
      <trkpt lat="45.3112" lon="0.41978">
        <ele>119</ele>
        <time>2015-09-22T12:35:39Z</time>
      </trkpt>
      <trkpt lat="45.31124" lon="0.41983">
        <ele>119</ele>
        <time>2015-09-22T12:35:44Z</time>
      </trkpt>
      <trkpt lat="45.31127" lon="0.41988">
        <ele>118</ele>
        <time>2015-09-22T12:35:48Z</time>
      </trkpt>
      <trkpt lat="45.3113" lon="0.41991">
        <ele>119</ele>
        <time>2015-09-22T12:35:52Z</time>
      </trkpt>
      <trkpt lat="45.31134" lon="0.41995">
        <ele>119</ele>
        <time>2015-09-22T12:35:56Z</time>
      </trkpt>
      <trkpt lat="45.31137" lon="0.41999">
        <ele>119</ele>
        <time>2015-09-22T12:36:00Z</time>
      </trkpt>
      <trkpt lat="45.31141" lon="0.42003">
        <ele>119</ele>
        <time>2015-09-22T12:36:04Z</time>
      </trkpt>
      <trkpt lat="45.31147" lon="0.42008">
        <ele>119</ele>
        <time>2015-09-22T12:36:09Z</time>
      </trkpt>
      <trkpt lat="45.31151" lon="0.42012">
        <ele>119</ele>
        <time>2015-09-22T12:36:13Z</time>
      </trkpt>
      <trkpt lat="45.31158" lon="0.42015">
        <ele>119</ele>
        <time>2015-09-22T12:36:18Z</time>
      </trkpt>
      <trkpt lat="45.31163" lon="0.42018">
        <ele>119</ele>
        <time>2015-09-22T12:36:22Z</time>
      </trkpt>
      <trkpt lat="45.31169" lon="0.42022">
        <ele>119</ele>
        <time>2015-09-22T12:36:27Z</time>
      </trkpt>
      <trkpt lat="45.31174" lon="0.42025">
        <ele>118</ele>
        <time>2015-09-22T12:36:31Z</time>
      </trkpt>
      <trkpt lat="45.31182" lon="0.42026">
        <ele>117</ele>
        <time>2015-09-22T12:36:36Z</time>
      </trkpt>
      <trkpt lat="45.31187" lon="0.42028">
        <ele>116</ele>
        <time>2015-09-22T12:36:40Z</time>
      </trkpt>
      <trkpt lat="45.31192" lon="0.42032">
        <ele>115</ele>
        <time>2015-09-22T12:36:45Z</time>
      </trkpt>
      <trkpt lat="45.31197" lon="0.42034">
        <ele>116</ele>
        <time>2015-09-22T12:36:49Z</time>
      </trkpt>
      <trkpt lat="45.31201" lon="0.42037">
        <ele>116</ele>
        <time>2015-09-22T12:36:53Z</time>
      </trkpt>
      <trkpt lat="45.31205" lon="0.42041">
        <ele>117</ele>
        <time>2015-09-22T12:36:57Z</time>
      </trkpt>
      <trkpt lat="45.3121" lon="0.42046">
        <ele>118</ele>
        <time>2015-09-22T12:37:01Z</time>
      </trkpt>
      <trkpt lat="45.31215" lon="0.42051">
        <ele>116</ele>
        <time>2015-09-22T12:37:06Z</time>
      </trkpt>
      <trkpt lat="45.3122" lon="0.42055">
        <ele>117</ele>
        <time>2015-09-22T12:37:10Z</time>
      </trkpt>
      <trkpt lat="45.31224" lon="0.42059">
        <ele>118</ele>
        <time>2015-09-22T12:37:15Z</time>
      </trkpt>
      <trkpt lat="45.31229" lon="0.42063">
        <ele>119</ele>
        <time>2015-09-22T12:37:19Z</time>
      </trkpt>
      <trkpt lat="45.31233" lon="0.42066">
        <ele>118</ele>
        <time>2015-09-22T12:37:23Z</time>
      </trkpt>
      <trkpt lat="45.31239" lon="0.42069">
        <ele>119</ele>
        <time>2015-09-22T12:37:28Z</time>
      </trkpt>
      <trkpt lat="45.31244" lon="0.42072">
        <ele>118</ele>
        <time>2015-09-22T12:37:32Z</time>
      </trkpt>
      <trkpt lat="45.31249" lon="0.42076">
        <ele>119</ele>
        <time>2015-09-22T12:37:37Z</time>
      </trkpt>
      <trkpt lat="45.31254" lon="0.42079">
        <ele>119</ele>
        <time>2015-09-22T12:37:41Z</time>
      </trkpt>
      <trkpt lat="45.31259" lon="0.42082">
        <ele>119</ele>
        <time>2015-09-22T12:37:46Z</time>
      </trkpt>
      <trkpt lat="45.31265" lon="0.42085">
        <ele>120</ele>
        <time>2015-09-22T12:37:51Z</time>
      </trkpt>
      <trkpt lat="45.31269" lon="0.42089">
        <ele>120</ele>
        <time>2015-09-22T12:37:55Z</time>
      </trkpt>
      <trkpt lat="45.31274" lon="0.42092">
        <ele>121</ele>
        <time>2015-09-22T12:37:59Z</time>
      </trkpt>
      <trkpt lat="45.3128" lon="0.42094">
        <ele>121</ele>
        <time>2015-09-22T12:38:04Z</time>
      </trkpt>
      <trkpt lat="45.31284" lon="0.42096">
        <ele>121</ele>
        <time>2015-09-22T12:38:08Z</time>
      </trkpt>
      <trkpt lat="45.31288" lon="0.42098">
        <ele>122</ele>
        <time>2015-09-22T12:38:13Z</time>
      </trkpt>
      <trkpt lat="45.31294" lon="0.42102">
        <ele>123</ele>
        <time>2015-09-22T12:38:18Z</time>
      </trkpt>
      <trkpt lat="45.31294" lon="0.42108">
        <ele>124</ele>
        <time>2015-09-22T12:38:23Z</time>
      </trkpt>
      <trkpt lat="45.31292" lon="0.42114">
        <ele>124</ele>
        <time>2015-09-22T12:38:27Z</time>
      </trkpt>
      <trkpt lat="45.31287" lon="0.42121">
        <ele>124</ele>
        <time>2015-09-22T12:38:32Z</time>
      </trkpt>
      <trkpt lat="45.31284" lon="0.42129">
        <ele>125</ele>
        <time>2015-09-22T12:38:36Z</time>
      </trkpt>
      <trkpt lat="45.3128" lon="0.42138">
        <ele>126</ele>
        <time>2015-09-22T12:38:41Z</time>
      </trkpt>
      <trkpt lat="45.31277" lon="0.42144">
        <ele>128</ele>
        <time>2015-09-22T12:38:45Z</time>
      </trkpt>
      <trkpt lat="45.31271" lon="0.42151">
        <ele>129</ele>
        <time>2015-09-22T12:38:50Z</time>
      </trkpt>
      <trkpt lat="45.31268" lon="0.42158">
        <ele>130</ele>
        <time>2015-09-22T12:38:54Z</time>
      </trkpt>
      <trkpt lat="45.31265" lon="0.42164">
        <ele>131</ele>
        <time>2015-09-22T12:38:58Z</time>
      </trkpt>
      <trkpt lat="45.31262" lon="0.42168">
        <ele>130</ele>
        <time>2015-09-22T12:39:04Z</time>
      </trkpt>
      <trkpt lat="45.3126" lon="0.42173">
        <ele>131</ele>
        <time>2015-09-22T12:39:09Z</time>
      </trkpt>
      <trkpt lat="45.31256" lon="0.42178">
        <ele>132</ele>
        <time>2015-09-22T12:39:13Z</time>
      </trkpt>
      <trkpt lat="45.31252" lon="0.42185">
        <ele>133</ele>
        <time>2015-09-22T12:39:18Z</time>
      </trkpt>
      <trkpt lat="45.31249" lon="0.42192">
        <ele>135</ele>
        <time>2015-09-22T12:39:22Z</time>
      </trkpt>
      <trkpt lat="45.31248" lon="0.42199">
        <ele>136</ele>
        <time>2015-09-22T12:39:26Z</time>
      </trkpt>
      <trkpt lat="45.31252" lon="0.42206">
        <ele>136</ele>
        <time>2015-09-22T12:39:30Z</time>
      </trkpt>
      <trkpt lat="45.31256" lon="0.42208">
        <ele>137</ele>
        <time>2015-09-22T12:40:07Z</time>
      </trkpt>
      <trkpt lat="45.31254" lon="0.42205">
        <ele>137</ele>
        <time>2015-09-22T12:40:15Z</time>
      </trkpt>
      <trkpt lat="45.31249" lon="0.42201">
        <ele>137</ele>
        <time>2015-09-22T12:40:19Z</time>
      </trkpt>
      <trkpt lat="45.31247" lon="0.42196">
        <ele>132</ele>
        <time>2015-09-22T12:40:28Z</time>
      </trkpt>
      <trkpt lat="45.31249" lon="0.42191">
        <ele>132</ele>
        <time>2015-09-22T12:40:33Z</time>
      </trkpt>
      <trkpt lat="45.31253" lon="0.42187">
        <ele>130</ele>
        <time>2015-09-22T12:40:38Z</time>
      </trkpt>
      <trkpt lat="45.31255" lon="0.42181">
        <ele>130</ele>
        <time>2015-09-22T12:40:43Z</time>
      </trkpt>
      <trkpt lat="45.31253" lon="0.42186">
        <ele>132</ele>
        <time>2015-09-22T12:41:47Z</time>
      </trkpt>
      <trkpt lat="45.31251" lon="0.42191">
        <ele>132</ele>
        <time>2015-09-22T12:41:52Z</time>
      </trkpt>
      <trkpt lat="45.31248" lon="0.42196">
        <ele>134</ele>
        <time>2015-09-22T12:41:59Z</time>
      </trkpt>
      <trkpt lat="45.31249" lon="0.42201">
        <ele>134</ele>
        <time>2015-09-22T12:42:09Z</time>
      </trkpt>
      <trkpt lat="45.31251" lon="0.42206">
        <ele>136</ele>
        <time>2015-09-22T12:42:15Z</time>
      </trkpt>
      <trkpt lat="45.31255" lon="0.42207">
        <ele>137</ele>
        <time>2015-09-22T12:42:20Z</time>
      </trkpt>
      <trkpt lat="45.31258" lon="0.42209">
        <ele>138</ele>
        <time>2015-09-22T12:42:24Z</time>
      </trkpt>
      <trkpt lat="45.31262" lon="0.4221">
        <ele>139</ele>
        <time>2015-09-22T12:42:29Z</time>
      </trkpt>
      <trkpt lat="45.31267" lon="0.42215">
        <ele>137</ele>
        <time>2015-09-22T12:42:34Z</time>
      </trkpt>
      <trkpt lat="45.31273" lon="0.42218">
        <ele>138</ele>
        <time>2015-09-22T12:42:39Z</time>
      </trkpt>
      <trkpt lat="45.31277" lon="0.42219">
        <ele>140</ele>
        <time>2015-09-22T12:42:44Z</time>
      </trkpt>
      <trkpt lat="45.31281" lon="0.42223">
        <ele>140</ele>
        <time>2015-09-22T12:42:48Z</time>
      </trkpt>
      <trkpt lat="45.31285" lon="0.42225">
        <ele>140</ele>
        <time>2015-09-22T12:42:52Z</time>
      </trkpt>
      <trkpt lat="45.31288" lon="0.42229">
        <ele>141</ele>
        <time>2015-09-22T12:42:56Z</time>
      </trkpt>
      <trkpt lat="45.31293" lon="0.42235">
        <ele>141</ele>
        <time>2015-09-22T12:43:01Z</time>
      </trkpt>
      <trkpt lat="45.31297" lon="0.42235">
        <ele>141</ele>
        <time>2015-09-22T12:43:05Z</time>
      </trkpt>
      <trkpt lat="45.31299" lon="0.42241">
        <ele>146</ele>
        <time>2015-09-22T12:43:12Z</time>
      </trkpt>
      <trkpt lat="45.31299" lon="0.42247">
        <ele>150</ele>
        <time>2015-09-22T12:43:19Z</time>
      </trkpt>
      <trkpt lat="45.31299" lon="0.42252">
        <ele>152</ele>
        <time>2015-09-22T12:43:26Z</time>
      </trkpt>
      <trkpt lat="45.31297" lon="0.42256">
        <ele>152</ele>
        <time>2015-09-22T12:43:31Z</time>
      </trkpt>
      <trkpt lat="45.31295" lon="0.42262">
        <ele>152</ele>
        <time>2015-09-22T12:43:35Z</time>
      </trkpt>
      <trkpt lat="45.31293" lon="0.42266">
        <ele>153</ele>
        <time>2015-09-22T12:43:39Z</time>
      </trkpt>
      <trkpt lat="45.31291" lon="0.4227">
        <ele>153</ele>
        <time>2015-09-22T12:43:44Z</time>
      </trkpt>
      <trkpt lat="45.31287" lon="0.42273">
        <ele>155</ele>
        <time>2015-09-22T12:43:49Z</time>
      </trkpt>
      <trkpt lat="45.31282" lon="0.42276">
        <ele>156</ele>
        <time>2015-09-22T12:43:54Z</time>
      </trkpt>
      <trkpt lat="45.31278" lon="0.42277">
        <ele>158</ele>
        <time>2015-09-22T12:43:59Z</time>
      </trkpt>
      <trkpt lat="45.31274" lon="0.42278">
        <ele>159</ele>
        <time>2015-09-22T12:44:04Z</time>
      </trkpt>
      <trkpt lat="45.31271" lon="0.42282">
        <ele>160</ele>
        <time>2015-09-22T12:44:09Z</time>
      </trkpt>
      <trkpt lat="45.31267" lon="0.42285">
        <ele>162</ele>
        <time>2015-09-22T12:44:15Z</time>
      </trkpt>
      <trkpt lat="45.31265" lon="0.42288">
        <ele>161</ele>
        <time>2015-09-22T12:44:19Z</time>
      </trkpt>
      <trkpt lat="45.31261" lon="0.42295">
        <ele>161</ele>
        <time>2015-09-22T12:44:24Z</time>
      </trkpt>
      <trkpt lat="45.3126" lon="0.42301">
        <ele>161</ele>
        <time>2015-09-22T12:44:29Z</time>
      </trkpt>
      <trkpt lat="45.31258" lon="0.42305">
        <ele>163</ele>
        <time>2015-09-22T12:44:33Z</time>
      </trkpt>
      <trkpt lat="45.31256" lon="0.42312">
        <ele>163</ele>
        <time>2015-09-22T12:44:37Z</time>
      </trkpt>
      <trkpt lat="45.31254" lon="0.42316">
        <ele>166</ele>
        <time>2015-09-22T12:44:43Z</time>
      </trkpt>
      <trkpt lat="45.31253" lon="0.42323">
        <ele>166</ele>
        <time>2015-09-22T12:44:47Z</time>
      </trkpt>
      <trkpt lat="45.3125" lon="0.4233">
        <ele>166</ele>
        <time>2015-09-22T12:44:52Z</time>
      </trkpt>
      <trkpt lat="45.31248" lon="0.42336">
        <ele>167</ele>
        <time>2015-09-22T12:44:57Z</time>
      </trkpt>
      <trkpt lat="45.31245" lon="0.42341">
        <ele>166</ele>
        <time>2015-09-22T12:45:02Z</time>
      </trkpt>
      <trkpt lat="45.31245" lon="0.42347">
        <ele>165</ele>
        <time>2015-09-22T12:45:06Z</time>
      </trkpt>
      <trkpt lat="45.31244" lon="0.42353">
        <ele>167</ele>
        <time>2015-09-22T12:45:11Z</time>
      </trkpt>
      <trkpt lat="45.31241" lon="0.42361">
        <ele>166</ele>
        <time>2015-09-22T12:45:16Z</time>
      </trkpt>
      <trkpt lat="45.31239" lon="0.42366">
        <ele>167</ele>
        <time>2015-09-22T12:45:20Z</time>
      </trkpt>
      <trkpt lat="45.31236" lon="0.4237">
        <ele>170</ele>
        <time>2015-09-22T12:45:25Z</time>
      </trkpt>
      <trkpt lat="45.31235" lon="0.42374">
        <ele>171</ele>
        <time>2015-09-22T12:45:29Z</time>
      </trkpt>
      <trkpt lat="45.31233" lon="0.42381">
        <ele>171</ele>
        <time>2015-09-22T12:45:33Z</time>
      </trkpt>
      <trkpt lat="45.31232" lon="0.42388">
        <ele>171</ele>
        <time>2015-09-22T12:45:38Z</time>
      </trkpt>
      <trkpt lat="45.31231" lon="0.42394">
        <ele>172</ele>
        <time>2015-09-22T12:45:42Z</time>
      </trkpt>
      <trkpt lat="45.3123" lon="0.42403">
        <ele>172</ele>
        <time>2015-09-22T12:45:47Z</time>
      </trkpt>
      <trkpt lat="45.31228" lon="0.42407">
        <ele>171</ele>
        <time>2015-09-22T12:45:52Z</time>
      </trkpt>
      <trkpt lat="45.31227" lon="0.42412">
        <ele>170</ele>
        <time>2015-09-22T12:45:57Z</time>
      </trkpt>
      <trkpt lat="45.31225" lon="0.4242">
        <ele>170</ele>
        <time>2015-09-22T12:46:02Z</time>
      </trkpt>
      <trkpt lat="45.31223" lon="0.42427">
        <ele>171</ele>
        <time>2015-09-22T12:46:06Z</time>
      </trkpt>
      <trkpt lat="45.31222" lon="0.42431">
        <ele>170</ele>
        <time>2015-09-22T12:46:11Z</time>
      </trkpt>
      <trkpt lat="45.31218" lon="0.42437">
        <ele>172</ele>
        <time>2015-09-22T12:46:16Z</time>
      </trkpt>
      <trkpt lat="45.31214" lon="0.42442">
        <ele>172</ele>
        <time>2015-09-22T12:46:21Z</time>
      </trkpt>
      <trkpt lat="45.3121" lon="0.42449">
        <ele>171</ele>
        <time>2015-09-22T12:46:25Z</time>
      </trkpt>
      <trkpt lat="45.31208" lon="0.42455">
        <ele>170</ele>
        <time>2015-09-22T12:46:44Z</time>
      </trkpt>
      <trkpt lat="45.3121" lon="0.42459">
        <ele>169</ele>
        <time>2015-09-22T12:46:48Z</time>
      </trkpt>
      <trkpt lat="45.31214" lon="0.42463">
        <ele>168</ele>
        <time>2015-09-22T12:46:52Z</time>
      </trkpt>
      <trkpt lat="45.31218" lon="0.42468">
        <ele>168</ele>
        <time>2015-09-22T12:46:56Z</time>
      </trkpt>
      <trkpt lat="45.31221" lon="0.42471">
        <ele>167</ele>
        <time>2015-09-22T12:47:00Z</time>
      </trkpt>
      <trkpt lat="45.31227" lon="0.42474">
        <ele>166</ele>
        <time>2015-09-22T12:47:05Z</time>
      </trkpt>
      <trkpt lat="45.3123" lon="0.42474">
        <ele>165</ele>
        <time>2015-09-22T12:47:09Z</time>
      </trkpt>
      <trkpt lat="45.31235" lon="0.42476">
        <ele>166</ele>
        <time>2015-09-22T12:47:13Z</time>
      </trkpt>
      <trkpt lat="45.31239" lon="0.4248">
        <ele>166</ele>
        <time>2015-09-22T12:47:17Z</time>
      </trkpt>
      <trkpt lat="45.31244" lon="0.42483">
        <ele>166</ele>
        <time>2015-09-22T12:47:22Z</time>
      </trkpt>
      <trkpt lat="45.31249" lon="0.42483">
        <ele>166</ele>
        <time>2015-09-22T12:47:26Z</time>
      </trkpt>
      <trkpt lat="45.31253" lon="0.42485">
        <ele>165</ele>
        <time>2015-09-22T12:47:30Z</time>
      </trkpt>
      <trkpt lat="45.31257" lon="0.42488">
        <ele>166</ele>
        <time>2015-09-22T12:47:34Z</time>
      </trkpt>
      <trkpt lat="45.31262" lon="0.42489">
        <ele>166</ele>
        <time>2015-09-22T12:47:38Z</time>
      </trkpt>
      <trkpt lat="45.31266" lon="0.42491">
        <ele>166</ele>
        <time>2015-09-22T12:47:42Z</time>
      </trkpt>
      <trkpt lat="45.31271" lon="0.42491">
        <ele>166</ele>
        <time>2015-09-22T12:47:46Z</time>
      </trkpt>
      <trkpt lat="45.31276" lon="0.42491">
        <ele>165</ele>
        <time>2015-09-22T12:47:50Z</time>
      </trkpt>
      <trkpt lat="45.31282" lon="0.42492">
        <ele>164</ele>
        <time>2015-09-22T12:47:55Z</time>
      </trkpt>
      <trkpt lat="45.31286" lon="0.42493">
        <ele>164</ele>
        <time>2015-09-22T12:47:59Z</time>
      </trkpt>
      <trkpt lat="45.31292" lon="0.42494">
        <ele>164</ele>
        <time>2015-09-22T12:48:03Z</time>
      </trkpt>
      <trkpt lat="45.31297" lon="0.42496">
        <ele>165</ele>
        <time>2015-09-22T12:48:07Z</time>
      </trkpt>
      <trkpt lat="45.31301" lon="0.42497">
        <ele>164</ele>
        <time>2015-09-22T12:48:11Z</time>
      </trkpt>
      <trkpt lat="45.31305" lon="0.42503">
        <ele>165</ele>
        <time>2015-09-22T12:48:16Z</time>
      </trkpt>
      <trkpt lat="45.31307" lon="0.42508">
        <ele>165</ele>
        <time>2015-09-22T12:48:20Z</time>
      </trkpt>
      <trkpt lat="45.31309" lon="0.42513">
        <ele>165</ele>
        <time>2015-09-22T12:48:24Z</time>
      </trkpt>
      <trkpt lat="45.31311" lon="0.4252">
        <ele>164</ele>
        <time>2015-09-22T12:48:29Z</time>
      </trkpt>
      <trkpt lat="45.31314" lon="0.42526">
        <ele>164</ele>
        <time>2015-09-22T12:48:33Z</time>
      </trkpt>
      <trkpt lat="45.31316" lon="0.42531">
        <ele>163</ele>
        <time>2015-09-22T12:48:37Z</time>
      </trkpt>
      <trkpt lat="45.31319" lon="0.42537">
        <ele>164</ele>
        <time>2015-09-22T12:48:42Z</time>
      </trkpt>
      <trkpt lat="45.3132" lon="0.42544">
        <ele>165</ele>
        <time>2015-09-22T12:48:46Z</time>
      </trkpt>
      <trkpt lat="45.31322" lon="0.4255">
        <ele>165</ele>
        <time>2015-09-22T12:48:50Z</time>
      </trkpt>
      <trkpt lat="45.31324" lon="0.42558">
        <ele>165</ele>
        <time>2015-09-22T12:48:55Z</time>
      </trkpt>
      <trkpt lat="45.31326" lon="0.42563">
        <ele>164</ele>
        <time>2015-09-22T12:48:59Z</time>
      </trkpt>
      <trkpt lat="45.31328" lon="0.4257">
        <ele>164</ele>
        <time>2015-09-22T12:49:03Z</time>
      </trkpt>
      <trkpt lat="45.3133" lon="0.42577">
        <ele>164</ele>
        <time>2015-09-22T12:49:08Z</time>
      </trkpt>
      <trkpt lat="45.31331" lon="0.42582">
        <ele>164</ele>
        <time>2015-09-22T12:49:12Z</time>
      </trkpt>
      <trkpt lat="45.31332" lon="0.4259">
        <ele>164</ele>
        <time>2015-09-22T12:49:16Z</time>
      </trkpt>
      <trkpt lat="45.31335" lon="0.42594">
        <ele>163</ele>
        <time>2015-09-22T12:49:20Z</time>
      </trkpt>
      <trkpt lat="45.31336" lon="0.426">
        <ele>164</ele>
        <time>2015-09-22T12:49:25Z</time>
      </trkpt>
      <trkpt lat="45.3134" lon="0.42606">
        <ele>164</ele>
        <time>2015-09-22T12:49:30Z</time>
      </trkpt>
      <trkpt lat="45.31342" lon="0.42613">
        <ele>162</ele>
        <time>2015-09-22T12:49:34Z</time>
      </trkpt>
      <trkpt lat="45.31344" lon="0.42619">
        <ele>162</ele>
        <time>2015-09-22T12:49:38Z</time>
      </trkpt>
      <trkpt lat="45.31347" lon="0.42625">
        <ele>162</ele>
        <time>2015-09-22T12:49:42Z</time>
      </trkpt>
      <trkpt lat="45.31347" lon="0.42633">
        <ele>162</ele>
        <time>2015-09-22T12:49:46Z</time>
      </trkpt>
      <trkpt lat="45.31349" lon="0.42638">
        <ele>162</ele>
        <time>2015-09-22T12:49:50Z</time>
      </trkpt>
      <trkpt lat="45.3135" lon="0.42645">
        <ele>162</ele>
        <time>2015-09-22T12:49:54Z</time>
      </trkpt>
      <trkpt lat="45.31352" lon="0.42653">
        <ele>159</ele>
        <time>2015-09-22T12:49:59Z</time>
      </trkpt>
      <trkpt lat="45.31355" lon="0.42662">
        <ele>157</ele>
        <time>2015-09-22T12:50:04Z</time>
      </trkpt>
      <trkpt lat="45.31356" lon="0.42668">
        <ele>155</ele>
        <time>2015-09-22T12:50:08Z</time>
      </trkpt>
      <trkpt lat="45.31357" lon="0.42675">
        <ele>155</ele>
        <time>2015-09-22T12:50:12Z</time>
      </trkpt>
      <trkpt lat="45.31357" lon="0.42681">
        <ele>154</ele>
        <time>2015-09-22T12:50:16Z</time>
      </trkpt>
      <trkpt lat="45.31358" lon="0.42688">
        <ele>153</ele>
        <time>2015-09-22T12:50:21Z</time>
      </trkpt>
      <trkpt lat="45.31358" lon="0.42696">
        <ele>152</ele>
        <time>2015-09-22T12:50:25Z</time>
      </trkpt>
      <trkpt lat="45.31358" lon="0.42702">
        <ele>151</ele>
        <time>2015-09-22T12:50:29Z</time>
      </trkpt>
      <trkpt lat="45.31357" lon="0.42708">
        <ele>150</ele>
        <time>2015-09-22T12:50:33Z</time>
      </trkpt>
      <trkpt lat="45.31357" lon="0.42716">
        <ele>149</ele>
        <time>2015-09-22T12:50:38Z</time>
      </trkpt>
      <trkpt lat="45.31357" lon="0.42723">
        <ele>149</ele>
        <time>2015-09-22T12:50:42Z</time>
      </trkpt>
      <trkpt lat="45.31357" lon="0.42729">
        <ele>150</ele>
        <time>2015-09-22T12:50:46Z</time>
      </trkpt>
      <trkpt lat="45.31358" lon="0.42738">
        <ele>149</ele>
        <time>2015-09-22T12:50:51Z</time>
      </trkpt>
      <trkpt lat="45.31356" lon="0.42746">
        <ele>149</ele>
        <time>2015-09-22T12:50:55Z</time>
      </trkpt>
      <trkpt lat="45.31356" lon="0.42752">
        <ele>149</ele>
        <time>2015-09-22T12:50:59Z</time>
      </trkpt>
      <trkpt lat="45.31357" lon="0.4276">
        <ele>150</ele>
        <time>2015-09-22T12:51:04Z</time>
      </trkpt>
      <trkpt lat="45.31356" lon="0.42769">
        <ele>149</ele>
        <time>2015-09-22T12:51:09Z</time>
      </trkpt>
      <trkpt lat="45.31356" lon="0.42776">
        <ele>148</ele>
        <time>2015-09-22T12:51:13Z</time>
      </trkpt>
      <trkpt lat="45.31356" lon="0.42783">
        <ele>147</ele>
        <time>2015-09-22T12:51:17Z</time>
      </trkpt>
      <trkpt lat="45.31356" lon="0.42789">
        <ele>147</ele>
        <time>2015-09-22T12:51:21Z</time>
      </trkpt>
      <trkpt lat="45.31357" lon="0.42799">
        <ele>146</ele>
        <time>2015-09-22T12:51:26Z</time>
      </trkpt>
      <trkpt lat="45.31357" lon="0.42808">
        <ele>146</ele>
        <time>2015-09-22T12:51:31Z</time>
      </trkpt>
      <trkpt lat="45.31356" lon="0.42813">
        <ele>147</ele>
        <time>2015-09-22T12:51:35Z</time>
      </trkpt>
      <trkpt lat="45.31357" lon="0.42821">
        <ele>146</ele>
        <time>2015-09-22T12:51:39Z</time>
      </trkpt>
      <trkpt lat="45.31357" lon="0.42828">
        <ele>146</ele>
        <time>2015-09-22T12:51:43Z</time>
      </trkpt>
      <trkpt lat="45.31356" lon="0.42835">
        <ele>145</ele>
        <time>2015-09-22T12:51:47Z</time>
      </trkpt>
      <trkpt lat="45.31357" lon="0.42842">
        <ele>144</ele>
        <time>2015-09-22T12:51:51Z</time>
      </trkpt>
      <trkpt lat="45.31356" lon="0.42849">
        <ele>144</ele>
        <time>2015-09-22T12:51:55Z</time>
      </trkpt>
      <trkpt lat="45.31356" lon="0.42855">
        <ele>144</ele>
        <time>2015-09-22T12:51:59Z</time>
      </trkpt>
      <trkpt lat="45.31354" lon="0.42861">
        <ele>143</ele>
        <time>2015-09-22T12:52:09Z</time>
      </trkpt>
      <trkpt lat="45.31354" lon="0.42868">
        <ele>144</ele>
        <time>2015-09-22T12:52:13Z</time>
      </trkpt>
      <trkpt lat="45.31353" lon="0.42875">
        <ele>144</ele>
        <time>2015-09-22T12:52:17Z</time>
      </trkpt>
      <trkpt lat="45.31354" lon="0.42881">
        <ele>143</ele>
        <time>2015-09-22T12:52:21Z</time>
      </trkpt>
      <trkpt lat="45.31354" lon="0.42892">
        <ele>142</ele>
        <time>2015-09-22T12:52:26Z</time>
      </trkpt>
      <trkpt lat="45.31352" lon="0.42897">
        <ele>142</ele>
        <time>2015-09-22T12:52:30Z</time>
      </trkpt>
      <trkpt lat="45.31352" lon="0.42905">
        <ele>142</ele>
        <time>2015-09-22T12:52:34Z</time>
      </trkpt>
      <trkpt lat="45.31352" lon="0.42913">
        <ele>142</ele>
        <time>2015-09-22T12:52:39Z</time>
      </trkpt>
      <trkpt lat="45.3135" lon="0.42921">
        <ele>142</ele>
        <time>2015-09-22T12:52:43Z</time>
      </trkpt>
      <trkpt lat="45.31349" lon="0.42928">
        <ele>142</ele>
        <time>2015-09-22T12:52:47Z</time>
      </trkpt>
      <trkpt lat="45.31349" lon="0.42935">
        <ele>142</ele>
        <time>2015-09-22T12:52:51Z</time>
      </trkpt>
      <trkpt lat="45.31348" lon="0.42942">
        <ele>143</ele>
        <time>2015-09-22T12:52:55Z</time>
      </trkpt>
      <trkpt lat="45.31348" lon="0.42952">
        <ele>143</ele>
        <time>2015-09-22T12:53:00Z</time>
      </trkpt>
      <trkpt lat="45.31347" lon="0.42959">
        <ele>143</ele>
        <time>2015-09-22T12:53:04Z</time>
      </trkpt>
      <trkpt lat="45.31348" lon="0.42967">
        <ele>142</ele>
        <time>2015-09-22T12:53:08Z</time>
      </trkpt>
      <trkpt lat="45.31347" lon="0.42973">
        <ele>141</ele>
        <time>2015-09-22T12:53:12Z</time>
      </trkpt>
      <trkpt lat="45.31348" lon="0.42982">
        <ele>141</ele>
        <time>2015-09-22T12:53:17Z</time>
      </trkpt>
      <trkpt lat="45.31348" lon="0.42989">
        <ele>139</ele>
        <time>2015-09-22T12:53:21Z</time>
      </trkpt>
      <trkpt lat="45.3135" lon="0.42997">
        <ele>137</ele>
        <time>2015-09-22T12:53:25Z</time>
      </trkpt>
      <trkpt lat="45.31348" lon="0.43004">
        <ele>138</ele>
        <time>2015-09-22T12:53:30Z</time>
      </trkpt>
      <trkpt lat="45.31347" lon="0.43013">
        <ele>138</ele>
        <time>2015-09-22T12:53:35Z</time>
      </trkpt>
      <trkpt lat="45.31346" lon="0.4302">
        <ele>138</ele>
        <time>2015-09-22T12:53:39Z</time>
      </trkpt>
      <trkpt lat="45.31347" lon="0.43027">
        <ele>138</ele>
        <time>2015-09-22T12:53:43Z</time>
      </trkpt>
      <trkpt lat="45.31345" lon="0.43035">
        <ele>138</ele>
        <time>2015-09-22T12:53:48Z</time>
      </trkpt>
      <trkpt lat="45.31344" lon="0.43042">
        <ele>138</ele>
        <time>2015-09-22T12:53:52Z</time>
      </trkpt>
      <trkpt lat="45.31345" lon="0.4305">
        <ele>136</ele>
        <time>2015-09-22T12:53:56Z</time>
      </trkpt>
      <trkpt lat="45.31345" lon="0.43056">
        <ele>135</ele>
        <time>2015-09-22T12:54:00Z</time>
      </trkpt>
      <trkpt lat="45.31344" lon="0.43066">
        <ele>135</ele>
        <time>2015-09-22T12:54:05Z</time>
      </trkpt>
      <trkpt lat="45.31344" lon="0.43073">
        <ele>134</ele>
        <time>2015-09-22T12:54:10Z</time>
      </trkpt>
      <trkpt lat="45.31344" lon="0.43077">
        <ele>133</ele>
        <time>2015-09-22T12:54:14Z</time>
      </trkpt>
      <trkpt lat="45.31343" lon="0.43086">
        <ele>133</ele>
        <time>2015-09-22T12:54:18Z</time>
      </trkpt>
      <trkpt lat="45.31342" lon="0.43096">
        <ele>132</ele>
        <time>2015-09-22T12:54:22Z</time>
      </trkpt>
      <trkpt lat="45.31342" lon="0.43104">
        <ele>131</ele>
        <time>2015-09-22T12:54:26Z</time>
      </trkpt>
      <trkpt lat="45.31342" lon="0.43113">
        <ele>131</ele>
        <time>2015-09-22T12:54:31Z</time>
      </trkpt>
      <trkpt lat="45.31341" lon="0.4312">
        <ele>131</ele>
        <time>2015-09-22T12:54:35Z</time>
      </trkpt>
      <trkpt lat="45.31341" lon="0.43128">
        <ele>131</ele>
        <time>2015-09-22T12:54:40Z</time>
      </trkpt>
      <trkpt lat="45.31339" lon="0.43135">
        <ele>131</ele>
        <time>2015-09-22T12:54:44Z</time>
      </trkpt>
      <trkpt lat="45.31338" lon="0.43144">
        <ele>130</ele>
        <time>2015-09-22T12:54:49Z</time>
      </trkpt>
      <trkpt lat="45.31337" lon="0.43149">
        <ele>130</ele>
        <time>2015-09-22T12:54:53Z</time>
      </trkpt>
      <trkpt lat="45.31336" lon="0.43158">
        <ele>129</ele>
        <time>2015-09-22T12:54:58Z</time>
      </trkpt>
      <trkpt lat="45.31334" lon="0.43165">
        <ele>130</ele>
        <time>2015-09-22T12:55:02Z</time>
      </trkpt>
      <trkpt lat="45.31332" lon="0.43172">
        <ele>129</ele>
        <time>2015-09-22T12:55:06Z</time>
      </trkpt>
      <trkpt lat="45.31331" lon="0.43178">
        <ele>130</ele>
        <time>2015-09-22T12:55:10Z</time>
      </trkpt>
      <trkpt lat="45.31331" lon="0.43184">
        <ele>130</ele>
        <time>2015-09-22T12:55:14Z</time>
      </trkpt>
      <trkpt lat="45.31331" lon="0.43194">
        <ele>129</ele>
        <time>2015-09-22T12:55:19Z</time>
      </trkpt>
      <trkpt lat="45.3133" lon="0.43202">
        <ele>128</ele>
        <time>2015-09-22T12:55:23Z</time>
      </trkpt>
      <trkpt lat="45.3133" lon="0.43208">
        <ele>127</ele>
        <time>2015-09-22T12:55:27Z</time>
      </trkpt>
      <trkpt lat="45.31329" lon="0.43217">
        <ele>126</ele>
        <time>2015-09-22T12:55:32Z</time>
      </trkpt>
      <trkpt lat="45.31328" lon="0.43226">
        <ele>125</ele>
        <time>2015-09-22T12:55:37Z</time>
      </trkpt>
      <trkpt lat="45.31327" lon="0.43234">
        <ele>125</ele>
        <time>2015-09-22T12:55:41Z</time>
      </trkpt>
      <trkpt lat="45.31326" lon="0.43241">
        <ele>125</ele>
        <time>2015-09-22T12:55:46Z</time>
      </trkpt>
      <trkpt lat="45.31326" lon="0.43247">
        <ele>126</ele>
        <time>2015-09-22T12:55:50Z</time>
      </trkpt>
      <trkpt lat="45.31325" lon="0.43255">
        <ele>126</ele>
        <time>2015-09-22T12:55:55Z</time>
      </trkpt>
      <trkpt lat="45.31323" lon="0.43261">
        <ele>127</ele>
        <time>2015-09-22T12:55:59Z</time>
      </trkpt>
      <trkpt lat="45.31323" lon="0.4327">
        <ele>127</ele>
        <time>2015-09-22T12:56:04Z</time>
      </trkpt>
      <trkpt lat="45.31321" lon="0.43279">
        <ele>127</ele>
        <time>2015-09-22T12:56:09Z</time>
      </trkpt>
      <trkpt lat="45.3132" lon="0.43285">
        <ele>128</ele>
        <time>2015-09-22T12:56:13Z</time>
      </trkpt>
      <trkpt lat="45.3132" lon="0.4329">
        <ele>130</ele>
        <time>2015-09-22T12:56:17Z</time>
      </trkpt>
      <trkpt lat="45.31318" lon="0.43297">
        <ele>132</ele>
        <time>2015-09-22T12:56:21Z</time>
      </trkpt>
      <trkpt lat="45.31317" lon="0.43304">
        <ele>132</ele>
        <time>2015-09-22T12:56:25Z</time>
      </trkpt>
      <trkpt lat="45.31316" lon="0.43311">
        <ele>131</ele>
        <time>2015-09-22T12:56:29Z</time>
      </trkpt>
      <trkpt lat="45.31315" lon="0.43317">
        <ele>133</ele>
        <time>2015-09-22T12:56:33Z</time>
      </trkpt>
      <trkpt lat="45.31314" lon="0.43325">
        <ele>133</ele>
        <time>2015-09-22T12:56:38Z</time>
      </trkpt>
      <trkpt lat="45.31312" lon="0.43331">
        <ele>134</ele>
        <time>2015-09-22T12:56:42Z</time>
      </trkpt>
      <trkpt lat="45.31312" lon="0.4334">
        <ele>133</ele>
        <time>2015-09-22T12:56:47Z</time>
      </trkpt>
      <trkpt lat="45.31311" lon="0.43345">
        <ele>132</ele>
        <time>2015-09-22T12:56:53Z</time>
      </trkpt>
      <trkpt lat="45.3131" lon="0.4335">
        <ele>133</ele>
        <time>2015-09-22T12:56:58Z</time>
      </trkpt>
      <trkpt lat="45.31311" lon="0.43357">
        <ele>131</ele>
        <time>2015-09-22T12:57:02Z</time>
      </trkpt>
      <trkpt lat="45.3131" lon="0.43363">
        <ele>125</ele>
        <time>2015-09-22T12:57:32Z</time>
      </trkpt>
      <trkpt lat="45.31307" lon="0.43365">
        <ele>128</ele>
        <time>2015-09-22T13:01:49Z</time>
      </trkpt>
      <trkpt lat="45.31302" lon="0.43364">
        <ele>131</ele>
        <time>2015-09-22T13:01:53Z</time>
      </trkpt>
      <trkpt lat="45.31298" lon="0.43361">
        <ele>131</ele>
        <time>2015-09-22T13:01:57Z</time>
      </trkpt>
      <trkpt lat="45.31292" lon="0.4336">
        <ele>130</ele>
        <time>2015-09-22T13:02:01Z</time>
      </trkpt>
      <trkpt lat="45.31288" lon="0.43357">
        <ele>131</ele>
        <time>2015-09-22T13:02:05Z</time>
      </trkpt>
      <trkpt lat="45.31282" lon="0.43355">
        <ele>131</ele>
        <time>2015-09-22T13:02:10Z</time>
      </trkpt>
      <trkpt lat="45.31277" lon="0.43354">
        <ele>132</ele>
        <time>2015-09-22T13:02:14Z</time>
      </trkpt>
      <trkpt lat="45.31274" lon="0.43356">
        <ele>130</ele>
        <time>2015-09-22T13:02:18Z</time>
      </trkpt>
      <trkpt lat="45.31268" lon="0.43354">
        <ele>129</ele>
        <time>2015-09-22T13:02:23Z</time>
      </trkpt>
      <trkpt lat="45.31263" lon="0.4335">
        <ele>130</ele>
        <time>2015-09-22T13:02:27Z</time>
      </trkpt>
      <trkpt lat="45.31258" lon="0.43348">
        <ele>131</ele>
        <time>2015-09-22T13:02:31Z</time>
      </trkpt>
      <trkpt lat="45.31254" lon="0.43344">
        <ele>132</ele>
        <time>2015-09-22T13:02:38Z</time>
      </trkpt>
      <trkpt lat="45.31251" lon="0.4334">
        <ele>132</ele>
        <time>2015-09-22T13:02:42Z</time>
      </trkpt>
      <trkpt lat="45.31247" lon="0.43337">
        <ele>131</ele>
        <time>2015-09-22T13:02:47Z</time>
      </trkpt>
      <trkpt lat="45.31242" lon="0.43333">
        <ele>131</ele>
        <time>2015-09-22T13:02:52Z</time>
      </trkpt>
      <trkpt lat="45.31237" lon="0.4333">
        <ele>131</ele>
        <time>2015-09-22T13:02:56Z</time>
      </trkpt>
      <trkpt lat="45.31231" lon="0.43326">
        <ele>132</ele>
        <time>2015-09-22T13:03:01Z</time>
      </trkpt>
      <trkpt lat="45.31226" lon="0.43322">
        <ele>132</ele>
        <time>2015-09-22T13:03:05Z</time>
      </trkpt>
      <trkpt lat="45.31222" lon="0.43318">
        <ele>132</ele>
        <time>2015-09-22T13:03:10Z</time>
      </trkpt>
      <trkpt lat="45.31217" lon="0.43314">
        <ele>132</ele>
        <time>2015-09-22T13:03:14Z</time>
      </trkpt>
      <trkpt lat="45.31211" lon="0.43309">
        <ele>132</ele>
        <time>2015-09-22T13:03:19Z</time>
      </trkpt>
      <trkpt lat="45.31206" lon="0.43305">
        <ele>132</ele>
        <time>2015-09-22T13:03:23Z</time>
      </trkpt>
      <trkpt lat="45.31201" lon="0.43301">
        <ele>133</ele>
        <time>2015-09-22T13:03:27Z</time>
      </trkpt>
      <trkpt lat="45.31196" lon="0.43296">
        <ele>133</ele>
        <time>2015-09-22T13:03:32Z</time>
      </trkpt>
      <trkpt lat="45.31191" lon="0.43293">
        <ele>133</ele>
        <time>2015-09-22T13:03:36Z</time>
      </trkpt>
      <trkpt lat="45.31185" lon="0.43289">
        <ele>133</ele>
        <time>2015-09-22T13:03:41Z</time>
      </trkpt>
      <trkpt lat="45.31181" lon="0.43284">
        <ele>132</ele>
        <time>2015-09-22T13:03:46Z</time>
      </trkpt>
      <trkpt lat="45.31176" lon="0.43281">
        <ele>132</ele>
        <time>2015-09-22T13:03:51Z</time>
      </trkpt>
      <trkpt lat="45.31172" lon="0.43278">
        <ele>131</ele>
        <time>2015-09-22T13:03:55Z</time>
      </trkpt>
      <trkpt lat="45.31167" lon="0.43274">
        <ele>132</ele>
        <time>2015-09-22T13:04:00Z</time>
      </trkpt>
      <trkpt lat="45.31161" lon="0.43271">
        <ele>131</ele>
        <time>2015-09-22T13:04:05Z</time>
      </trkpt>
      <trkpt lat="45.31156" lon="0.43267">
        <ele>132</ele>
        <time>2015-09-22T13:04:09Z</time>
      </trkpt>
      <trkpt lat="45.3115" lon="0.43262">
        <ele>131</ele>
        <time>2015-09-22T13:04:14Z</time>
      </trkpt>
      <trkpt lat="45.31146" lon="0.43259">
        <ele>131</ele>
        <time>2015-09-22T13:04:18Z</time>
      </trkpt>
      <trkpt lat="45.31141" lon="0.43255">
        <ele>132</ele>
        <time>2015-09-22T13:04:22Z</time>
      </trkpt>
      <trkpt lat="45.31136" lon="0.43252">
        <ele>132</ele>
        <time>2015-09-22T13:04:27Z</time>
      </trkpt>
      <trkpt lat="45.31132" lon="0.43249">
        <ele>132</ele>
        <time>2015-09-22T13:04:31Z</time>
      </trkpt>
      <trkpt lat="45.31127" lon="0.43244">
        <ele>132</ele>
        <time>2015-09-22T13:04:35Z</time>
      </trkpt>
      <trkpt lat="45.31121" lon="0.4324">
        <ele>132</ele>
        <time>2015-09-22T13:04:40Z</time>
      </trkpt>
      <trkpt lat="45.31115" lon="0.43238">
        <ele>132</ele>
        <time>2015-09-22T13:04:45Z</time>
      </trkpt>
      <trkpt lat="45.31112" lon="0.43237">
        <ele>132</ele>
        <time>2015-09-22T13:04:49Z</time>
      </trkpt>
      <trkpt lat="45.31104" lon="0.43236">
        <ele>131</ele>
        <time>2015-09-22T13:04:53Z</time>
      </trkpt>
      <trkpt lat="45.31097" lon="0.43231">
        <ele>131</ele>
        <time>2015-09-22T13:04:58Z</time>
      </trkpt>
      <trkpt lat="45.31092" lon="0.4323">
        <ele>131</ele>
        <time>2015-09-22T13:05:02Z</time>
      </trkpt>
      <trkpt lat="45.31084" lon="0.43232">
        <ele>130</ele>
        <time>2015-09-22T13:05:07Z</time>
      </trkpt>
      <trkpt lat="45.31081" lon="0.43237">
        <ele>131</ele>
        <time>2015-09-22T13:05:11Z</time>
      </trkpt>
      <trkpt lat="45.31078" lon="0.43242">
        <ele>132</ele>
        <time>2015-09-22T13:05:15Z</time>
      </trkpt>
      <trkpt lat="45.31075" lon="0.43247">
        <ele>134</ele>
        <time>2015-09-22T13:05:20Z</time>
      </trkpt>
      <trkpt lat="45.31074" lon="0.43251">
        <ele>134</ele>
        <time>2015-09-22T13:05:24Z</time>
      </trkpt>
      <trkpt lat="45.31072" lon="0.43259">
        <ele>135</ele>
        <time>2015-09-22T13:05:28Z</time>
      </trkpt>
      <trkpt lat="45.3107" lon="0.43264">
        <ele>136</ele>
        <time>2015-09-22T13:05:32Z</time>
      </trkpt>
      <trkpt lat="45.31068" lon="0.43269">
        <ele>136</ele>
        <time>2015-09-22T13:05:36Z</time>
      </trkpt>
      <trkpt lat="45.31066" lon="0.43275">
        <ele>135</ele>
        <time>2015-09-22T13:05:40Z</time>
      </trkpt>
      <trkpt lat="45.31064" lon="0.4328">
        <ele>135</ele>
        <time>2015-09-22T13:05:44Z</time>
      </trkpt>
      <trkpt lat="45.31063" lon="0.43286">
        <ele>136</ele>
        <time>2015-09-22T13:05:48Z</time>
      </trkpt>
      <trkpt lat="45.31061" lon="0.43293">
        <ele>136</ele>
        <time>2015-09-22T13:05:53Z</time>
      </trkpt>
      <trkpt lat="45.31059" lon="0.43298">
        <ele>136</ele>
        <time>2015-09-22T13:05:57Z</time>
      </trkpt>
      <trkpt lat="45.31058" lon="0.43304">
        <ele>135</ele>
        <time>2015-09-22T13:06:01Z</time>
      </trkpt>
      <trkpt lat="45.31057" lon="0.43309">
        <ele>135</ele>
        <time>2015-09-22T13:06:05Z</time>
      </trkpt>
      <trkpt lat="45.31055" lon="0.43316">
        <ele>135</ele>
        <time>2015-09-22T13:06:10Z</time>
      </trkpt>
      <trkpt lat="45.31053" lon="0.43323">
        <ele>136</ele>
        <time>2015-09-22T13:06:15Z</time>
      </trkpt>
      <trkpt lat="45.31052" lon="0.43328">
        <ele>137</ele>
        <time>2015-09-22T13:06:19Z</time>
      </trkpt>
      <trkpt lat="45.3105" lon="0.43335">
        <ele>137</ele>
        <time>2015-09-22T13:06:23Z</time>
      </trkpt>
      <trkpt lat="45.31049" lon="0.43343">
        <ele>137</ele>
        <time>2015-09-22T13:06:28Z</time>
      </trkpt>
      <trkpt lat="45.31047" lon="0.4335">
        <ele>138</ele>
        <time>2015-09-22T13:06:32Z</time>
      </trkpt>
      <trkpt lat="45.31045" lon="0.43358">
        <ele>138</ele>
        <time>2015-09-22T13:06:37Z</time>
      </trkpt>
      <trkpt lat="45.31043" lon="0.43366">
        <ele>138</ele>
        <time>2015-09-22T13:06:41Z</time>
      </trkpt>
      <trkpt lat="45.31041" lon="0.43371">
        <ele>138</ele>
        <time>2015-09-22T13:06:45Z</time>
      </trkpt>
      <trkpt lat="45.3104" lon="0.4338">
        <ele>138</ele>
        <time>2015-09-22T13:06:50Z</time>
      </trkpt>
      <trkpt lat="45.31037" lon="0.43386">
        <ele>138</ele>
        <time>2015-09-22T13:06:54Z</time>
      </trkpt>
      <trkpt lat="45.31036" lon="0.43392">
        <ele>139</ele>
        <time>2015-09-22T13:06:58Z</time>
      </trkpt>
      <trkpt lat="45.31034" lon="0.434">
        <ele>139</ele>
        <time>2015-09-22T13:07:03Z</time>
      </trkpt>
      <trkpt lat="45.31032" lon="0.43407">
        <ele>139</ele>
        <time>2015-09-22T13:07:07Z</time>
      </trkpt>
      <trkpt lat="45.3103" lon="0.43412">
        <ele>139</ele>
        <time>2015-09-22T13:07:11Z</time>
      </trkpt>
      <trkpt lat="45.31028" lon="0.43418">
        <ele>139</ele>
        <time>2015-09-22T13:07:16Z</time>
      </trkpt>
      <trkpt lat="45.31026" lon="0.43424">
        <ele>140</ele>
        <time>2015-09-22T13:07:20Z</time>
      </trkpt>
      <trkpt lat="45.31022" lon="0.4343">
        <ele>141</ele>
        <time>2015-09-22T13:07:25Z</time>
      </trkpt>
      <trkpt lat="45.31019" lon="0.43436">
        <ele>141</ele>
        <time>2015-09-22T13:07:29Z</time>
      </trkpt>
      <trkpt lat="45.31016" lon="0.43441">
        <ele>140</ele>
        <time>2015-09-22T13:07:33Z</time>
      </trkpt>
      <trkpt lat="45.31013" lon="0.43448">
        <ele>140</ele>
        <time>2015-09-22T13:07:38Z</time>
      </trkpt>
      <trkpt lat="45.3101" lon="0.43454">
        <ele>140</ele>
        <time>2015-09-22T13:07:42Z</time>
      </trkpt>
      <trkpt lat="45.31008" lon="0.43458">
        <ele>141</ele>
        <time>2015-09-22T13:07:46Z</time>
      </trkpt>
      <trkpt lat="45.31005" lon="0.43465">
        <ele>142</ele>
        <time>2015-09-22T13:07:51Z</time>
      </trkpt>
      <trkpt lat="45.31003" lon="0.43471">
        <ele>142</ele>
        <time>2015-09-22T13:07:55Z</time>
      </trkpt>
      <trkpt lat="45.31001" lon="0.43479">
        <ele>141</ele>
        <time>2015-09-22T13:07:59Z</time>
      </trkpt>
      <trkpt lat="45.30998" lon="0.43484">
        <ele>141</ele>
        <time>2015-09-22T13:08:03Z</time>
      </trkpt>
      <trkpt lat="45.30996" lon="0.4349">
        <ele>141</ele>
        <time>2015-09-22T13:08:08Z</time>
      </trkpt>
      <trkpt lat="45.30992" lon="0.43496">
        <ele>143</ele>
        <time>2015-09-22T13:08:12Z</time>
      </trkpt>
      <trkpt lat="45.30989" lon="0.435">
        <ele>146</ele>
        <time>2015-09-22T13:08:16Z</time>
      </trkpt>
      <trkpt lat="45.30987" lon="0.43506">
        <ele>147</ele>
        <time>2015-09-22T13:08:21Z</time>
      </trkpt>
      <trkpt lat="45.30985" lon="0.43513">
        <ele>146</ele>
        <time>2015-09-22T13:08:25Z</time>
      </trkpt>
      <trkpt lat="45.30982" lon="0.4352">
        <ele>145</ele>
        <time>2015-09-22T13:08:30Z</time>
      </trkpt>
      <trkpt lat="45.30979" lon="0.43525">
        <ele>146</ele>
        <time>2015-09-22T13:08:34Z</time>
      </trkpt>
      <trkpt lat="45.30976" lon="0.43533">
        <ele>145</ele>
        <time>2015-09-22T13:08:39Z</time>
      </trkpt>
      <trkpt lat="45.30974" lon="0.43539">
        <ele>144</ele>
        <time>2015-09-22T13:08:44Z</time>
      </trkpt>
      <trkpt lat="45.30972" lon="0.43545">
        <ele>144</ele>
        <time>2015-09-22T13:08:48Z</time>
      </trkpt>
      <trkpt lat="45.30972" lon="0.43551">
        <ele>143</ele>
        <time>2015-09-22T13:08:52Z</time>
      </trkpt>
      <trkpt lat="45.30967" lon="0.43556">
        <ele>144</ele>
        <time>2015-09-22T13:08:57Z</time>
      </trkpt>
      <trkpt lat="45.30964" lon="0.43562">
        <ele>145</ele>
        <time>2015-09-22T13:09:01Z</time>
      </trkpt>
      <trkpt lat="45.3096" lon="0.43567">
        <ele>147</ele>
        <time>2015-09-22T13:09:06Z</time>
      </trkpt>
      <trkpt lat="45.30958" lon="0.43572">
        <ele>147</ele>
        <time>2015-09-22T13:09:10Z</time>
      </trkpt>
      <trkpt lat="45.30954" lon="0.43579">
        <ele>147</ele>
        <time>2015-09-22T13:09:15Z</time>
      </trkpt>
      <trkpt lat="45.30953" lon="0.43586">
        <ele>146</ele>
        <time>2015-09-22T13:09:19Z</time>
      </trkpt>
      <trkpt lat="45.30951" lon="0.43591">
        <ele>146</ele>
        <time>2015-09-22T13:09:24Z</time>
      </trkpt>
      <trkpt lat="45.30948" lon="0.43597">
        <ele>146</ele>
        <time>2015-09-22T13:09:28Z</time>
      </trkpt>
      <trkpt lat="45.30946" lon="0.43602">
        <ele>146</ele>
        <time>2015-09-22T13:09:32Z</time>
      </trkpt>
      <trkpt lat="45.30944" lon="0.43607">
        <ele>147</ele>
        <time>2015-09-22T13:09:36Z</time>
      </trkpt>
      <trkpt lat="45.30942" lon="0.43612">
        <ele>146</ele>
        <time>2015-09-22T13:09:40Z</time>
      </trkpt>
      <trkpt lat="45.30939" lon="0.43617">
        <ele>145</ele>
        <time>2015-09-22T13:09:45Z</time>
      </trkpt>
      <trkpt lat="45.30937" lon="0.43621">
        <ele>145</ele>
        <time>2015-09-22T13:09:49Z</time>
      </trkpt>
      <trkpt lat="45.30935" lon="0.4363">
        <ele>143</ele>
        <time>2015-09-22T13:09:54Z</time>
      </trkpt>
      <trkpt lat="45.30931" lon="0.43633">
        <ele>143</ele>
        <time>2015-09-22T13:09:58Z</time>
      </trkpt>
      <trkpt lat="45.30928" lon="0.43636">
        <ele>145</ele>
        <time>2015-09-22T13:10:02Z</time>
      </trkpt>
      <trkpt lat="45.30922" lon="0.43638">
        <ele>146</ele>
        <time>2015-09-22T13:10:07Z</time>
      </trkpt>
      <trkpt lat="45.30918" lon="0.4364">
        <ele>147</ele>
        <time>2015-09-22T13:10:11Z</time>
      </trkpt>
      <trkpt lat="45.30913" lon="0.43642">
        <ele>148</ele>
        <time>2015-09-22T13:10:15Z</time>
      </trkpt>
      <trkpt lat="45.30908" lon="0.43647">
        <ele>148</ele>
        <time>2015-09-22T13:10:20Z</time>
      </trkpt>
      <trkpt lat="45.30905" lon="0.4365">
        <ele>148</ele>
        <time>2015-09-22T13:10:24Z</time>
      </trkpt>
      <trkpt lat="45.309" lon="0.43656">
        <ele>147</ele>
        <time>2015-09-22T13:10:28Z</time>
      </trkpt>
      <trkpt lat="45.30895" lon="0.43655">
        <ele>149</ele>
        <time>2015-09-22T13:10:32Z</time>
      </trkpt>
      <trkpt lat="45.30891" lon="0.43654">
        <ele>154</ele>
        <time>2015-09-22T13:10:37Z</time>
      </trkpt>
      <trkpt lat="45.30887" lon="0.43656">
        <ele>156</ele>
        <time>2015-09-22T13:10:41Z</time>
      </trkpt>
      <trkpt lat="45.30881" lon="0.43658">
        <ele>155</ele>
        <time>2015-09-22T13:10:46Z</time>
      </trkpt>
      <trkpt lat="45.30876" lon="0.43658">
        <ele>156</ele>
        <time>2015-09-22T13:10:50Z</time>
      </trkpt>
      <trkpt lat="45.30872" lon="0.43657">
        <ele>157</ele>
        <time>2015-09-22T13:10:55Z</time>
      </trkpt>
      <trkpt lat="45.30866" lon="0.43658">
        <ele>159</ele>
        <time>2015-09-22T13:11:00Z</time>
      </trkpt>
      <trkpt lat="45.30862" lon="0.43659">
        <ele>159</ele>
        <time>2015-09-22T13:11:05Z</time>
      </trkpt>
      <trkpt lat="45.30856" lon="0.43659">
        <ele>159</ele>
        <time>2015-09-22T13:11:09Z</time>
      </trkpt>
      <trkpt lat="45.30853" lon="0.43659">
        <ele>159</ele>
        <time>2015-09-22T13:11:14Z</time>
      </trkpt>
      <trkpt lat="45.30848" lon="0.43658">
        <ele>160</ele>
        <time>2015-09-22T13:11:18Z</time>
      </trkpt>
      <trkpt lat="45.30843" lon="0.43659">
        <ele>163</ele>
        <time>2015-09-22T13:11:23Z</time>
      </trkpt>
      <trkpt lat="45.30839" lon="0.43657">
        <ele>165</ele>
        <time>2015-09-22T13:11:28Z</time>
      </trkpt>
      <trkpt lat="45.30833" lon="0.43657">
        <ele>164</ele>
        <time>2015-09-22T13:11:33Z</time>
      </trkpt>
      <trkpt lat="45.30829" lon="0.43656">
        <ele>163</ele>
        <time>2015-09-22T13:11:37Z</time>
      </trkpt>
      <trkpt lat="45.30823" lon="0.43654">
        <ele>163</ele>
        <time>2015-09-22T13:11:42Z</time>
      </trkpt>
      <trkpt lat="45.30818" lon="0.4365">
        <ele>164</ele>
        <time>2015-09-22T13:11:47Z</time>
      </trkpt>
      <trkpt lat="45.30813" lon="0.43647">
        <ele>164</ele>
        <time>2015-09-22T13:11:51Z</time>
      </trkpt>
      <trkpt lat="45.30809" lon="0.43643">
        <ele>164</ele>
        <time>2015-09-22T13:11:55Z</time>
      </trkpt>
      <trkpt lat="45.30805" lon="0.43641">
        <ele>164</ele>
        <time>2015-09-22T13:11:59Z</time>
      </trkpt>
      <trkpt lat="45.30799" lon="0.43636">
        <ele>166</ele>
        <time>2015-09-22T13:12:04Z</time>
      </trkpt>
      <trkpt lat="45.30795" lon="0.43632">
        <ele>166</ele>
        <time>2015-09-22T13:12:08Z</time>
      </trkpt>
      <trkpt lat="45.30791" lon="0.43628">
        <ele>166</ele>
        <time>2015-09-22T13:12:12Z</time>
      </trkpt>
      <trkpt lat="45.30788" lon="0.43624">
        <ele>166</ele>
        <time>2015-09-22T13:12:17Z</time>
      </trkpt>
      <trkpt lat="45.30784" lon="0.43619">
        <ele>168</ele>
        <time>2015-09-22T13:12:21Z</time>
      </trkpt>
      <trkpt lat="45.30781" lon="0.43614">
        <ele>168</ele>
        <time>2015-09-22T13:12:25Z</time>
      </trkpt>
      <trkpt lat="45.30777" lon="0.43611">
        <ele>169</ele>
        <time>2015-09-22T13:12:29Z</time>
      </trkpt>
      <trkpt lat="45.30773" lon="0.43606">
        <ele>171</ele>
        <time>2015-09-22T13:12:34Z</time>
      </trkpt>
      <trkpt lat="45.3077" lon="0.43601">
        <ele>172</ele>
        <time>2015-09-22T13:12:39Z</time>
      </trkpt>
      <trkpt lat="45.30767" lon="0.43597">
        <ele>174</ele>
        <time>2015-09-22T13:12:43Z</time>
      </trkpt>
      <trkpt lat="45.30764" lon="0.43593">
        <ele>174</ele>
        <time>2015-09-22T13:12:47Z</time>
      </trkpt>
      <trkpt lat="45.3076" lon="0.43594">
        <ele>174</ele>
        <time>2015-09-22T13:12:52Z</time>
      </trkpt>
      <trkpt lat="45.30762" lon="0.43599">
        <ele>173</ele>
        <time>2015-09-22T13:13:15Z</time>
      </trkpt>
      <trkpt lat="45.30764" lon="0.43603">
        <ele>174</ele>
        <time>2015-09-22T13:13:22Z</time>
      </trkpt>
      <trkpt lat="45.30764" lon="0.43609">
        <ele>173</ele>
        <time>2015-09-22T13:16:42Z</time>
      </trkpt>
      <trkpt lat="45.30767" lon="0.43613">
        <ele>173</ele>
        <time>2015-09-22T13:16:46Z</time>
      </trkpt>
      <trkpt lat="45.3077" lon="0.43617">
        <ele>172</ele>
        <time>2015-09-22T13:16:51Z</time>
      </trkpt>
      <trkpt lat="45.30773" lon="0.43622">
        <ele>171</ele>
        <time>2015-09-22T13:16:57Z</time>
      </trkpt>
      <trkpt lat="45.30775" lon="0.43627">
        <ele>173</ele>
        <time>2015-09-22T13:17:08Z</time>
      </trkpt>
      <trkpt lat="45.30779" lon="0.43633">
        <ele>171</ele>
        <time>2015-09-22T13:17:13Z</time>
      </trkpt>
      <trkpt lat="45.30781" lon="0.43638">
        <ele>172</ele>
        <time>2015-09-22T13:17:17Z</time>
      </trkpt>
      <trkpt lat="45.30785" lon="0.43644">
        <ele>170</ele>
        <time>2015-09-22T13:17:22Z</time>
      </trkpt>
      <trkpt lat="45.30787" lon="0.43649">
        <ele>169</ele>
        <time>2015-09-22T13:17:27Z</time>
      </trkpt>
      <trkpt lat="45.30791" lon="0.43656">
        <ele>169</ele>
        <time>2015-09-22T13:17:31Z</time>
      </trkpt>
      <trkpt lat="45.30793" lon="0.43662">
        <ele>167</ele>
        <time>2015-09-22T13:17:36Z</time>
      </trkpt>
      <trkpt lat="45.30795" lon="0.43667">
        <ele>168</ele>
        <time>2015-09-22T13:17:40Z</time>
      </trkpt>
      <trkpt lat="45.30799" lon="0.43672">
        <ele>168</ele>
        <time>2015-09-22T13:17:45Z</time>
      </trkpt>
      <trkpt lat="45.30801" lon="0.43679">
        <ele>168</ele>
        <time>2015-09-22T13:17:49Z</time>
      </trkpt>
      <trkpt lat="45.30805" lon="0.43685">
        <ele>168</ele>
        <time>2015-09-22T13:17:54Z</time>
      </trkpt>
      <trkpt lat="45.30808" lon="0.43689">
        <ele>169</ele>
        <time>2015-09-22T13:17:58Z</time>
      </trkpt>
      <trkpt lat="45.30812" lon="0.43693">
        <ele>168</ele>
        <time>2015-09-22T13:18:02Z</time>
      </trkpt>
      <trkpt lat="45.30815" lon="0.43699">
        <ele>168</ele>
        <time>2015-09-22T13:18:06Z</time>
      </trkpt>
      <trkpt lat="45.30819" lon="0.43704">
        <ele>167</ele>
        <time>2015-09-22T13:18:11Z</time>
      </trkpt>
      <trkpt lat="45.30823" lon="0.43709">
        <ele>168</ele>
        <time>2015-09-22T13:18:16Z</time>
      </trkpt>
      <trkpt lat="45.30827" lon="0.43713">
        <ele>168</ele>
        <time>2015-09-22T13:18:20Z</time>
      </trkpt>
      <trkpt lat="45.30832" lon="0.43716">
        <ele>166</ele>
        <time>2015-09-22T13:18:25Z</time>
      </trkpt>
      <trkpt lat="45.30837" lon="0.4372">
        <ele>167</ele>
        <time>2015-09-22T13:18:29Z</time>
      </trkpt>
      <trkpt lat="45.30841" lon="0.43723">
        <ele>167</ele>
        <time>2015-09-22T13:18:33Z</time>
      </trkpt>
      <trkpt lat="45.30846" lon="0.43726">
        <ele>167</ele>
        <time>2015-09-22T13:18:37Z</time>
      </trkpt>
      <trkpt lat="45.30849" lon="0.4373">
        <ele>168</ele>
        <time>2015-09-22T13:18:41Z</time>
      </trkpt>
      <trkpt lat="45.30853" lon="0.43732">
        <ele>168</ele>
        <time>2015-09-22T13:18:45Z</time>
      </trkpt>
      <trkpt lat="45.30857" lon="0.43734">
        <ele>169</ele>
        <time>2015-09-22T13:18:49Z</time>
      </trkpt>
      <trkpt lat="45.30861" lon="0.43737">
        <ele>168</ele>
        <time>2015-09-22T13:18:53Z</time>
      </trkpt>
      <trkpt lat="45.30865" lon="0.43739">
        <ele>168</ele>
        <time>2015-09-22T13:18:57Z</time>
      </trkpt>
      <trkpt lat="45.3087" lon="0.4374">
        <ele>169</ele>
        <time>2015-09-22T13:19:02Z</time>
      </trkpt>
      <trkpt lat="45.30876" lon="0.43745">
        <ele>171</ele>
        <time>2015-09-22T13:19:07Z</time>
      </trkpt>
      <trkpt lat="45.30878" lon="0.43748">
        <ele>171</ele>
        <time>2015-09-22T13:19:11Z</time>
      </trkpt>
      <trkpt lat="45.30883" lon="0.43753">
        <ele>171</ele>
        <time>2015-09-22T13:19:16Z</time>
      </trkpt>
      <trkpt lat="45.30888" lon="0.43755">
        <ele>171</ele>
        <time>2015-09-22T13:19:21Z</time>
      </trkpt>
      <trkpt lat="45.30892" lon="0.43758">
        <ele>172</ele>
        <time>2015-09-22T13:19:25Z</time>
      </trkpt>
      <trkpt lat="45.30897" lon="0.43762">
        <ele>171</ele>
        <time>2015-09-22T13:19:30Z</time>
      </trkpt>
      <trkpt lat="45.30901" lon="0.43765">
        <ele>170</ele>
        <time>2015-09-22T13:19:35Z</time>
      </trkpt>
      <trkpt lat="45.30906" lon="0.43768">
        <ele>171</ele>
        <time>2015-09-22T13:19:40Z</time>
      </trkpt>
      <trkpt lat="45.30908" lon="0.43774">
        <ele>172</ele>
        <time>2015-09-22T13:19:44Z</time>
      </trkpt>
      <trkpt lat="45.30911" lon="0.4378">
        <ele>173</ele>
        <time>2015-09-22T13:19:48Z</time>
      </trkpt>
      <trkpt lat="45.30914" lon="0.43783">
        <ele>174</ele>
        <time>2015-09-22T13:19:52Z</time>
      </trkpt>
      <trkpt lat="45.30917" lon="0.43788">
        <ele>174</ele>
        <time>2015-09-22T13:19:57Z</time>
      </trkpt>
      <trkpt lat="45.3092" lon="0.43793">
        <ele>174</ele>
        <time>2015-09-22T13:20:02Z</time>
      </trkpt>
      <trkpt lat="45.30924" lon="0.43797">
        <ele>174</ele>
        <time>2015-09-22T13:20:06Z</time>
      </trkpt>
      <trkpt lat="45.30927" lon="0.43801">
        <ele>175</ele>
        <time>2015-09-22T13:20:10Z</time>
      </trkpt>
      <trkpt lat="45.30931" lon="0.43805">
        <ele>176</ele>
        <time>2015-09-22T13:20:15Z</time>
      </trkpt>
      <trkpt lat="45.30935" lon="0.43807">
        <ele>177</ele>
        <time>2015-09-22T13:20:19Z</time>
      </trkpt>
      <trkpt lat="45.30939" lon="0.43809">
        <ele>177</ele>
        <time>2015-09-22T13:20:23Z</time>
      </trkpt>
      <trkpt lat="45.30945" lon="0.43811">
        <ele>177</ele>
        <time>2015-09-22T13:20:28Z</time>
      </trkpt>
      <trkpt lat="45.30949" lon="0.43815">
        <ele>177</ele>
        <time>2015-09-22T13:20:33Z</time>
      </trkpt>
      <trkpt lat="45.30952" lon="0.43816">
        <ele>179</ele>
        <time>2015-09-22T13:20:37Z</time>
      </trkpt>
      <trkpt lat="45.30956" lon="0.43819">
        <ele>180</ele>
        <time>2015-09-22T13:20:41Z</time>
      </trkpt>
      <trkpt lat="45.30959" lon="0.43821">
        <ele>180</ele>
        <time>2015-09-22T13:20:45Z</time>
      </trkpt>
      <trkpt lat="45.30965" lon="0.43823">
        <ele>182</ele>
        <time>2015-09-22T13:20:50Z</time>
      </trkpt>
      <trkpt lat="45.30968" lon="0.43825">
        <ele>182</ele>
        <time>2015-09-22T13:20:54Z</time>
      </trkpt>
      <trkpt lat="45.30974" lon="0.43828">
        <ele>180</ele>
        <time>2015-09-22T13:20:59Z</time>
      </trkpt>
      <trkpt lat="45.30977" lon="0.4383">
        <ele>181</ele>
        <time>2015-09-22T13:21:03Z</time>
      </trkpt>
      <trkpt lat="45.30982" lon="0.43832">
        <ele>183</ele>
        <time>2015-09-22T13:21:08Z</time>
      </trkpt>
      <trkpt lat="45.30985" lon="0.43834">
        <ele>183</ele>
        <time>2015-09-22T13:21:13Z</time>
      </trkpt>
      <trkpt lat="45.30989" lon="0.43836">
        <ele>181</ele>
        <time>2015-09-22T13:21:17Z</time>
      </trkpt>
      <trkpt lat="45.30995" lon="0.43838">
        <ele>181</ele>
        <time>2015-09-22T13:21:22Z</time>
      </trkpt>
      <trkpt lat="45.31" lon="0.43839">
        <ele>180</ele>
        <time>2015-09-22T13:21:26Z</time>
      </trkpt>
      <trkpt lat="45.31005" lon="0.43842">
        <ele>182</ele>
        <time>2015-09-22T13:21:31Z</time>
      </trkpt>
      <trkpt lat="45.31008" lon="0.43843">
        <ele>179</ele>
        <time>2015-09-22T13:22:07Z</time>
      </trkpt>
      <trkpt lat="45.31012" lon="0.43847">
        <ele>179</ele>
        <time>2015-09-22T13:22:11Z</time>
      </trkpt>
      <trkpt lat="45.31017" lon="0.43849">
        <ele>179</ele>
        <time>2015-09-22T13:22:16Z</time>
      </trkpt>
      <trkpt lat="45.31021" lon="0.43851">
        <ele>180</ele>
        <time>2015-09-22T13:22:21Z</time>
      </trkpt>
      <trkpt lat="45.31023" lon="0.43857">
        <ele>179</ele>
        <time>2015-09-22T13:22:25Z</time>
      </trkpt>
      <trkpt lat="45.31029" lon="0.4386">
        <ele>180</ele>
        <time>2015-09-22T13:22:29Z</time>
      </trkpt>
      <trkpt lat="45.31033" lon="0.43865">
        <ele>182</ele>
        <time>2015-09-22T13:22:33Z</time>
      </trkpt>
      <trkpt lat="45.31038" lon="0.43869">
        <ele>183</ele>
        <time>2015-09-22T13:22:37Z</time>
      </trkpt>
      <trkpt lat="45.31043" lon="0.43873">
        <ele>185</ele>
        <time>2015-09-22T13:22:41Z</time>
      </trkpt>
      <trkpt lat="45.31048" lon="0.43875">
        <ele>186</ele>
        <time>2015-09-22T13:22:46Z</time>
      </trkpt>
      <trkpt lat="45.31051" lon="0.43879">
        <ele>186</ele>
        <time>2015-09-22T13:22:50Z</time>
      </trkpt>
      <trkpt lat="45.31056" lon="0.43882">
        <ele>186</ele>
        <time>2015-09-22T13:22:54Z</time>
      </trkpt>
      <trkpt lat="45.3106" lon="0.43886">
        <ele>186</ele>
        <time>2015-09-22T13:22:59Z</time>
      </trkpt>
      <trkpt lat="45.31062" lon="0.43891">
        <ele>186</ele>
        <time>2015-09-22T13:23:03Z</time>
      </trkpt>
      <trkpt lat="45.31065" lon="0.43898">
        <ele>187</ele>
        <time>2015-09-22T13:23:08Z</time>
      </trkpt>
      <trkpt lat="45.31067" lon="0.43903">
        <ele>187</ele>
        <time>2015-09-22T13:23:12Z</time>
      </trkpt>
      <trkpt lat="45.31069" lon="0.43909">
        <ele>187</ele>
        <time>2015-09-22T13:23:16Z</time>
      </trkpt>
      <trkpt lat="45.3107" lon="0.43917">
        <ele>188</ele>
        <time>2015-09-22T13:23:20Z</time>
      </trkpt>
      <trkpt lat="45.31073" lon="0.43921">
        <ele>190</ele>
        <time>2015-09-22T13:23:24Z</time>
      </trkpt>
      <trkpt lat="45.31075" lon="0.43927">
        <ele>190</ele>
        <time>2015-09-22T13:23:28Z</time>
      </trkpt>
      <trkpt lat="45.31079" lon="0.43935">
        <ele>189</ele>
        <time>2015-09-22T13:23:33Z</time>
      </trkpt>
      <trkpt lat="45.31081" lon="0.43942">
        <ele>189</ele>
        <time>2015-09-22T13:23:37Z</time>
      </trkpt>
      <trkpt lat="45.31085" lon="0.43948">
        <ele>188</ele>
        <time>2015-09-22T13:23:41Z</time>
      </trkpt>
      <trkpt lat="45.31087" lon="0.43954">
        <ele>188</ele>
        <time>2015-09-22T13:23:45Z</time>
      </trkpt>
      <trkpt lat="45.3109" lon="0.4396">
        <ele>187</ele>
        <time>2015-09-22T13:23:49Z</time>
      </trkpt>
      <trkpt lat="45.31093" lon="0.43966">
        <ele>187</ele>
        <time>2015-09-22T13:23:53Z</time>
      </trkpt>
      <trkpt lat="45.31096" lon="0.4397">
        <ele>187</ele>
        <time>2015-09-22T13:23:57Z</time>
      </trkpt>
      <trkpt lat="45.31099" lon="0.43975">
        <ele>186</ele>
        <time>2015-09-22T13:24:01Z</time>
      </trkpt>
      <trkpt lat="45.31104" lon="0.43981">
        <ele>187</ele>
        <time>2015-09-22T13:24:06Z</time>
      </trkpt>
      <trkpt lat="45.31109" lon="0.43987">
        <ele>186</ele>
        <time>2015-09-22T13:24:11Z</time>
      </trkpt>
      <trkpt lat="45.31111" lon="0.43993">
        <ele>187</ele>
        <time>2015-09-22T13:24:15Z</time>
      </trkpt>
      <trkpt lat="45.31114" lon="0.43998">
        <ele>188</ele>
        <time>2015-09-22T13:24:19Z</time>
      </trkpt>
      <trkpt lat="45.31117" lon="0.44004">
        <ele>189</ele>
        <time>2015-09-22T13:24:24Z</time>
      </trkpt>
      <trkpt lat="45.31119" lon="0.44009">
        <ele>188</ele>
        <time>2015-09-22T13:24:28Z</time>
      </trkpt>
      <trkpt lat="45.31123" lon="0.44015">
        <ele>187</ele>
        <time>2015-09-22T13:24:33Z</time>
      </trkpt>
      <trkpt lat="45.31126" lon="0.44022">
        <ele>188</ele>
        <time>2015-09-22T13:24:38Z</time>
      </trkpt>
      <trkpt lat="45.31129" lon="0.44026">
        <ele>189</ele>
        <time>2015-09-22T13:24:42Z</time>
      </trkpt>
      <trkpt lat="45.31131" lon="0.44032">
        <ele>189</ele>
        <time>2015-09-22T13:24:46Z</time>
      </trkpt>
      <trkpt lat="45.31132" lon="0.44038">
        <ele>190</ele>
        <time>2015-09-22T13:24:50Z</time>
      </trkpt>
      <trkpt lat="45.31133" lon="0.44044">
        <ele>191</ele>
        <time>2015-09-22T13:24:54Z</time>
      </trkpt>
      <trkpt lat="45.31136" lon="0.4405">
        <ele>188</ele>
        <time>2015-09-22T13:24:58Z</time>
      </trkpt>
      <trkpt lat="45.31139" lon="0.44057">
        <ele>188</ele>
        <time>2015-09-22T13:25:03Z</time>
      </trkpt>
      <trkpt lat="45.31142" lon="0.44063">
        <ele>188</ele>
        <time>2015-09-22T13:25:07Z</time>
      </trkpt>
      <trkpt lat="45.31144" lon="0.44071">
        <ele>188</ele>
        <time>2015-09-22T13:25:12Z</time>
      </trkpt>
      <trkpt lat="45.31144" lon="0.44077">
        <ele>189</ele>
        <time>2015-09-22T13:25:19Z</time>
      </trkpt>
      <trkpt lat="45.3114" lon="0.44078">
        <ele>187</ele>
        <time>2015-09-22T13:25:25Z</time>
      </trkpt>
      <trkpt lat="45.31135" lon="0.44077">
        <ele>188</ele>
        <time>2015-09-22T13:25:31Z</time>
      </trkpt>
      <trkpt lat="45.31131" lon="0.44078">
        <ele>184</ele>
        <time>2015-09-22T13:26:30Z</time>
      </trkpt>
      <trkpt lat="45.31126" lon="0.44078">
        <ele>183</ele>
        <time>2015-09-22T13:26:35Z</time>
      </trkpt>
      <trkpt lat="45.31122" lon="0.44077">
        <ele>184</ele>
        <time>2015-09-22T13:26:39Z</time>
      </trkpt>
      <trkpt lat="45.31116" lon="0.44077">
        <ele>184</ele>
        <time>2015-09-22T13:26:43Z</time>
      </trkpt>
      <trkpt lat="45.31112" lon="0.44078">
        <ele>184</ele>
        <time>2015-09-22T13:26:48Z</time>
      </trkpt>
      <trkpt lat="45.31109" lon="0.44078">
        <ele>183</ele>
        <time>2015-09-22T13:26:53Z</time>
      </trkpt>
      <trkpt lat="45.31101" lon="0.44078">
        <ele>181</ele>
        <time>2015-09-22T13:26:58Z</time>
      </trkpt>
      <trkpt lat="45.31096" lon="0.44078">
        <ele>183</ele>
        <time>2015-09-22T13:27:02Z</time>
      </trkpt>
      <trkpt lat="45.31091" lon="0.44078">
        <ele>182</ele>
        <time>2015-09-22T13:27:07Z</time>
      </trkpt>
      <trkpt lat="45.31087" lon="0.44078">
        <ele>183</ele>
        <time>2015-09-22T13:27:12Z</time>
      </trkpt>
      <trkpt lat="45.3108" lon="0.44079">
        <ele>183</ele>
        <time>2015-09-22T13:27:16Z</time>
      </trkpt>
      <trkpt lat="45.31075" lon="0.44079">
        <ele>182</ele>
        <time>2015-09-22T13:27:23Z</time>
      </trkpt>
      <trkpt lat="45.3107" lon="0.44082">
        <ele>180</ele>
        <time>2015-09-22T13:27:27Z</time>
      </trkpt>
      <trkpt lat="45.3106" lon="0.44083">
        <ele>181</ele>
        <time>2015-09-22T13:27:32Z</time>
      </trkpt>
      <trkpt lat="45.31056" lon="0.44084">
        <ele>180</ele>
        <time>2015-09-22T13:27:36Z</time>
      </trkpt>
      <trkpt lat="45.31047" lon="0.44086">
        <ele>178</ele>
        <time>2015-09-22T13:27:41Z</time>
      </trkpt>
      <trkpt lat="45.31039" lon="0.44088">
        <ele>181</ele>
        <time>2015-09-22T13:27:45Z</time>
      </trkpt>
      <trkpt lat="45.31033" lon="0.4409">
        <ele>182</ele>
        <time>2015-09-22T13:27:49Z</time>
      </trkpt>
      <trkpt lat="45.31026" lon="0.44091">
        <ele>181</ele>
        <time>2015-09-22T13:27:53Z</time>
      </trkpt>
      <trkpt lat="45.31021" lon="0.44092">
        <ele>180</ele>
        <time>2015-09-22T13:27:57Z</time>
      </trkpt>
      <trkpt lat="45.31015" lon="0.44095">
        <ele>180</ele>
        <time>2015-09-22T13:28:02Z</time>
      </trkpt>
      <trkpt lat="45.31011" lon="0.44095">
        <ele>180</ele>
        <time>2015-09-22T13:28:07Z</time>
      </trkpt>
      <trkpt lat="45.31007" lon="0.44097">
        <ele>180</ele>
        <time>2015-09-22T13:28:11Z</time>
      </trkpt>
      <trkpt lat="45.31002" lon="0.44098">
        <ele>180</ele>
        <time>2015-09-22T13:28:15Z</time>
      </trkpt>
      <trkpt lat="45.30998" lon="0.44098">
        <ele>179</ele>
        <time>2015-09-22T13:28:19Z</time>
      </trkpt>
      <trkpt lat="45.30993" lon="0.441">
        <ele>178</ele>
        <time>2015-09-22T13:28:23Z</time>
      </trkpt>
      <trkpt lat="45.30988" lon="0.44101">
        <ele>178</ele>
        <time>2015-09-22T13:28:27Z</time>
      </trkpt>
      <trkpt lat="45.30984" lon="0.44101">
        <ele>179</ele>
        <time>2015-09-22T13:28:33Z</time>
      </trkpt>
      <trkpt lat="45.30978" lon="0.44105">
        <ele>178</ele>
        <time>2015-09-22T13:28:37Z</time>
      </trkpt>
      <trkpt lat="45.30972" lon="0.44107">
        <ele>178</ele>
        <time>2015-09-22T13:28:42Z</time>
      </trkpt>
      <trkpt lat="45.30966" lon="0.44109">
        <ele>177</ele>
        <time>2015-09-22T13:28:46Z</time>
      </trkpt>
      <trkpt lat="45.30959" lon="0.44112">
        <ele>176</ele>
        <time>2015-09-22T13:28:50Z</time>
      </trkpt>
      <trkpt lat="45.30953" lon="0.44114">
        <ele>179</ele>
        <time>2015-09-22T13:28:54Z</time>
      </trkpt>
      <trkpt lat="45.30944" lon="0.44112">
        <ele>178</ele>
        <time>2015-09-22T13:28:59Z</time>
      </trkpt>
      <trkpt lat="45.30938" lon="0.44115">
        <ele>181</ele>
        <time>2015-09-22T13:29:03Z</time>
      </trkpt>
      <trkpt lat="45.30936" lon="0.44116">
        <ele>182</ele>
        <time>2015-09-22T13:29:10Z</time>
      </trkpt>
      <trkpt lat="45.3093" lon="0.44121">
        <ele>181</ele>
        <time>2015-09-22T13:29:14Z</time>
      </trkpt>
      <trkpt lat="45.30925" lon="0.44134">
        <ele>182</ele>
        <time>2015-09-22T13:29:19Z</time>
      </trkpt>
      <trkpt lat="45.30917" lon="0.44136">
        <ele>182</ele>
        <time>2015-09-22T13:29:23Z</time>
      </trkpt>
      <trkpt lat="45.30912" lon="0.44143">
        <ele>182</ele>
        <time>2015-09-22T13:29:27Z</time>
      </trkpt>
      <trkpt lat="45.30908" lon="0.44145">
        <ele>181</ele>
        <time>2015-09-22T13:29:32Z</time>
      </trkpt>
      <trkpt lat="45.30903" lon="0.44147">
        <ele>180</ele>
        <time>2015-09-22T13:29:36Z</time>
      </trkpt>
      <trkpt lat="45.30896" lon="0.44151">
        <ele>180</ele>
        <time>2015-09-22T13:29:41Z</time>
      </trkpt>
      <trkpt lat="45.30888" lon="0.44156">
        <ele>183</ele>
        <time>2015-09-22T13:29:46Z</time>
      </trkpt>
      <trkpt lat="45.30882" lon="0.44155">
        <ele>184</ele>
        <time>2015-09-22T13:29:50Z</time>
      </trkpt>
      <trkpt lat="45.30876" lon="0.44158">
        <ele>182</ele>
        <time>2015-09-22T13:29:54Z</time>
      </trkpt>
      <trkpt lat="45.30869" lon="0.44162">
        <ele>180</ele>
        <time>2015-09-22T13:29:58Z</time>
      </trkpt>
      <trkpt lat="45.30864" lon="0.44164">
        <ele>178</ele>
        <time>2015-09-22T13:30:02Z</time>
      </trkpt>
      <trkpt lat="45.30861" lon="0.44166">
        <ele>178</ele>
        <time>2015-09-22T13:30:07Z</time>
      </trkpt>
      <trkpt lat="45.30851" lon="0.44168">
        <ele>178</ele>
        <time>2015-09-22T13:30:12Z</time>
      </trkpt>
      <trkpt lat="45.30846" lon="0.44169">
        <ele>178</ele>
        <time>2015-09-22T13:30:16Z</time>
      </trkpt>
      <trkpt lat="45.30842" lon="0.44172">
        <ele>178</ele>
        <time>2015-09-22T13:30:20Z</time>
      </trkpt>
      <trkpt lat="45.30834" lon="0.44173">
        <ele>176</ele>
        <time>2015-09-22T13:30:25Z</time>
      </trkpt>
      <trkpt lat="45.3083" lon="0.44174">
        <ele>177</ele>
        <time>2015-09-22T13:30:34Z</time>
      </trkpt>
      <trkpt lat="45.30825" lon="0.44178">
        <ele>175</ele>
        <time>2015-09-22T13:30:38Z</time>
      </trkpt>
      <trkpt lat="45.3082" lon="0.4418">
        <ele>176</ele>
        <time>2015-09-22T13:30:43Z</time>
      </trkpt>
      <trkpt lat="45.30813" lon="0.44183">
        <ele>175</ele>
        <time>2015-09-22T13:30:48Z</time>
      </trkpt>
      <trkpt lat="45.3081" lon="0.44185">
        <ele>174</ele>
        <time>2015-09-22T13:30:52Z</time>
      </trkpt>
      <trkpt lat="45.30804" lon="0.4419">
        <ele>174</ele>
        <time>2015-09-22T13:30:57Z</time>
      </trkpt>
      <trkpt lat="45.30798" lon="0.44192">
        <ele>176</ele>
        <time>2015-09-22T13:31:01Z</time>
      </trkpt>
      <trkpt lat="45.30792" lon="0.44195">
        <ele>175</ele>
        <time>2015-09-22T13:31:06Z</time>
      </trkpt>
      <trkpt lat="45.30787" lon="0.44195">
        <ele>177</ele>
        <time>2015-09-22T13:31:10Z</time>
      </trkpt>
      <trkpt lat="45.30781" lon="0.44196">
        <ele>178</ele>
        <time>2015-09-22T13:31:15Z</time>
      </trkpt>
      <trkpt lat="45.30776" lon="0.442">
        <ele>179</ele>
        <time>2015-09-22T13:31:19Z</time>
      </trkpt>
      <trkpt lat="45.30774" lon="0.44201">
        <ele>179</ele>
        <time>2015-09-22T13:31:24Z</time>
      </trkpt>
      <trkpt lat="45.30768" lon="0.44204">
        <ele>180</ele>
        <time>2015-09-22T13:31:29Z</time>
      </trkpt>
      <trkpt lat="45.3076" lon="0.44208">
        <ele>179</ele>
        <time>2015-09-22T13:31:33Z</time>
      </trkpt>
      <trkpt lat="45.30757" lon="0.44209">
        <ele>181</ele>
        <time>2015-09-22T13:31:41Z</time>
      </trkpt>
      <trkpt lat="45.30753" lon="0.44212">
        <ele>180</ele>
        <time>2015-09-22T13:31:45Z</time>
      </trkpt>
      <trkpt lat="45.30749" lon="0.44216">
        <ele>179</ele>
        <time>2015-09-22T13:31:54Z</time>
      </trkpt>
      <trkpt lat="45.30742" lon="0.44215">
        <ele>180</ele>
        <time>2015-09-22T13:31:59Z</time>
      </trkpt>
      <trkpt lat="45.30738" lon="0.44215">
        <ele>181</ele>
        <time>2015-09-22T13:32:04Z</time>
      </trkpt>
      <trkpt lat="45.30732" lon="0.44218">
        <ele>182</ele>
        <time>2015-09-22T13:32:08Z</time>
      </trkpt>
      <trkpt lat="45.30726" lon="0.44219">
        <ele>182</ele>
        <time>2015-09-22T13:32:12Z</time>
      </trkpt>
      <trkpt lat="45.3072" lon="0.4422">
        <ele>182</ele>
        <time>2015-09-22T13:32:16Z</time>
      </trkpt>
      <trkpt lat="45.30714" lon="0.44219">
        <ele>183</ele>
        <time>2015-09-22T13:32:20Z</time>
      </trkpt>
      <trkpt lat="45.30708" lon="0.44221">
        <ele>182</ele>
        <time>2015-09-22T13:32:24Z</time>
      </trkpt>
      <trkpt lat="45.30704" lon="0.4422">
        <ele>183</ele>
        <time>2015-09-22T13:32:31Z</time>
      </trkpt>
      <trkpt lat="45.30701" lon="0.4422">
        <ele>184</ele>
        <time>2015-09-22T13:32:39Z</time>
      </trkpt>
      <trkpt lat="45.30691" lon="0.44221">
        <ele>184</ele>
        <time>2015-09-22T13:32:44Z</time>
      </trkpt>
      <trkpt lat="45.30684" lon="0.4422">
        <ele>185</ele>
        <time>2015-09-22T13:32:48Z</time>
      </trkpt>
      <trkpt lat="45.30675" lon="0.44221">
        <ele>185</ele>
        <time>2015-09-22T13:32:53Z</time>
      </trkpt>
      <trkpt lat="45.30669" lon="0.44222">
        <ele>186</ele>
        <time>2015-09-22T13:32:57Z</time>
      </trkpt>
      <trkpt lat="45.30664" lon="0.44222">
        <ele>187</ele>
        <time>2015-09-22T13:33:01Z</time>
      </trkpt>
      <trkpt lat="45.30657" lon="0.44222">
        <ele>187</ele>
        <time>2015-09-22T13:33:06Z</time>
      </trkpt>
      <trkpt lat="45.30652" lon="0.44221">
        <ele>188</ele>
        <time>2015-09-22T13:33:10Z</time>
      </trkpt>
      <trkpt lat="45.30648" lon="0.44219">
        <ele>188</ele>
        <time>2015-09-22T13:33:14Z</time>
      </trkpt>
      <trkpt lat="45.30642" lon="0.4422">
        <ele>187</ele>
        <time>2015-09-22T13:33:18Z</time>
      </trkpt>
      <trkpt lat="45.30637" lon="0.44219">
        <ele>187</ele>
        <time>2015-09-22T13:33:23Z</time>
      </trkpt>
      <trkpt lat="45.30632" lon="0.44218">
        <ele>189</ele>
        <time>2015-09-22T13:33:32Z</time>
      </trkpt>
      <trkpt lat="45.3063" lon="0.44217">
        <ele>189</ele>
        <time>2015-09-22T13:33:37Z</time>
      </trkpt>
      <trkpt lat="45.30622" lon="0.44217">
        <ele>188</ele>
        <time>2015-09-22T13:33:41Z</time>
      </trkpt>
      <trkpt lat="45.30618" lon="0.44216">
        <ele>186</ele>
        <time>2015-09-22T13:33:46Z</time>
      </trkpt>
      <trkpt lat="45.30607" lon="0.44217">
        <ele>186</ele>
        <time>2015-09-22T13:33:51Z</time>
      </trkpt>
      <trkpt lat="45.30598" lon="0.44219">
        <ele>185</ele>
        <time>2015-09-22T13:33:56Z</time>
      </trkpt>
      <trkpt lat="45.30591" lon="0.44221">
        <ele>186</ele>
        <time>2015-09-22T13:34:00Z</time>
      </trkpt>
      <trkpt lat="45.30587" lon="0.44221">
        <ele>189</ele>
        <time>2015-09-22T13:34:08Z</time>
      </trkpt>
      <trkpt lat="45.30583" lon="0.44221">
        <ele>191</ele>
        <time>2015-09-22T13:34:14Z</time>
      </trkpt>
      <trkpt lat="45.30572" lon="0.44225">
        <ele>194</ele>
        <time>2015-09-22T13:34:19Z</time>
      </trkpt>
      <trkpt lat="45.30568" lon="0.44228">
        <ele>194</ele>
        <time>2015-09-22T13:34:24Z</time>
      </trkpt>
      <trkpt lat="45.30565" lon="0.44232">
        <ele>193</ele>
        <time>2015-09-22T13:34:28Z</time>
      </trkpt>
      <trkpt lat="45.30561" lon="0.44234">
        <ele>192</ele>
        <time>2015-09-22T13:34:33Z</time>
      </trkpt>
      <trkpt lat="45.3056" lon="0.4424">
        <ele>193</ele>
        <time>2015-09-22T13:34:38Z</time>
      </trkpt>
      <trkpt lat="45.30555" lon="0.44246">
        <ele>195</ele>
        <time>2015-09-22T13:34:43Z</time>
      </trkpt>
      <trkpt lat="45.30552" lon="0.4425">
        <ele>198</ele>
        <time>2015-09-22T13:34:48Z</time>
      </trkpt>
      <trkpt lat="45.30549" lon="0.44257">
        <ele>201</ele>
        <time>2015-09-22T13:34:53Z</time>
      </trkpt>
      <trkpt lat="45.30545" lon="0.44261">
        <ele>199</ele>
        <time>2015-09-22T13:34:57Z</time>
      </trkpt>
      <trkpt lat="45.30543" lon="0.44265">
        <ele>200</ele>
        <time>2015-09-22T13:35:01Z</time>
      </trkpt>
      <trkpt lat="45.30539" lon="0.44269">
        <ele>197</ele>
        <time>2015-09-22T13:35:05Z</time>
      </trkpt>
      <trkpt lat="45.30536" lon="0.44279">
        <ele>195</ele>
        <time>2015-09-22T13:35:10Z</time>
      </trkpt>
      <trkpt lat="45.30534" lon="0.44287">
        <ele>195</ele>
        <time>2015-09-22T13:35:14Z</time>
      </trkpt>
      <trkpt lat="45.30532" lon="0.44294">
        <ele>194</ele>
        <time>2015-09-22T13:35:19Z</time>
      </trkpt>
      <trkpt lat="45.30528" lon="0.44295">
        <ele>193</ele>
        <time>2015-09-22T13:35:26Z</time>
      </trkpt>
      <trkpt lat="45.30521" lon="0.44301">
        <ele>195</ele>
        <time>2015-09-22T13:35:30Z</time>
      </trkpt>
      <trkpt lat="45.30518" lon="0.44304">
        <ele>195</ele>
        <time>2015-09-22T13:35:34Z</time>
      </trkpt>
      <trkpt lat="45.30514" lon="0.44309">
        <ele>194</ele>
        <time>2015-09-22T13:35:38Z</time>
      </trkpt>
      <trkpt lat="45.3051" lon="0.44309">
        <ele>194</ele>
        <time>2015-09-22T13:35:43Z</time>
      </trkpt>
      <trkpt lat="45.30505" lon="0.44311">
        <ele>195</ele>
        <time>2015-09-22T13:35:47Z</time>
      </trkpt>
      <trkpt lat="45.30501" lon="0.44312">
        <ele>196</ele>
        <time>2015-09-22T13:35:51Z</time>
      </trkpt>
      <trkpt lat="45.305" lon="0.44306">
        <ele>195</ele>
        <time>2015-09-22T13:36:01Z</time>
      </trkpt>
      <trkpt lat="45.30493" lon="0.44304">
        <ele>198</ele>
        <time>2015-09-22T13:36:06Z</time>
      </trkpt>
      <trkpt lat="45.3049" lon="0.44301">
        <ele>202</ele>
        <time>2015-09-22T13:36:11Z</time>
      </trkpt>
      <trkpt lat="45.30483" lon="0.44299">
        <ele>203</ele>
        <time>2015-09-22T13:36:16Z</time>
      </trkpt>
      <trkpt lat="45.30479" lon="0.44298">
        <ele>205</ele>
        <time>2015-09-22T13:36:22Z</time>
      </trkpt>
      <trkpt lat="45.30477" lon="0.44304">
        <ele>204</ele>
        <time>2015-09-22T13:36:42Z</time>
      </trkpt>
      <trkpt lat="45.30475" lon="0.44308">
        <ele>203</ele>
        <time>2015-09-22T13:36:53Z</time>
      </trkpt>
      <trkpt lat="45.30471" lon="0.44305">
        <ele>202</ele>
        <time>2015-09-22T13:39:14Z</time>
      </trkpt>
      <trkpt lat="45.30467" lon="0.44303">
        <ele>199</ele>
        <time>2015-09-22T13:39:37Z</time>
      </trkpt>
      <trkpt lat="45.30463" lon="0.44302">
        <ele>197</ele>
        <time>2015-09-22T13:39:59Z</time>
      </trkpt>
      <trkpt lat="45.30459" lon="0.44302">
        <ele>197</ele>
        <time>2015-09-22T13:40:12Z</time>
      </trkpt>
      <trkpt lat="45.30456" lon="0.44298">
        <ele>202</ele>
        <time>2015-09-22T13:40:16Z</time>
      </trkpt>
      <trkpt lat="45.30455" lon="0.44293">
        <ele>203</ele>
        <time>2015-09-22T13:40:21Z</time>
      </trkpt>
      <trkpt lat="45.30454" lon="0.44287">
        <ele>200</ele>
        <time>2015-09-22T13:40:41Z</time>
      </trkpt>
      <trkpt lat="45.30451" lon="0.44291">
        <ele>197</ele>
        <time>2015-09-22T13:40:57Z</time>
      </trkpt>
      <trkpt lat="45.30453" lon="0.44295">
        <ele>198</ele>
        <time>2015-09-22T13:41:34Z</time>
      </trkpt>
      <trkpt lat="45.30452" lon="0.44301">
        <ele>196</ele>
        <time>2015-09-22T13:42:02Z</time>
      </trkpt>
      <trkpt lat="45.3045" lon="0.44305">
        <ele>199</ele>
        <time>2015-09-22T13:42:10Z</time>
      </trkpt>
      <trkpt lat="45.30453" lon="0.4431">
        <ele>193</ele>
        <time>2015-09-22T13:42:19Z</time>
      </trkpt>
      <trkpt lat="45.30454" lon="0.44316">
        <ele>191</ele>
        <time>2015-09-22T13:42:39Z</time>
      </trkpt>
      <trkpt lat="45.30451" lon="0.44315">
        <ele>187</ele>
        <time>2015-09-22T13:43:06Z</time>
      </trkpt>
      <trkpt lat="45.30437" lon="0.4431">
        <ele>192</ele>
        <time>2015-09-22T13:43:11Z</time>
      </trkpt>
      <trkpt lat="45.30427" lon="0.44307">
        <ele>191</ele>
        <time>2015-09-22T13:43:15Z</time>
      </trkpt>
      <trkpt lat="45.30424" lon="0.44308">
        <ele>192</ele>
        <time>2015-09-22T13:43:26Z</time>
      </trkpt>
      <trkpt lat="45.30418" lon="0.44312">
        <ele>194</ele>
        <time>2015-09-22T13:43:30Z</time>
      </trkpt>
      <trkpt lat="45.30409" lon="0.44313">
        <ele>195</ele>
        <time>2015-09-22T13:43:35Z</time>
      </trkpt>
      <trkpt lat="45.30408" lon="0.44316">
        <ele>197</ele>
        <time>2015-09-22T13:43:39Z</time>
      </trkpt>
      <trkpt lat="45.30399" lon="0.44318">
        <ele>195</ele>
        <time>2015-09-22T13:43:43Z</time>
      </trkpt>
      <trkpt lat="45.30395" lon="0.44319">
        <ele>196</ele>
        <time>2015-09-22T13:43:59Z</time>
      </trkpt>
      <trkpt lat="45.30391" lon="0.44318">
        <ele>196</ele>
        <time>2015-09-22T13:44:05Z</time>
      </trkpt>
      <trkpt lat="45.30384" lon="0.44314">
        <ele>198</ele>
        <time>2015-09-22T13:44:09Z</time>
      </trkpt>
      <trkpt lat="45.30374" lon="0.44313">
        <ele>198</ele>
        <time>2015-09-22T13:44:13Z</time>
      </trkpt>
      <trkpt lat="45.30371" lon="0.4431">
        <ele>196</ele>
        <time>2015-09-22T13:44:19Z</time>
      </trkpt>
      <trkpt lat="45.30369" lon="0.44305">
        <ele>197</ele>
        <time>2015-09-22T13:44:23Z</time>
      </trkpt>
      <trkpt lat="45.30365" lon="0.44302">
        <ele>198</ele>
        <time>2015-09-22T13:44:28Z</time>
      </trkpt>
      <trkpt lat="45.30362" lon="0.443">
        <ele>198</ele>
        <time>2015-09-22T13:44:32Z</time>
      </trkpt>
      <trkpt lat="45.30355" lon="0.44298">
        <ele>196</ele>
        <time>2015-09-22T13:44:36Z</time>
      </trkpt>
      <trkpt lat="45.30351" lon="0.44295">
        <ele>196</ele>
        <time>2015-09-22T13:44:41Z</time>
      </trkpt>
      <trkpt lat="45.30348" lon="0.44293">
        <ele>196</ele>
        <time>2015-09-22T13:44:49Z</time>
      </trkpt>
      <trkpt lat="45.30342" lon="0.44292">
        <ele>194</ele>
        <time>2015-09-22T13:44:53Z</time>
      </trkpt>
      <trkpt lat="45.30338" lon="0.44289">
        <ele>192</ele>
        <time>2015-09-22T13:45:01Z</time>
      </trkpt>
      <trkpt lat="45.30334" lon="0.44287">
        <ele>192</ele>
        <time>2015-09-22T13:45:07Z</time>
      </trkpt>
      <trkpt lat="45.30326" lon="0.44285">
        <ele>190</ele>
        <time>2015-09-22T13:45:11Z</time>
      </trkpt>
      <trkpt lat="45.30315" lon="0.44282">
        <ele>190</ele>
        <time>2015-09-22T13:45:16Z</time>
      </trkpt>
      <trkpt lat="45.30307" lon="0.44279">
        <ele>187</ele>
        <time>2015-09-22T13:45:20Z</time>
      </trkpt>
      <trkpt lat="45.30303" lon="0.44278">
        <ele>188</ele>
        <time>2015-09-22T13:45:25Z</time>
      </trkpt>
      <trkpt lat="45.30299" lon="0.44275">
        <ele>189</ele>
        <time>2015-09-22T13:45:37Z</time>
      </trkpt>
      <trkpt lat="45.3029" lon="0.4427">
        <ele>189</ele>
        <time>2015-09-22T13:45:42Z</time>
      </trkpt>
      <trkpt lat="45.30283" lon="0.4427">
        <ele>188</ele>
        <time>2015-09-22T13:45:47Z</time>
      </trkpt>
      <trkpt lat="45.30278" lon="0.44268">
        <ele>190</ele>
        <time>2015-09-22T13:45:51Z</time>
      </trkpt>
      <trkpt lat="45.30272" lon="0.44266">
        <ele>191</ele>
        <time>2015-09-22T13:45:55Z</time>
      </trkpt>
      <trkpt lat="45.30267" lon="0.44264">
        <ele>190</ele>
        <time>2015-09-22T13:46:00Z</time>
      </trkpt>
      <trkpt lat="45.30264" lon="0.44263">
        <ele>191</ele>
        <time>2015-09-22T13:46:06Z</time>
      </trkpt>
      <trkpt lat="45.3026" lon="0.44262">
        <ele>190</ele>
        <time>2015-09-22T13:46:10Z</time>
      </trkpt>
      <trkpt lat="45.30255" lon="0.44261">
        <ele>188</ele>
        <time>2015-09-22T13:46:17Z</time>
      </trkpt>
      <trkpt lat="45.30248" lon="0.44258">
        <ele>187</ele>
        <time>2015-09-22T13:46:22Z</time>
      </trkpt>
      <trkpt lat="45.30244" lon="0.44257">
        <ele>186</ele>
        <time>2015-09-22T13:46:30Z</time>
      </trkpt>
      <trkpt lat="45.30237" lon="0.44256">
        <ele>184</ele>
        <time>2015-09-22T13:46:35Z</time>
      </trkpt>
      <trkpt lat="45.30233" lon="0.44256">
        <ele>183</ele>
        <time>2015-09-22T13:46:43Z</time>
      </trkpt>
      <trkpt lat="45.30229" lon="0.44253">
        <ele>185</ele>
        <time>2015-09-22T13:46:57Z</time>
      </trkpt>
      <trkpt lat="45.30221" lon="0.44252">
        <ele>183</ele>
        <time>2015-09-22T13:47:01Z</time>
      </trkpt>
      <trkpt lat="45.30216" lon="0.4425">
        <ele>184</ele>
        <time>2015-09-22T13:47:06Z</time>
      </trkpt>
      <trkpt lat="45.30213" lon="0.44247">
        <ele>185</ele>
        <time>2015-09-22T13:47:13Z</time>
      </trkpt>
      <trkpt lat="45.30209" lon="0.44245">
        <ele>186</ele>
        <time>2015-09-22T13:47:20Z</time>
      </trkpt>
      <trkpt lat="45.30203" lon="0.44239">
        <ele>185</ele>
        <time>2015-09-22T13:47:25Z</time>
      </trkpt>
      <trkpt lat="45.302" lon="0.44235">
        <ele>186</ele>
        <time>2015-09-22T13:47:29Z</time>
      </trkpt>
      <trkpt lat="45.30195" lon="0.4423">
        <ele>183</ele>
        <time>2015-09-22T13:47:33Z</time>
      </trkpt>
      <trkpt lat="45.30191" lon="0.44226">
        <ele>181</ele>
        <time>2015-09-22T13:47:38Z</time>
      </trkpt>
      <trkpt lat="45.30186" lon="0.44223">
        <ele>182</ele>
        <time>2015-09-22T13:47:48Z</time>
      </trkpt>
      <trkpt lat="45.30178" lon="0.44219">
        <ele>184</ele>
        <time>2015-09-22T13:47:53Z</time>
      </trkpt>
      <trkpt lat="45.30174" lon="0.44216">
        <ele>185</ele>
        <time>2015-09-22T13:48:00Z</time>
      </trkpt>
      <trkpt lat="45.30167" lon="0.44209">
        <ele>184</ele>
        <time>2015-09-22T13:48:05Z</time>
      </trkpt>
      <trkpt lat="45.30164" lon="0.44206">
        <ele>187</ele>
        <time>2015-09-22T13:48:13Z</time>
      </trkpt>
      <trkpt lat="45.3016" lon="0.44201">
        <ele>184</ele>
        <time>2015-09-22T13:48:18Z</time>
      </trkpt>
      <trkpt lat="45.30155" lon="0.442">
        <ele>182</ele>
        <time>2015-09-22T13:48:23Z</time>
      </trkpt>
      <trkpt lat="45.30151" lon="0.44196">
        <ele>185</ele>
        <time>2015-09-22T13:48:28Z</time>
      </trkpt>
      <trkpt lat="45.30145" lon="0.44193">
        <ele>186</ele>
        <time>2015-09-22T13:48:32Z</time>
      </trkpt>
      <trkpt lat="45.30141" lon="0.4419">
        <ele>189</ele>
        <time>2015-09-22T13:48:37Z</time>
      </trkpt>
      <trkpt lat="45.30137" lon="0.44186">
        <ele>190</ele>
        <time>2015-09-22T13:48:41Z</time>
      </trkpt>
      <trkpt lat="45.30134" lon="0.44181">
        <ele>189</ele>
        <time>2015-09-22T13:48:47Z</time>
      </trkpt>
      <trkpt lat="45.3013" lon="0.44177">
        <ele>189</ele>
        <time>2015-09-22T13:48:52Z</time>
      </trkpt>
      <trkpt lat="45.30126" lon="0.44173">
        <ele>188</ele>
        <time>2015-09-22T13:48:56Z</time>
      </trkpt>
      <trkpt lat="45.30121" lon="0.4417">
        <ele>189</ele>
        <time>2015-09-22T13:49:01Z</time>
      </trkpt>
      <trkpt lat="45.30114" lon="0.44168">
        <ele>190</ele>
        <time>2015-09-22T13:49:06Z</time>
      </trkpt>
      <trkpt lat="45.3011" lon="0.44164">
        <ele>191</ele>
        <time>2015-09-22T13:49:11Z</time>
      </trkpt>
      <trkpt lat="45.30107" lon="0.44159">
        <ele>188</ele>
        <time>2015-09-22T13:49:15Z</time>
      </trkpt>
      <trkpt lat="45.30103" lon="0.44156">
        <ele>188</ele>
        <time>2015-09-22T13:49:20Z</time>
      </trkpt>
      <trkpt lat="45.30099" lon="0.44152">
        <ele>189</ele>
        <time>2015-09-22T13:49:24Z</time>
      </trkpt>
      <trkpt lat="45.30096" lon="0.44147">
        <ele>186</ele>
        <time>2015-09-22T13:49:28Z</time>
      </trkpt>
      <trkpt lat="45.30091" lon="0.44142">
        <ele>184</ele>
        <time>2015-09-22T13:49:32Z</time>
      </trkpt>
      <trkpt lat="45.3009" lon="0.44136">
        <ele>186</ele>
        <time>2015-09-22T13:49:37Z</time>
      </trkpt>
      <trkpt lat="45.30082" lon="0.44137">
        <ele>187</ele>
        <time>2015-09-22T13:49:42Z</time>
      </trkpt>
      <trkpt lat="45.30077" lon="0.44132">
        <ele>189</ele>
        <time>2015-09-22T13:49:47Z</time>
      </trkpt>
      <trkpt lat="45.30072" lon="0.44127">
        <ele>190</ele>
        <time>2015-09-22T13:49:51Z</time>
      </trkpt>
      <trkpt lat="45.30069" lon="0.44122">
        <ele>192</ele>
        <time>2015-09-22T13:49:56Z</time>
      </trkpt>
      <trkpt lat="45.30062" lon="0.4412">
        <ele>193</ele>
        <time>2015-09-22T13:50:00Z</time>
      </trkpt>
      <trkpt lat="45.30055" lon="0.44119">
        <ele>193</ele>
        <time>2015-09-22T13:50:04Z</time>
      </trkpt>
      <trkpt lat="45.30048" lon="0.44116">
        <ele>192</ele>
        <time>2015-09-22T13:50:09Z</time>
      </trkpt>
      <trkpt lat="45.30045" lon="0.44111">
        <ele>191</ele>
        <time>2015-09-22T13:50:14Z</time>
      </trkpt>
      <trkpt lat="45.3004" lon="0.44107">
        <ele>192</ele>
        <time>2015-09-22T13:50:19Z</time>
      </trkpt>
      <trkpt lat="45.30036" lon="0.44104">
        <ele>190</ele>
        <time>2015-09-22T13:50:22Z</time>
      </trkpt>
      <trkpt lat="45.30033" lon="0.44098">
        <ele>192</ele>
        <time>2015-09-22T13:50:27Z</time>
      </trkpt>
      <trkpt lat="45.3003" lon="0.44094">
        <ele>192</ele>
        <time>2015-09-22T13:50:33Z</time>
      </trkpt>
      <trkpt lat="45.30026" lon="0.4409">
        <ele>191</ele>
        <time>2015-09-22T13:50:36Z</time>
      </trkpt>
      <trkpt lat="45.30023" lon="0.44087">
        <ele>190</ele>
        <time>2015-09-22T13:50:41Z</time>
      </trkpt>
      <trkpt lat="45.30021" lon="0.44083">
        <ele>191</ele>
        <time>2015-09-22T13:50:45Z</time>
      </trkpt>
      <trkpt lat="45.30017" lon="0.44078">
        <ele>194</ele>
        <time>2015-09-22T13:50:50Z</time>
      </trkpt>
      <trkpt lat="45.30013" lon="0.44076">
        <ele>192</ele>
        <time>2015-09-22T13:50:53Z</time>
      </trkpt>
      <trkpt lat="45.30009" lon="0.44071">
        <ele>194</ele>
        <time>2015-09-22T13:50:57Z</time>
      </trkpt>
      <trkpt lat="45.30007" lon="0.44065">
        <ele>194</ele>
        <time>2015-09-22T13:51:03Z</time>
      </trkpt>
      <trkpt lat="45.30004" lon="0.44057">
        <ele>193</ele>
        <time>2015-09-22T13:51:07Z</time>
      </trkpt>
      <trkpt lat="45.30003" lon="0.44052">
        <ele>191</ele>
        <time>2015-09-22T13:51:11Z</time>
      </trkpt>
      <trkpt lat="45.30001" lon="0.44047">
        <ele>193</ele>
        <time>2015-09-22T13:51:17Z</time>
      </trkpt>
      <trkpt lat="45.3" lon="0.44042">
        <ele>192</ele>
        <time>2015-09-22T13:51:20Z</time>
      </trkpt>
      <trkpt lat="45.29997" lon="0.44037">
        <ele>192</ele>
        <time>2015-09-22T13:51:28Z</time>
      </trkpt>
      <trkpt lat="45.29995" lon="0.44034">
        <ele>193</ele>
        <time>2015-09-22T13:51:32Z</time>
      </trkpt>
      <trkpt lat="45.2999" lon="0.44026">
        <ele>190</ele>
        <time>2015-09-22T13:51:37Z</time>
      </trkpt>
      <trkpt lat="45.29984" lon="0.44017">
        <ele>188</ele>
        <time>2015-09-22T13:51:42Z</time>
      </trkpt>
      <trkpt lat="45.29974" lon="0.44014">
        <ele>183</ele>
        <time>2015-09-22T13:51:46Z</time>
      </trkpt>
      <trkpt lat="45.29969" lon="0.4401">
        <ele>182</ele>
        <time>2015-09-22T13:51:51Z</time>
      </trkpt>
      <trkpt lat="45.29966" lon="0.44006">
        <ele>184</ele>
        <time>2015-09-22T13:51:55Z</time>
      </trkpt>
      <trkpt lat="45.29963" lon="0.44002">
        <ele>186</ele>
        <time>2015-09-22T13:52:03Z</time>
      </trkpt>
      <trkpt lat="45.29956" lon="0.43995">
        <ele>191</ele>
        <time>2015-09-22T13:52:08Z</time>
      </trkpt>
      <trkpt lat="45.29953" lon="0.43991">
        <ele>192</ele>
        <time>2015-09-22T13:52:14Z</time>
      </trkpt>
      <trkpt lat="45.29941" lon="0.43988">
        <ele>188</ele>
        <time>2015-09-22T13:52:19Z</time>
      </trkpt>
      <trkpt lat="45.29937" lon="0.43985">
        <ele>188</ele>
        <time>2015-09-22T13:52:23Z</time>
      </trkpt>
      <trkpt lat="45.29932" lon="0.43983">
        <ele>189</ele>
        <time>2015-09-22T13:52:28Z</time>
      </trkpt>
      <trkpt lat="45.29927" lon="0.4398">
        <ele>188</ele>
        <time>2015-09-22T13:52:33Z</time>
      </trkpt>
      <trkpt lat="45.29925" lon="0.43976">
        <ele>188</ele>
        <time>2015-09-22T13:52:39Z</time>
      </trkpt>
      <trkpt lat="45.29918" lon="0.43971">
        <ele>188</ele>
        <time>2015-09-22T13:52:44Z</time>
      </trkpt>
      <trkpt lat="45.29914" lon="0.4397">
        <ele>189</ele>
        <time>2015-09-22T13:52:49Z</time>
      </trkpt>
      <trkpt lat="45.2991" lon="0.43973">
        <ele>190</ele>
        <time>2015-09-22T13:52:57Z</time>
      </trkpt>
      <trkpt lat="45.29907" lon="0.43972">
        <ele>189</ele>
        <time>2015-09-22T13:53:07Z</time>
      </trkpt>
      <trkpt lat="45.29901" lon="0.43966">
        <ele>189</ele>
        <time>2015-09-22T13:53:12Z</time>
      </trkpt>
      <trkpt lat="45.29897" lon="0.43963">
        <ele>187</ele>
        <time>2015-09-22T13:53:16Z</time>
      </trkpt>
      <trkpt lat="45.29893" lon="0.43959">
        <ele>189</ele>
        <time>2015-09-22T13:53:26Z</time>
      </trkpt>
      <trkpt lat="45.29889" lon="0.43956">
        <ele>192</ele>
        <time>2015-09-22T13:53:31Z</time>
      </trkpt>
      <trkpt lat="45.29883" lon="0.43952">
        <ele>189</ele>
        <time>2015-09-22T13:53:36Z</time>
      </trkpt>
      <trkpt lat="45.29878" lon="0.43948">
        <ele>188</ele>
        <time>2015-09-22T13:53:40Z</time>
      </trkpt>
      <trkpt lat="45.29872" lon="0.43947">
        <ele>186</ele>
        <time>2015-09-22T13:53:44Z</time>
      </trkpt>
      <trkpt lat="45.29869" lon="0.43945">
        <ele>186</ele>
        <time>2015-09-22T13:53:49Z</time>
      </trkpt>
      <trkpt lat="45.29866" lon="0.43943">
        <ele>184</ele>
        <time>2015-09-22T13:53:55Z</time>
      </trkpt>
      <trkpt lat="45.29861" lon="0.43941">
        <ele>184</ele>
        <time>2015-09-22T13:54:00Z</time>
      </trkpt>
      <trkpt lat="45.29859" lon="0.43938">
        <ele>184</ele>
        <time>2015-09-22T13:54:09Z</time>
      </trkpt>
      <trkpt lat="45.29856" lon="0.43936">
        <ele>184</ele>
        <time>2015-09-22T13:54:13Z</time>
      </trkpt>
      <trkpt lat="45.29849" lon="0.43934">
        <ele>181</ele>
        <time>2015-09-22T13:54:18Z</time>
      </trkpt>
      <trkpt lat="45.29843" lon="0.43933">
        <ele>179</ele>
        <time>2015-09-22T13:54:23Z</time>
      </trkpt>
      <trkpt lat="45.29837" lon="0.4393">
        <ele>179</ele>
        <time>2015-09-22T13:54:27Z</time>
      </trkpt>
      <trkpt lat="45.29833" lon="0.43927">
        <ele>180</ele>
        <time>2015-09-22T13:54:31Z</time>
      </trkpt>
      <trkpt lat="45.29826" lon="0.43923">
        <ele>180</ele>
        <time>2015-09-22T13:54:35Z</time>
      </trkpt>
      <trkpt lat="45.29822" lon="0.43923">
        <ele>181</ele>
        <time>2015-09-22T13:54:41Z</time>
      </trkpt>
      <trkpt lat="45.29817" lon="0.43918">
        <ele>182</ele>
        <time>2015-09-22T13:54:45Z</time>
      </trkpt>
      <trkpt lat="45.29813" lon="0.43915">
        <ele>181</ele>
        <time>2015-09-22T13:54:50Z</time>
      </trkpt>
      <trkpt lat="45.29811" lon="0.43913">
        <ele>182</ele>
        <time>2015-09-22T13:55:09Z</time>
      </trkpt>
      <trkpt lat="45.29796" lon="0.43902">
        <ele>181</ele>
        <time>2015-09-22T13:55:14Z</time>
      </trkpt>
      <trkpt lat="45.2979" lon="0.43897">
        <ele>181</ele>
        <time>2015-09-22T13:55:18Z</time>
      </trkpt>
      <trkpt lat="45.29786" lon="0.43895">
        <ele>180</ele>
        <time>2015-09-22T13:55:23Z</time>
      </trkpt>
      <trkpt lat="45.29783" lon="0.43894">
        <ele>181</ele>
        <time>2015-09-22T13:55:28Z</time>
      </trkpt>
      <trkpt lat="45.29778" lon="0.43889">
        <ele>180</ele>
        <time>2015-09-22T13:55:32Z</time>
      </trkpt>
      <trkpt lat="45.29771" lon="0.43886">
        <ele>182</ele>
        <time>2015-09-22T13:55:36Z</time>
      </trkpt>
      <trkpt lat="45.29767" lon="0.43886">
        <ele>181</ele>
        <time>2015-09-22T13:55:45Z</time>
      </trkpt>
      <trkpt lat="45.29759" lon="0.43882">
        <ele>182</ele>
        <time>2015-09-22T13:55:50Z</time>
      </trkpt>
      <trkpt lat="45.29753" lon="0.4388">
        <ele>183</ele>
        <time>2015-09-22T13:55:54Z</time>
      </trkpt>
      <trkpt lat="45.29749" lon="0.43879">
        <ele>183</ele>
        <time>2015-09-22T13:55:58Z</time>
      </trkpt>
      <trkpt lat="45.29743" lon="0.43879">
        <ele>181</ele>
        <time>2015-09-22T13:56:02Z</time>
      </trkpt>
      <trkpt lat="45.29737" lon="0.43873">
        <ele>184</ele>
        <time>2015-09-22T13:56:07Z</time>
      </trkpt>
      <trkpt lat="45.29731" lon="0.43868">
        <ele>185</ele>
        <time>2015-09-22T13:56:11Z</time>
      </trkpt>
      <trkpt lat="45.29728" lon="0.43867">
        <ele>184</ele>
        <time>2015-09-22T13:56:21Z</time>
      </trkpt>
      <trkpt lat="45.29721" lon="0.43863">
        <ele>181</ele>
        <time>2015-09-22T13:56:25Z</time>
      </trkpt>
      <trkpt lat="45.29713" lon="0.43857">
        <ele>181</ele>
        <time>2015-09-22T13:56:29Z</time>
      </trkpt>
      <trkpt lat="45.29707" lon="0.43855">
        <ele>184</ele>
        <time>2015-09-22T13:56:33Z</time>
      </trkpt>
      <trkpt lat="45.29701" lon="0.43852">
        <ele>184</ele>
        <time>2015-09-22T13:56:37Z</time>
      </trkpt>
      <trkpt lat="45.29698" lon="0.43848">
        <ele>188</ele>
        <time>2015-09-22T13:56:42Z</time>
      </trkpt>
      <trkpt lat="45.29694" lon="0.43847">
        <ele>187</ele>
        <time>2015-09-22T13:56:47Z</time>
      </trkpt>
      <trkpt lat="45.2969" lon="0.43845">
        <ele>185</ele>
        <time>2015-09-22T13:56:57Z</time>
      </trkpt>
      <trkpt lat="45.29679" lon="0.4384">
        <ele>184</ele>
        <time>2015-09-22T13:57:02Z</time>
      </trkpt>
      <trkpt lat="45.29677" lon="0.4384">
        <ele>187</ele>
        <time>2015-09-22T13:57:06Z</time>
      </trkpt>
      <trkpt lat="45.29667" lon="0.43838">
        <ele>184</ele>
        <time>2015-09-22T13:57:10Z</time>
      </trkpt>
      <trkpt lat="45.2966" lon="0.4384">
        <ele>185</ele>
        <time>2015-09-22T13:57:15Z</time>
      </trkpt>
      <trkpt lat="45.29653" lon="0.4384">
        <ele>186</ele>
        <time>2015-09-22T13:57:20Z</time>
      </trkpt>
      <trkpt lat="45.29649" lon="0.4384">
        <ele>187</ele>
        <time>2015-09-22T13:57:33Z</time>
      </trkpt>
      <trkpt lat="45.29638" lon="0.43845">
        <ele>183</ele>
        <time>2015-09-22T13:57:38Z</time>
      </trkpt>
      <trkpt lat="45.2963" lon="0.43847">
        <ele>183</ele>
        <time>2015-09-22T13:57:43Z</time>
      </trkpt>
      <trkpt lat="45.29623" lon="0.43846">
        <ele>186</ele>
        <time>2015-09-22T13:57:47Z</time>
      </trkpt>
      <trkpt lat="45.29616" lon="0.43849">
        <ele>186</ele>
        <time>2015-09-22T13:57:52Z</time>
      </trkpt>
      <trkpt lat="45.2961" lon="0.43847">
        <ele>184</ele>
        <time>2015-09-22T13:57:56Z</time>
      </trkpt>
      <trkpt lat="45.296" lon="0.43845">
        <ele>182</ele>
        <time>2015-09-22T13:58:01Z</time>
      </trkpt>
      <trkpt lat="45.29597" lon="0.43849">
        <ele>181</ele>
        <time>2015-09-22T13:58:05Z</time>
      </trkpt>
      <trkpt lat="45.29597" lon="0.43855">
        <ele>181</ele>
        <time>2015-09-22T14:00:25Z</time>
      </trkpt>
      <trkpt lat="45.29596" lon="0.4386">
        <ele>177</ele>
        <time>2015-09-22T14:01:40Z</time>
      </trkpt>
      <trkpt lat="45.29598" lon="0.43855">
        <ele>175</ele>
        <time>2015-09-22T14:03:39Z</time>
      </trkpt>
      <trkpt lat="45.29602" lon="0.43855">
        <ele>176</ele>
        <time>2015-09-22T14:03:53Z</time>
      </trkpt>
      <trkpt lat="45.29605" lon="0.4385">
        <ele>173</ele>
        <time>2015-09-22T14:04:03Z</time>
      </trkpt>
      <trkpt lat="45.29609" lon="0.43848">
        <ele>174</ele>
        <time>2015-09-22T14:04:09Z</time>
      </trkpt>
      <trkpt lat="45.29614" lon="0.43846">
        <ele>176</ele>
        <time>2015-09-22T14:04:13Z</time>
      </trkpt>
      <trkpt lat="45.29617" lon="0.43843">
        <ele>178</ele>
        <time>2015-09-22T14:04:17Z</time>
      </trkpt>
      <trkpt lat="45.2962" lon="0.4384">
        <ele>178</ele>
        <time>2015-09-22T14:04:22Z</time>
      </trkpt>
      <trkpt lat="45.29622" lon="0.43836">
        <ele>180</ele>
        <time>2015-09-22T14:04:26Z</time>
      </trkpt>
      <trkpt lat="45.29626" lon="0.43831">
        <ele>178</ele>
        <time>2015-09-22T14:04:31Z</time>
      </trkpt>
      <trkpt lat="45.29629" lon="0.43827">
        <ele>177</ele>
        <time>2015-09-22T14:04:35Z</time>
      </trkpt>
      <trkpt lat="45.29633" lon="0.43824">
        <ele>178</ele>
        <time>2015-09-22T14:04:40Z</time>
      </trkpt>
      <trkpt lat="45.29637" lon="0.4382">
        <ele>178</ele>
        <time>2015-09-22T14:04:44Z</time>
      </trkpt>
      <trkpt lat="45.29641" lon="0.43816">
        <ele>178</ele>
        <time>2015-09-22T14:04:48Z</time>
      </trkpt>
      <trkpt lat="45.29645" lon="0.43811">
        <ele>178</ele>
        <time>2015-09-22T14:04:53Z</time>
      </trkpt>
      <trkpt lat="45.29648" lon="0.43806">
        <ele>175</ele>
        <time>2015-09-22T14:04:58Z</time>
      </trkpt>
      <trkpt lat="45.29654" lon="0.43803">
        <ele>178</ele>
        <time>2015-09-22T14:05:02Z</time>
      </trkpt>
      <trkpt lat="45.29659" lon="0.43797">
        <ele>178</ele>
        <time>2015-09-22T14:05:06Z</time>
      </trkpt>
      <trkpt lat="45.29662" lon="0.43794">
        <ele>181</ele>
        <time>2015-09-22T14:05:10Z</time>
      </trkpt>
      <trkpt lat="45.29667" lon="0.43787">
        <ele>180</ele>
        <time>2015-09-22T14:05:15Z</time>
      </trkpt>
      <trkpt lat="45.2967" lon="0.43785">
        <ele>181</ele>
        <time>2015-09-22T14:05:19Z</time>
      </trkpt>
      <trkpt lat="45.29673" lon="0.4378">
        <ele>183</ele>
        <time>2015-09-22T14:05:23Z</time>
      </trkpt>
      <trkpt lat="45.29677" lon="0.43774">
        <ele>182</ele>
        <time>2015-09-22T14:05:27Z</time>
      </trkpt>
      <trkpt lat="45.29681" lon="0.43768">
        <ele>181</ele>
        <time>2015-09-22T14:05:31Z</time>
      </trkpt>
      <trkpt lat="45.29686" lon="0.43763">
        <ele>181</ele>
        <time>2015-09-22T14:05:36Z</time>
      </trkpt>
      <trkpt lat="45.2969" lon="0.4376">
        <ele>183</ele>
        <time>2015-09-22T14:05:40Z</time>
      </trkpt>
      <trkpt lat="45.29694" lon="0.43753">
        <ele>181</ele>
        <time>2015-09-22T14:05:44Z</time>
      </trkpt>
      <trkpt lat="45.29699" lon="0.43746">
        <ele>181</ele>
        <time>2015-09-22T14:05:49Z</time>
      </trkpt>
      <trkpt lat="45.29702" lon="0.43743">
        <ele>181</ele>
        <time>2015-09-22T14:05:53Z</time>
      </trkpt>
      <trkpt lat="45.29705" lon="0.43737">
        <ele>181</ele>
        <time>2015-09-22T14:05:57Z</time>
      </trkpt>
      <trkpt lat="45.2971" lon="0.43732">
        <ele>180</ele>
        <time>2015-09-22T14:06:01Z</time>
      </trkpt>
      <trkpt lat="45.29712" lon="0.43725">
        <ele>179</ele>
        <time>2015-09-22T14:06:05Z</time>
      </trkpt>
      <trkpt lat="45.29716" lon="0.43721">
        <ele>178</ele>
        <time>2015-09-22T14:06:10Z</time>
      </trkpt>
      <trkpt lat="45.29721" lon="0.43717">
        <ele>181</ele>
        <time>2015-09-22T14:06:14Z</time>
      </trkpt>
      <trkpt lat="45.29724" lon="0.43712">
        <ele>183</ele>
        <time>2015-09-22T14:06:19Z</time>
      </trkpt>
      <trkpt lat="45.29727" lon="0.43706">
        <ele>183</ele>
        <time>2015-09-22T14:06:23Z</time>
      </trkpt>
      <trkpt lat="45.2973" lon="0.43699">
        <ele>180</ele>
        <time>2015-09-22T14:06:27Z</time>
      </trkpt>
      <trkpt lat="45.29734" lon="0.43689">
        <ele>178</ele>
        <time>2015-09-22T14:06:32Z</time>
      </trkpt>
      <trkpt lat="45.29737" lon="0.43681">
        <ele>176</ele>
        <time>2015-09-22T14:06:36Z</time>
      </trkpt>
      <trkpt lat="45.29739" lon="0.43674">
        <ele>175</ele>
        <time>2015-09-22T14:06:40Z</time>
      </trkpt>
      <trkpt lat="45.29743" lon="0.43669">
        <ele>175</ele>
        <time>2015-09-22T14:06:44Z</time>
      </trkpt>
      <trkpt lat="45.29745" lon="0.43662">
        <ele>173</ele>
        <time>2015-09-22T14:06:48Z</time>
      </trkpt>
      <trkpt lat="45.29746" lon="0.43656">
        <ele>171</ele>
        <time>2015-09-22T14:06:52Z</time>
      </trkpt>
      <trkpt lat="45.29747" lon="0.43646">
        <ele>170</ele>
        <time>2015-09-22T14:06:57Z</time>
      </trkpt>
      <trkpt lat="45.2975" lon="0.43638">
        <ele>172</ele>
        <time>2015-09-22T14:07:01Z</time>
      </trkpt>
      <trkpt lat="45.29753" lon="0.43632">
        <ele>173</ele>
        <time>2015-09-22T14:07:05Z</time>
      </trkpt>
      <trkpt lat="45.29755" lon="0.43625">
        <ele>174</ele>
        <time>2015-09-22T14:07:09Z</time>
      </trkpt>
      <trkpt lat="45.29757" lon="0.43619">
        <ele>176</ele>
        <time>2015-09-22T14:07:26Z</time>
      </trkpt>
      <trkpt lat="45.29758" lon="0.43614">
        <ele>174</ele>
        <time>2015-09-22T14:07:38Z</time>
      </trkpt>
      <trkpt lat="45.2976" lon="0.43605">
        <ele>172</ele>
        <time>2015-09-22T14:07:43Z</time>
      </trkpt>
      <trkpt lat="45.2976" lon="0.43596">
        <ele>173</ele>
        <time>2015-09-22T14:07:48Z</time>
      </trkpt>
      <trkpt lat="45.29761" lon="0.43588">
        <ele>172</ele>
        <time>2015-09-22T14:07:52Z</time>
      </trkpt>
      <trkpt lat="45.29764" lon="0.43581">
        <ele>172</ele>
        <time>2015-09-22T14:07:57Z</time>
      </trkpt>
      <trkpt lat="45.29766" lon="0.43572">
        <ele>174</ele>
        <time>2015-09-22T14:08:02Z</time>
      </trkpt>
      <trkpt lat="45.29767" lon="0.43563">
        <ele>171</ele>
        <time>2015-09-22T14:08:06Z</time>
      </trkpt>
      <trkpt lat="45.29768" lon="0.43555">
        <ele>171</ele>
        <time>2015-09-22T14:08:10Z</time>
      </trkpt>
      <trkpt lat="45.29769" lon="0.43548">
        <ele>170</ele>
        <time>2015-09-22T14:08:14Z</time>
      </trkpt>
      <trkpt lat="45.2977" lon="0.43542">
        <ele>171</ele>
        <time>2015-09-22T14:08:18Z</time>
      </trkpt>
      <trkpt lat="45.2977" lon="0.43534">
        <ele>171</ele>
        <time>2015-09-22T14:08:22Z</time>
      </trkpt>
      <trkpt lat="45.29771" lon="0.43524">
        <ele>171</ele>
        <time>2015-09-22T14:08:27Z</time>
      </trkpt>
      <trkpt lat="45.29771" lon="0.43516">
        <ele>169</ele>
        <time>2015-09-22T14:08:31Z</time>
      </trkpt>
      <trkpt lat="45.29772" lon="0.43505">
        <ele>169</ele>
        <time>2015-09-22T14:08:36Z</time>
      </trkpt>
      <trkpt lat="45.29772" lon="0.43497">
        <ele>171</ele>
        <time>2015-09-22T14:08:40Z</time>
      </trkpt>
      <trkpt lat="45.29772" lon="0.43487">
        <ele>171</ele>
        <time>2015-09-22T14:08:45Z</time>
      </trkpt>
      <trkpt lat="45.29772" lon="0.4348">
        <ele>172</ele>
        <time>2015-09-22T14:08:49Z</time>
      </trkpt>
      <trkpt lat="45.29772" lon="0.43473">
        <ele>174</ele>
        <time>2015-09-22T14:08:54Z</time>
      </trkpt>
      <trkpt lat="45.29772" lon="0.43466">
        <ele>175</ele>
        <time>2015-09-22T14:08:58Z</time>
      </trkpt>
      <trkpt lat="45.29774" lon="0.43458">
        <ele>178</ele>
        <time>2015-09-22T14:09:03Z</time>
      </trkpt>
      <trkpt lat="45.29773" lon="0.4345">
        <ele>180</ele>
        <time>2015-09-22T14:09:07Z</time>
      </trkpt>
      <trkpt lat="45.29773" lon="0.43442">
        <ele>178</ele>
        <time>2015-09-22T14:09:11Z</time>
      </trkpt>
      <trkpt lat="45.29773" lon="0.43434">
        <ele>177</ele>
        <time>2015-09-22T14:09:15Z</time>
      </trkpt>
      <trkpt lat="45.29773" lon="0.43426">
        <ele>174</ele>
        <time>2015-09-22T14:09:19Z</time>
      </trkpt>
      <trkpt lat="45.29774" lon="0.4342">
        <ele>173</ele>
        <time>2015-09-22T14:09:23Z</time>
      </trkpt>
      <trkpt lat="45.29772" lon="0.43412">
        <ele>174</ele>
        <time>2015-09-22T14:09:28Z</time>
      </trkpt>
      <trkpt lat="45.29773" lon="0.43404">
        <ele>176</ele>
        <time>2015-09-22T14:09:33Z</time>
      </trkpt>
      <trkpt lat="45.29773" lon="0.43396">
        <ele>172</ele>
        <time>2015-09-22T14:09:37Z</time>
      </trkpt>
      <trkpt lat="45.29772" lon="0.43388">
        <ele>171</ele>
        <time>2015-09-22T14:09:41Z</time>
      </trkpt>
      <trkpt lat="45.29772" lon="0.43381">
        <ele>172</ele>
        <time>2015-09-22T14:09:45Z</time>
      </trkpt>
      <trkpt lat="45.29771" lon="0.43376">
        <ele>174</ele>
        <time>2015-09-22T14:09:48Z</time>
      </trkpt>
      <trkpt lat="45.29769" lon="0.43368">
        <ele>175</ele>
        <time>2015-09-22T14:09:53Z</time>
      </trkpt>
      <trkpt lat="45.29765" lon="0.43359">
        <ele>174</ele>
        <time>2015-09-22T14:09:57Z</time>
      </trkpt>
      <trkpt lat="45.29763" lon="0.4335">
        <ele>176</ele>
        <time>2015-09-22T14:10:02Z</time>
      </trkpt>
      <trkpt lat="45.29761" lon="0.43343">
        <ele>176</ele>
        <time>2015-09-22T14:10:07Z</time>
      </trkpt>
      <trkpt lat="45.29759" lon="0.43335">
        <ele>175</ele>
        <time>2015-09-22T14:10:11Z</time>
      </trkpt>
      <trkpt lat="45.29756" lon="0.43328">
        <ele>174</ele>
        <time>2015-09-22T14:10:15Z</time>
      </trkpt>
      <trkpt lat="45.29755" lon="0.43322">
        <ele>176</ele>
        <time>2015-09-22T14:10:19Z</time>
      </trkpt>
      <trkpt lat="45.29751" lon="0.43317">
        <ele>176</ele>
        <time>2015-09-22T14:10:23Z</time>
      </trkpt>
      <trkpt lat="45.2975" lon="0.43312">
        <ele>177</ele>
        <time>2015-09-22T14:10:27Z</time>
      </trkpt>
      <trkpt lat="45.29747" lon="0.43305">
        <ele>176</ele>
        <time>2015-09-22T14:10:31Z</time>
      </trkpt>
      <trkpt lat="45.29745" lon="0.433">
        <ele>179</ele>
        <time>2015-09-22T14:10:37Z</time>
      </trkpt>
      <trkpt lat="45.29742" lon="0.43294">
        <ele>178</ele>
        <time>2015-09-22T14:10:41Z</time>
      </trkpt>
      <trkpt lat="45.29736" lon="0.4329">
        <ele>179</ele>
        <time>2015-09-22T14:10:46Z</time>
      </trkpt>
      <trkpt lat="45.29733" lon="0.43286">
        <ele>179</ele>
        <time>2015-09-22T14:10:50Z</time>
      </trkpt>
      <trkpt lat="45.2973" lon="0.43282">
        <ele>180</ele>
        <time>2015-09-22T14:10:54Z</time>
      </trkpt>
      <trkpt lat="45.29727" lon="0.43276">
        <ele>179</ele>
        <time>2015-09-22T14:10:58Z</time>
      </trkpt>
      <trkpt lat="45.29723" lon="0.4327">
        <ele>178</ele>
        <time>2015-09-22T14:11:03Z</time>
      </trkpt>
      <trkpt lat="45.29718" lon="0.43267">
        <ele>176</ele>
        <time>2015-09-22T14:11:07Z</time>
      </trkpt>
      <trkpt lat="45.29715" lon="0.43264">
        <ele>176</ele>
        <time>2015-09-22T14:11:11Z</time>
      </trkpt>
      <trkpt lat="45.29712" lon="0.43262">
        <ele>177</ele>
        <time>2015-09-22T14:11:17Z</time>
      </trkpt>
      <trkpt lat="45.29707" lon="0.43255">
        <ele>176</ele>
        <time>2015-09-22T14:11:22Z</time>
      </trkpt>
      <trkpt lat="45.29703" lon="0.43249">
        <ele>178</ele>
        <time>2015-09-22T14:11:27Z</time>
      </trkpt>
      <trkpt lat="45.297" lon="0.43245">
        <ele>178</ele>
        <time>2015-09-22T14:11:31Z</time>
      </trkpt>
      <trkpt lat="45.29695" lon="0.4324">
        <ele>176</ele>
        <time>2015-09-22T14:11:35Z</time>
      </trkpt>
      <trkpt lat="45.29691" lon="0.43237">
        <ele>175</ele>
        <time>2015-09-22T14:11:38Z</time>
      </trkpt>
      <trkpt lat="45.29688" lon="0.43232">
        <ele>175</ele>
        <time>2015-09-22T14:11:44Z</time>
      </trkpt>
      <trkpt lat="45.29683" lon="0.43228">
        <ele>175</ele>
        <time>2015-09-22T14:11:48Z</time>
      </trkpt>
      <trkpt lat="45.2968" lon="0.43222">
        <ele>174</ele>
        <time>2015-09-22T14:11:52Z</time>
      </trkpt>
      <trkpt lat="45.29677" lon="0.4322">
        <ele>176</ele>
        <time>2015-09-22T14:11:56Z</time>
      </trkpt>
      <trkpt lat="45.2967" lon="0.43214">
        <ele>174</ele>
        <time>2015-09-22T14:12:01Z</time>
      </trkpt>
      <trkpt lat="45.29664" lon="0.43208">
        <ele>173</ele>
        <time>2015-09-22T14:12:06Z</time>
      </trkpt>
      <trkpt lat="45.29659" lon="0.43204">
        <ele>171</ele>
        <time>2015-09-22T14:12:10Z</time>
      </trkpt>
      <trkpt lat="45.29653" lon="0.43199">
        <ele>170</ele>
        <time>2015-09-22T14:12:15Z</time>
      </trkpt>
      <trkpt lat="45.29648" lon="0.43191">
        <ele>172</ele>
        <time>2015-09-22T14:12:20Z</time>
      </trkpt>
      <trkpt lat="45.29641" lon="0.43184">
        <ele>172</ele>
        <time>2015-09-22T14:12:25Z</time>
      </trkpt>
      <trkpt lat="45.29635" lon="0.43177">
        <ele>169</ele>
        <time>2015-09-22T14:12:29Z</time>
      </trkpt>
      <trkpt lat="45.2963" lon="0.43171">
        <ele>169</ele>
        <time>2015-09-22T14:12:34Z</time>
      </trkpt>
      <trkpt lat="45.29625" lon="0.43165">
        <ele>170</ele>
        <time>2015-09-22T14:12:38Z</time>
      </trkpt>
      <trkpt lat="45.29619" lon="0.43157">
        <ele>169</ele>
        <time>2015-09-22T14:12:43Z</time>
      </trkpt>
      <trkpt lat="45.29613" lon="0.43149">
        <ele>171</ele>
        <time>2015-09-22T14:12:48Z</time>
      </trkpt>
      <trkpt lat="45.29609" lon="0.43141">
        <ele>168</ele>
        <time>2015-09-22T14:12:52Z</time>
      </trkpt>
      <trkpt lat="45.29602" lon="0.43132">
        <ele>168</ele>
        <time>2015-09-22T14:12:57Z</time>
      </trkpt>
      <trkpt lat="45.296" lon="0.43125">
        <ele>169</ele>
        <time>2015-09-22T14:13:01Z</time>
      </trkpt>
      <trkpt lat="45.29594" lon="0.43119">
        <ele>166</ele>
        <time>2015-09-22T14:13:05Z</time>
      </trkpt>
      <trkpt lat="45.29591" lon="0.43114">
        <ele>164</ele>
        <time>2015-09-22T14:13:10Z</time>
      </trkpt>
      <trkpt lat="45.29588" lon="0.43109">
        <ele>165</ele>
        <time>2015-09-22T14:13:14Z</time>
      </trkpt>
      <trkpt lat="45.29586" lon="0.431">
        <ele>166</ele>
        <time>2015-09-22T14:13:18Z</time>
      </trkpt>
      <trkpt lat="45.29584" lon="0.43087">
        <ele>168</ele>
        <time>2015-09-22T14:13:23Z</time>
      </trkpt>
      <trkpt lat="45.29582" lon="0.43079">
        <ele>170</ele>
        <time>2015-09-22T14:13:27Z</time>
      </trkpt>
      <trkpt lat="45.2958" lon="0.43068">
        <ele>171</ele>
        <time>2015-09-22T14:13:32Z</time>
      </trkpt>
      <trkpt lat="45.29578" lon="0.43061">
        <ele>172</ele>
        <time>2015-09-22T14:13:36Z</time>
      </trkpt>
      <trkpt lat="45.29577" lon="0.43052">
        <ele>172</ele>
        <time>2015-09-22T14:13:40Z</time>
      </trkpt>
      <trkpt lat="45.29574" lon="0.43045">
        <ele>173</ele>
        <time>2015-09-22T14:13:45Z</time>
      </trkpt>
      <trkpt lat="45.29571" lon="0.43037">
        <ele>174</ele>
        <time>2015-09-22T14:13:49Z</time>
      </trkpt>
      <trkpt lat="45.29566" lon="0.43027">
        <ele>176</ele>
        <time>2015-09-22T14:13:54Z</time>
      </trkpt>
      <trkpt lat="45.2956" lon="0.43016">
        <ele>175</ele>
        <time>2015-09-22T14:13:59Z</time>
      </trkpt>
      <trkpt lat="45.29554" lon="0.43007">
        <ele>173</ele>
        <time>2015-09-22T14:14:04Z</time>
      </trkpt>
      <trkpt lat="45.29546" lon="0.42998">
        <ele>172</ele>
        <time>2015-09-22T14:14:09Z</time>
      </trkpt>
      <trkpt lat="45.29543" lon="0.4299">
        <ele>172</ele>
        <time>2015-09-22T14:14:13Z</time>
      </trkpt>
      <trkpt lat="45.29543" lon="0.42982">
        <ele>174</ele>
        <time>2015-09-22T14:14:18Z</time>
      </trkpt>
      <trkpt lat="45.29537" lon="0.42977">
        <ele>175</ele>
        <time>2015-09-22T14:14:23Z</time>
      </trkpt>
      <trkpt lat="45.29532" lon="0.42969">
        <ele>173</ele>
        <time>2015-09-22T14:14:27Z</time>
      </trkpt>
      <trkpt lat="45.29528" lon="0.42961">
        <ele>172</ele>
        <time>2015-09-22T14:14:32Z</time>
      </trkpt>
      <trkpt lat="45.29526" lon="0.42952">
        <ele>175</ele>
        <time>2015-09-22T14:14:37Z</time>
      </trkpt>
      <trkpt lat="45.29521" lon="0.42945">
        <ele>175</ele>
        <time>2015-09-22T14:14:41Z</time>
      </trkpt>
      <trkpt lat="45.29519" lon="0.42938">
        <ele>177</ele>
        <time>2015-09-22T14:14:45Z</time>
      </trkpt>
      <trkpt lat="45.29514" lon="0.42928">
        <ele>175</ele>
        <time>2015-09-22T14:14:50Z</time>
      </trkpt>
      <trkpt lat="45.2951" lon="0.4292">
        <ele>175</ele>
        <time>2015-09-22T14:14:54Z</time>
      </trkpt>
      <trkpt lat="45.29505" lon="0.4291">
        <ele>176</ele>
        <time>2015-09-22T14:14:59Z</time>
      </trkpt>
      <trkpt lat="45.29504" lon="0.42908">
        <ele>176</ele>
        <time>2015-09-22T14:15:00Z</time>
      </trkpt>
      <trkpt lat="45.29501" lon="0.429">
        <ele>176</ele>
        <time>2015-09-22T14:15:05Z</time>
      </trkpt>
      <trkpt lat="45.29495" lon="0.42893">
        <ele>175</ele>
        <time>2015-09-22T14:15:10Z</time>
      </trkpt>
      <trkpt lat="45.29489" lon="0.42888">
        <ele>176</ele>
        <time>2015-09-22T14:15:14Z</time>
      </trkpt>
      <trkpt lat="45.2948" lon="0.4288">
        <ele>176</ele>
        <time>2015-09-22T14:15:19Z</time>
      </trkpt>
      <trkpt lat="45.29476" lon="0.42878">
        <ele>176</ele>
        <time>2015-09-22T14:15:23Z</time>
      </trkpt>
      <trkpt lat="45.29473" lon="0.42874">
        <ele>177</ele>
        <time>2015-09-22T14:15:27Z</time>
      </trkpt>
      <trkpt lat="45.29468" lon="0.42869">
        <ele>178</ele>
        <time>2015-09-22T14:15:32Z</time>
      </trkpt>
      <trkpt lat="45.29463" lon="0.42863">
        <ele>175</ele>
        <time>2015-09-22T14:15:36Z</time>
      </trkpt>
      <trkpt lat="45.29458" lon="0.42857">
        <ele>174</ele>
        <time>2015-09-22T14:15:41Z</time>
      </trkpt>
      <trkpt lat="45.29454" lon="0.42853">
        <ele>173</ele>
        <time>2015-09-22T14:15:45Z</time>
      </trkpt>
      <trkpt lat="45.29451" lon="0.42849">
        <ele>174</ele>
        <time>2015-09-22T14:15:48Z</time>
      </trkpt>
      <trkpt lat="45.29444" lon="0.42843">
        <ele>172</ele>
        <time>2015-09-22T14:15:53Z</time>
      </trkpt>
      <trkpt lat="45.29439" lon="0.42836">
        <ele>169</ele>
        <time>2015-09-22T14:15:58Z</time>
      </trkpt>
      <trkpt lat="45.29438" lon="0.4283">
        <ele>171</ele>
        <time>2015-09-22T14:16:04Z</time>
      </trkpt>
      <trkpt lat="45.29436" lon="0.42824">
        <ele>172</ele>
        <time>2015-09-22T14:16:10Z</time>
      </trkpt>
      <trkpt lat="45.2943" lon="0.42817">
        <ele>173</ele>
        <time>2015-09-22T14:16:14Z</time>
      </trkpt>
      <trkpt lat="45.29426" lon="0.4281">
        <ele>174</ele>
        <time>2015-09-22T14:16:18Z</time>
      </trkpt>
      <trkpt lat="45.29423" lon="0.42805">
        <ele>174</ele>
        <time>2015-09-22T14:16:22Z</time>
      </trkpt>
      <trkpt lat="45.2942" lon="0.42797">
        <ele>176</ele>
        <time>2015-09-22T14:16:27Z</time>
      </trkpt>
      <trkpt lat="45.29415" lon="0.42791">
        <ele>176</ele>
        <time>2015-09-22T14:16:31Z</time>
      </trkpt>
      <trkpt lat="45.2941" lon="0.42782">
        <ele>173</ele>
        <time>2015-09-22T14:16:36Z</time>
      </trkpt>
      <trkpt lat="45.29404" lon="0.42774">
        <ele>171</ele>
        <time>2015-09-22T14:16:40Z</time>
      </trkpt>
      <trkpt lat="45.29399" lon="0.42766">
        <ele>170</ele>
        <time>2015-09-22T14:16:44Z</time>
      </trkpt>
      <trkpt lat="45.29396" lon="0.42759">
        <ele>169</ele>
        <time>2015-09-22T14:16:48Z</time>
      </trkpt>
      <trkpt lat="45.29393" lon="0.42755">
        <ele>169</ele>
        <time>2015-09-22T14:16:51Z</time>
      </trkpt>
      <trkpt lat="45.29391" lon="0.42748">
        <ele>168</ele>
        <time>2015-09-22T14:16:54Z</time>
      </trkpt>
      <trkpt lat="45.29385" lon="0.42738">
        <ele>167</ele>
        <time>2015-09-22T14:16:59Z</time>
      </trkpt>
      <trkpt lat="45.29381" lon="0.42732">
        <ele>172</ele>
        <time>2015-09-22T14:17:03Z</time>
      </trkpt>
      <trkpt lat="45.29377" lon="0.42723">
        <ele>173</ele>
        <time>2015-09-22T14:17:08Z</time>
      </trkpt>
      <trkpt lat="45.29373" lon="0.42716">
        <ele>172</ele>
        <time>2015-09-22T14:17:12Z</time>
      </trkpt>
      <trkpt lat="45.29369" lon="0.4271">
        <ele>175</ele>
        <time>2015-09-22T14:17:16Z</time>
      </trkpt>
      <trkpt lat="45.29364" lon="0.42702">
        <ele>177</ele>
        <time>2015-09-22T14:17:21Z</time>
      </trkpt>
      <trkpt lat="45.29359" lon="0.42697">
        <ele>178</ele>
        <time>2015-09-22T14:17:25Z</time>
      </trkpt>
      <trkpt lat="45.29356" lon="0.4269">
        <ele>177</ele>
        <time>2015-09-22T14:17:30Z</time>
      </trkpt>
      <trkpt lat="45.29354" lon="0.42686">
        <ele>178</ele>
        <time>2015-09-22T14:17:34Z</time>
      </trkpt>
      <trkpt lat="45.29349" lon="0.42681">
        <ele>175</ele>
        <time>2015-09-22T14:17:39Z</time>
      </trkpt>
      <trkpt lat="45.29345" lon="0.42677">
        <ele>175</ele>
        <time>2015-09-22T14:17:43Z</time>
      </trkpt>
      <trkpt lat="45.29342" lon="0.42673">
        <ele>175</ele>
        <time>2015-09-22T14:17:47Z</time>
      </trkpt>
      <trkpt lat="45.29337" lon="0.42667">
        <ele>174</ele>
        <time>2015-09-22T14:17:52Z</time>
      </trkpt>
      <trkpt lat="45.29331" lon="0.42662">
        <ele>173</ele>
        <time>2015-09-22T14:17:57Z</time>
      </trkpt>
      <trkpt lat="45.29328" lon="0.4266">
        <ele>173</ele>
        <time>2015-09-22T14:17:59Z</time>
      </trkpt>
      <trkpt lat="45.29321" lon="0.42652">
        <ele>172</ele>
        <time>2015-09-22T14:18:07Z</time>
      </trkpt>
      <trkpt lat="45.29315" lon="0.42647">
        <ele>171</ele>
        <time>2015-09-22T14:18:12Z</time>
      </trkpt>
      <trkpt lat="45.29312" lon="0.42643">
        <ele>171</ele>
        <time>2015-09-22T14:18:16Z</time>
      </trkpt>
      <trkpt lat="45.29307" lon="0.42638">
        <ele>170</ele>
        <time>2015-09-22T14:18:21Z</time>
      </trkpt>
      <trkpt lat="45.29304" lon="0.42634">
        <ele>170</ele>
        <time>2015-09-22T14:18:25Z</time>
      </trkpt>
      <trkpt lat="45.293" lon="0.4263">
        <ele>170</ele>
        <time>2015-09-22T14:18:29Z</time>
      </trkpt>
      <trkpt lat="45.29296" lon="0.42627">
        <ele>169</ele>
        <time>2015-09-22T14:18:33Z</time>
      </trkpt>
      <trkpt lat="45.29291" lon="0.42622">
        <ele>169</ele>
        <time>2015-09-22T14:18:38Z</time>
      </trkpt>
      <trkpt lat="45.29286" lon="0.42619">
        <ele>169</ele>
        <time>2015-09-22T14:18:42Z</time>
      </trkpt>
      <trkpt lat="45.2928" lon="0.42614">
        <ele>170</ele>
        <time>2015-09-22T14:18:47Z</time>
      </trkpt>
      <trkpt lat="45.29277" lon="0.42612">
        <ele>170</ele>
        <time>2015-09-22T14:18:51Z</time>
      </trkpt>
      <trkpt lat="45.29271" lon="0.42609">
        <ele>170</ele>
        <time>2015-09-22T14:18:56Z</time>
      </trkpt>
      <trkpt lat="45.29265" lon="0.42607">
        <ele>170</ele>
        <time>2015-09-22T14:19:01Z</time>
      </trkpt>
      <trkpt lat="45.2926" lon="0.42605">
        <ele>170</ele>
        <time>2015-09-22T14:19:05Z</time>
      </trkpt>
      <trkpt lat="45.29253" lon="0.42602">
        <ele>170</ele>
        <time>2015-09-22T14:19:10Z</time>
      </trkpt>
      <trkpt lat="45.29249" lon="0.42601">
        <ele>169</ele>
        <time>2015-09-22T14:19:14Z</time>
      </trkpt>
      <trkpt lat="45.29243" lon="0.42597">
        <ele>170</ele>
        <time>2015-09-22T14:19:19Z</time>
      </trkpt>
      <trkpt lat="45.29239" lon="0.42595">
        <ele>170</ele>
        <time>2015-09-22T14:19:23Z</time>
      </trkpt>
      <trkpt lat="45.29235" lon="0.42595">
        <ele>170</ele>
        <time>2015-09-22T14:19:28Z</time>
      </trkpt>
      <trkpt lat="45.29227" lon="0.42593">
        <ele>167</ele>
        <time>2015-09-22T14:19:32Z</time>
      </trkpt>
      <trkpt lat="45.29223" lon="0.42591">
        <ele>168</ele>
        <time>2015-09-22T14:19:37Z</time>
      </trkpt>
      <trkpt lat="45.29217" lon="0.42588">
        <ele>167</ele>
        <time>2015-09-22T14:19:41Z</time>
      </trkpt>
      <trkpt lat="45.2921" lon="0.42587">
        <ele>166</ele>
        <time>2015-09-22T14:19:46Z</time>
      </trkpt>
      <trkpt lat="45.29205" lon="0.42586">
        <ele>167</ele>
        <time>2015-09-22T14:19:50Z</time>
      </trkpt>
      <trkpt lat="45.292" lon="0.42583">
        <ele>168</ele>
        <time>2015-09-22T14:19:54Z</time>
      </trkpt>
      <trkpt lat="45.29195" lon="0.42582">
        <ele>168</ele>
        <time>2015-09-22T14:19:58Z</time>
      </trkpt>
      <trkpt lat="45.2919" lon="0.42582">
        <ele>168</ele>
        <time>2015-09-22T14:20:02Z</time>
      </trkpt>
      <trkpt lat="45.29185" lon="0.4258">
        <ele>167</ele>
        <time>2015-09-22T14:20:07Z</time>
      </trkpt>
      <trkpt lat="45.29181" lon="0.42579">
        <ele>168</ele>
        <time>2015-09-22T14:20:15Z</time>
      </trkpt>
      <trkpt lat="45.29178" lon="0.4258">
        <ele>169</ele>
        <time>2015-09-22T14:21:39Z</time>
      </trkpt>
      <trkpt lat="45.29173" lon="0.42578">
        <ele>169</ele>
        <time>2015-09-22T14:21:43Z</time>
      </trkpt>
      <trkpt lat="45.29169" lon="0.42577">
        <ele>169</ele>
        <time>2015-09-22T14:21:47Z</time>
      </trkpt>
      <trkpt lat="45.29163" lon="0.42576">
        <ele>169</ele>
        <time>2015-09-22T14:21:52Z</time>
      </trkpt>
      <trkpt lat="45.29158" lon="0.42575">
        <ele>169</ele>
        <time>2015-09-22T14:21:56Z</time>
      </trkpt>
      <trkpt lat="45.29153" lon="0.42574">
        <ele>169</ele>
        <time>2015-09-22T14:22:00Z</time>
      </trkpt>
      <trkpt lat="45.29148" lon="0.42574">
        <ele>169</ele>
        <time>2015-09-22T14:22:04Z</time>
      </trkpt>
      <trkpt lat="45.29142" lon="0.42573">
        <ele>169</ele>
        <time>2015-09-22T14:22:09Z</time>
      </trkpt>
      <trkpt lat="45.29137" lon="0.42573">
        <ele>169</ele>
        <time>2015-09-22T14:22:13Z</time>
      </trkpt>
      <trkpt lat="45.29131" lon="0.42572">
        <ele>169</ele>
        <time>2015-09-22T14:22:18Z</time>
      </trkpt>
      <trkpt lat="45.29125" lon="0.42572">
        <ele>170</ele>
        <time>2015-09-22T14:22:23Z</time>
      </trkpt>
      <trkpt lat="45.2912" lon="0.42572">
        <ele>171</ele>
        <time>2015-09-22T14:22:27Z</time>
      </trkpt>
      <trkpt lat="45.29115" lon="0.42572">
        <ele>171</ele>
        <time>2015-09-22T14:22:32Z</time>
      </trkpt>
      <trkpt lat="45.29109" lon="0.42572">
        <ele>171</ele>
        <time>2015-09-22T14:22:36Z</time>
      </trkpt>
      <trkpt lat="45.29103" lon="0.42571">
        <ele>171</ele>
        <time>2015-09-22T14:22:41Z</time>
      </trkpt>
      <trkpt lat="45.29098" lon="0.42571">
        <ele>170</ele>
        <time>2015-09-22T14:22:45Z</time>
      </trkpt>
      <trkpt lat="45.29093" lon="0.42572">
        <ele>170</ele>
        <time>2015-09-22T14:22:49Z</time>
      </trkpt>
      <trkpt lat="45.29088" lon="0.42572">
        <ele>170</ele>
        <time>2015-09-22T14:22:53Z</time>
      </trkpt>
      <trkpt lat="45.29084" lon="0.42571">
        <ele>170</ele>
        <time>2015-09-22T14:22:57Z</time>
      </trkpt>
      <trkpt lat="45.2908" lon="0.42571">
        <ele>171</ele>
        <time>2015-09-22T14:23:02Z</time>
      </trkpt>
      <trkpt lat="45.29073" lon="0.42569">
        <ele>171</ele>
        <time>2015-09-22T14:23:07Z</time>
      </trkpt>
      <trkpt lat="45.29066" lon="0.42569">
        <ele>170</ele>
        <time>2015-09-22T14:23:12Z</time>
      </trkpt>
      <trkpt lat="45.29061" lon="0.42569">
        <ele>170</ele>
        <time>2015-09-22T14:23:16Z</time>
      </trkpt>
      <trkpt lat="45.29056" lon="0.42569">
        <ele>169</ele>
        <time>2015-09-22T14:23:20Z</time>
      </trkpt>
      <trkpt lat="45.2905" lon="0.4257">
        <ele>170</ele>
        <time>2015-09-22T14:23:25Z</time>
      </trkpt>
      <trkpt lat="45.29047" lon="0.42569">
        <ele>169</ele>
        <time>2015-09-22T14:23:28Z</time>
      </trkpt>
      <trkpt lat="45.29041" lon="0.42567">
        <ele>168</ele>
        <time>2015-09-22T14:23:32Z</time>
      </trkpt>
      <trkpt lat="45.29038" lon="0.42567">
        <ele>168</ele>
        <time>2015-09-22T14:23:35Z</time>
      </trkpt>
      <trkpt lat="45.29031" lon="0.42567">
        <ele>168</ele>
        <time>2015-09-22T14:23:39Z</time>
      </trkpt>
      <trkpt lat="45.29025" lon="0.42567">
        <ele>168</ele>
        <time>2015-09-22T14:23:44Z</time>
      </trkpt>
      <trkpt lat="45.29021" lon="0.42567">
        <ele>169</ele>
        <time>2015-09-22T14:23:48Z</time>
      </trkpt>
      <trkpt lat="45.29015" lon="0.42566">
        <ele>169</ele>
        <time>2015-09-22T14:23:52Z</time>
      </trkpt>
      <trkpt lat="45.29011" lon="0.42566">
        <ele>171</ele>
        <time>2015-09-22T14:23:57Z</time>
      </trkpt>
      <trkpt lat="45.29006" lon="0.42565">
        <ele>170</ele>
        <time>2015-09-22T14:24:01Z</time>
      </trkpt>
      <trkpt lat="45.28999" lon="0.42563">
        <ele>171</ele>
        <time>2015-09-22T14:24:06Z</time>
      </trkpt>
      <trkpt lat="45.28994" lon="0.42564">
        <ele>170</ele>
        <time>2015-09-22T14:24:10Z</time>
      </trkpt>
      <trkpt lat="45.28988" lon="0.42562">
        <ele>170</ele>
        <time>2015-09-22T14:24:15Z</time>
      </trkpt>
      <trkpt lat="45.28983" lon="0.4256">
        <ele>171</ele>
        <time>2015-09-22T14:24:19Z</time>
      </trkpt>
      <trkpt lat="45.28978" lon="0.4256">
        <ele>172</ele>
        <time>2015-09-22T14:24:23Z</time>
      </trkpt>
      <trkpt lat="45.28974" lon="0.4256">
        <ele>172</ele>
        <time>2015-09-22T14:24:27Z</time>
      </trkpt>
      <trkpt lat="45.2897" lon="0.4256">
        <ele>172</ele>
        <time>2015-09-22T14:24:33Z</time>
      </trkpt>
      <trkpt lat="45.28963" lon="0.42559">
        <ele>166</ele>
        <time>2015-09-22T14:24:37Z</time>
      </trkpt>
      <trkpt lat="45.28957" lon="0.42557">
        <ele>166</ele>
        <time>2015-09-22T14:24:41Z</time>
      </trkpt>
      <trkpt lat="45.28952" lon="0.42557">
        <ele>166</ele>
        <time>2015-09-22T14:24:45Z</time>
      </trkpt>
      <trkpt lat="45.28947" lon="0.42555">
        <ele>166</ele>
        <time>2015-09-22T14:24:49Z</time>
      </trkpt>
      <trkpt lat="45.2894" lon="0.42553">
        <ele>166</ele>
        <time>2015-09-22T14:24:54Z</time>
      </trkpt>
      <trkpt lat="45.28936" lon="0.42551">
        <ele>166</ele>
        <time>2015-09-22T14:24:58Z</time>
      </trkpt>
      <trkpt lat="45.28932" lon="0.4255">
        <ele>167</ele>
        <time>2015-09-22T14:25:02Z</time>
      </trkpt>
      <trkpt lat="45.28926" lon="0.42547">
        <ele>168</ele>
        <time>2015-09-22T14:25:07Z</time>
      </trkpt>
      <trkpt lat="45.28921" lon="0.42545">
        <ele>169</ele>
        <time>2015-09-22T14:25:11Z</time>
      </trkpt>
      <trkpt lat="45.28914" lon="0.42542">
        <ele>169</ele>
        <time>2015-09-22T14:25:16Z</time>
      </trkpt>
      <trkpt lat="45.2891" lon="0.4254">
        <ele>170</ele>
        <time>2015-09-22T14:25:20Z</time>
      </trkpt>
      <trkpt lat="45.28902" lon="0.42537">
        <ele>169</ele>
        <time>2015-09-22T14:25:25Z</time>
      </trkpt>
      <trkpt lat="45.28895" lon="0.42537">
        <ele>167</ele>
        <time>2015-09-22T14:25:30Z</time>
      </trkpt>
      <trkpt lat="45.2889" lon="0.42535">
        <ele>168</ele>
        <time>2015-09-22T14:25:34Z</time>
      </trkpt>
      <trkpt lat="45.28885" lon="0.42534">
        <ele>170</ele>
        <time>2015-09-22T14:25:38Z</time>
      </trkpt>
      <trkpt lat="45.2888" lon="0.42531">
        <ele>170</ele>
        <time>2015-09-22T14:25:42Z</time>
      </trkpt>
      <trkpt lat="45.28873" lon="0.42531">
        <ele>169</ele>
        <time>2015-09-22T14:25:47Z</time>
      </trkpt>
      <trkpt lat="45.28868" lon="0.42531">
        <ele>170</ele>
        <time>2015-09-22T14:25:51Z</time>
      </trkpt>
      <trkpt lat="45.28863" lon="0.42529">
        <ele>169</ele>
        <time>2015-09-22T14:25:56Z</time>
      </trkpt>
      <trkpt lat="45.28856" lon="0.42528">
        <ele>168</ele>
        <time>2015-09-22T14:26:00Z</time>
      </trkpt>
      <trkpt lat="45.28849" lon="0.42528">
        <ele>168</ele>
        <time>2015-09-22T14:26:05Z</time>
      </trkpt>
      <trkpt lat="45.28845" lon="0.42527">
        <ele>168</ele>
        <time>2015-09-22T14:26:09Z</time>
      </trkpt>
      <trkpt lat="45.28843" lon="0.42521">
        <ele>168</ele>
        <time>2015-09-22T14:26:14Z</time>
      </trkpt>
      <trkpt lat="45.28844" lon="0.42516">
        <ele>169</ele>
        <time>2015-09-22T14:26:18Z</time>
      </trkpt>
      <trkpt lat="45.28847" lon="0.42511">
        <ele>169</ele>
        <time>2015-09-22T14:26:22Z</time>
      </trkpt>
      <trkpt lat="45.28848" lon="0.42503">
        <ele>169</ele>
        <time>2015-09-22T14:26:27Z</time>
      </trkpt>
      <trkpt lat="45.28851" lon="0.42496">
        <ele>167</ele>
        <time>2015-09-22T14:26:31Z</time>
      </trkpt>
      <trkpt lat="45.28854" lon="0.42487">
        <ele>165</ele>
        <time>2015-09-22T14:26:36Z</time>
      </trkpt>
      <trkpt lat="45.28858" lon="0.42481">
        <ele>164</ele>
        <time>2015-09-22T14:26:40Z</time>
      </trkpt>
      <trkpt lat="45.2886" lon="0.42474">
        <ele>163</ele>
        <time>2015-09-22T14:26:45Z</time>
      </trkpt>
      <trkpt lat="45.28863" lon="0.42468">
        <ele>162</ele>
        <time>2015-09-22T14:26:49Z</time>
      </trkpt>
      <trkpt lat="45.28865" lon="0.42462">
        <ele>163</ele>
        <time>2015-09-22T14:26:53Z</time>
      </trkpt>
      <trkpt lat="45.28868" lon="0.42455">
        <ele>163</ele>
        <time>2015-09-22T14:26:57Z</time>
      </trkpt>
      <trkpt lat="45.28871" lon="0.42448">
        <ele>162</ele>
        <time>2015-09-22T14:27:02Z</time>
      </trkpt>
      <trkpt lat="45.28874" lon="0.42442">
        <ele>162</ele>
        <time>2015-09-22T14:27:06Z</time>
      </trkpt>
      <trkpt lat="45.28876" lon="0.42433">
        <ele>161</ele>
        <time>2015-09-22T14:27:11Z</time>
      </trkpt>
      <trkpt lat="45.28879" lon="0.42426">
        <ele>161</ele>
        <time>2015-09-22T14:27:16Z</time>
      </trkpt>
      <trkpt lat="45.28882" lon="0.4242">
        <ele>161</ele>
        <time>2015-09-22T14:27:20Z</time>
      </trkpt>
      <trkpt lat="45.28884" lon="0.42413">
        <ele>161</ele>
        <time>2015-09-22T14:27:24Z</time>
      </trkpt>
      <trkpt lat="45.28886" lon="0.42407">
        <ele>160</ele>
        <time>2015-09-22T14:27:28Z</time>
      </trkpt>
      <trkpt lat="45.28889" lon="0.42399">
        <ele>159</ele>
        <time>2015-09-22T14:27:33Z</time>
      </trkpt>
      <trkpt lat="45.28892" lon="0.42392">
        <ele>157</ele>
        <time>2015-09-22T14:27:38Z</time>
      </trkpt>
      <trkpt lat="45.28894" lon="0.42385">
        <ele>157</ele>
        <time>2015-09-22T14:27:42Z</time>
      </trkpt>
      <trkpt lat="45.28896" lon="0.42378">
        <ele>156</ele>
        <time>2015-09-22T14:27:46Z</time>
      </trkpt>
      <trkpt lat="45.28898" lon="0.42372">
        <ele>155</ele>
        <time>2015-09-22T14:27:50Z</time>
      </trkpt>
      <trkpt lat="45.289" lon="0.42364">
        <ele>154</ele>
        <time>2015-09-22T14:27:55Z</time>
      </trkpt>
      <trkpt lat="45.28902" lon="0.42358">
        <ele>153</ele>
        <time>2015-09-22T14:27:59Z</time>
      </trkpt>
      <trkpt lat="45.28904" lon="0.42349">
        <ele>153</ele>
        <time>2015-09-22T14:28:04Z</time>
      </trkpt>
      <trkpt lat="45.28906" lon="0.42342">
        <ele>151</ele>
        <time>2015-09-22T14:28:08Z</time>
      </trkpt>
      <trkpt lat="45.28908" lon="0.42334">
        <ele>151</ele>
        <time>2015-09-22T14:28:13Z</time>
      </trkpt>
      <trkpt lat="45.28909" lon="0.42325">
        <ele>149</ele>
        <time>2015-09-22T14:28:18Z</time>
      </trkpt>
      <trkpt lat="45.2891" lon="0.42319">
        <ele>149</ele>
        <time>2015-09-22T14:28:22Z</time>
      </trkpt>
      <trkpt lat="45.28911" lon="0.42313">
        <ele>149</ele>
        <time>2015-09-22T14:28:26Z</time>
      </trkpt>
      <trkpt lat="45.28912" lon="0.42304">
        <ele>149</ele>
        <time>2015-09-22T14:28:31Z</time>
      </trkpt>
      <trkpt lat="45.28913" lon="0.42296">
        <ele>149</ele>
        <time>2015-09-22T14:28:35Z</time>
      </trkpt>
      <trkpt lat="45.28914" lon="0.42289">
        <ele>150</ele>
        <time>2015-09-22T14:28:39Z</time>
      </trkpt>
      <trkpt lat="45.28915" lon="0.42283">
        <ele>150</ele>
        <time>2015-09-22T14:28:43Z</time>
      </trkpt>
      <trkpt lat="45.28916" lon="0.42276">
        <ele>152</ele>
        <time>2015-09-22T14:28:47Z</time>
      </trkpt>
      <trkpt lat="45.28917" lon="0.4227">
        <ele>152</ele>
        <time>2015-09-22T14:28:51Z</time>
      </trkpt>
      <trkpt lat="45.28919" lon="0.42262">
        <ele>150</ele>
        <time>2015-09-22T14:28:56Z</time>
      </trkpt>
      <trkpt lat="45.28919" lon="0.42256">
        <ele>151</ele>
        <time>2015-09-22T14:29:00Z</time>
      </trkpt>
      <trkpt lat="45.2892" lon="0.42249">
        <ele>150</ele>
        <time>2015-09-22T14:29:04Z</time>
      </trkpt>
      <trkpt lat="45.28921" lon="0.42242">
        <ele>148</ele>
        <time>2015-09-22T14:29:08Z</time>
      </trkpt>
      <trkpt lat="45.28923" lon="0.42237">
        <ele>148</ele>
        <time>2015-09-22T14:29:12Z</time>
      </trkpt>
      <trkpt lat="45.28925" lon="0.42225">
        <ele>146</ele>
        <time>2015-09-22T14:29:17Z</time>
      </trkpt>
      <trkpt lat="45.28927" lon="0.42218">
        <ele>144</ele>
        <time>2015-09-22T14:29:21Z</time>
      </trkpt>
      <trkpt lat="45.2893" lon="0.4221">
        <ele>142</ele>
        <time>2015-09-22T14:29:26Z</time>
      </trkpt>
      <trkpt lat="45.28932" lon="0.42202">
        <ele>142</ele>
        <time>2015-09-22T14:29:31Z</time>
      </trkpt>
      <trkpt lat="45.28933" lon="0.42193">
        <ele>141</ele>
        <time>2015-09-22T14:29:36Z</time>
      </trkpt>
      <trkpt lat="45.28935" lon="0.42189">
        <ele>141</ele>
        <time>2015-09-22T14:29:39Z</time>
      </trkpt>
      <trkpt lat="45.28938" lon="0.42181">
        <ele>140</ele>
        <time>2015-09-22T14:29:44Z</time>
      </trkpt>
      <trkpt lat="45.28941" lon="0.42174">
        <ele>140</ele>
        <time>2015-09-22T14:29:49Z</time>
      </trkpt>
      <trkpt lat="45.28943" lon="0.42168">
        <ele>138</ele>
        <time>2015-09-22T14:29:53Z</time>
      </trkpt>
      <trkpt lat="45.28944" lon="0.42163">
        <ele>135</ele>
        <time>2015-09-22T14:29:57Z</time>
      </trkpt>
      <trkpt lat="45.28946" lon="0.42157">
        <ele>135</ele>
        <time>2015-09-22T14:30:01Z</time>
      </trkpt>
      <trkpt lat="45.28949" lon="0.42151">
        <ele>133</ele>
        <time>2015-09-22T14:30:05Z</time>
      </trkpt>
      <trkpt lat="45.28951" lon="0.42143">
        <ele>129</ele>
        <time>2015-09-22T14:30:10Z</time>
      </trkpt>
      <trkpt lat="45.28955" lon="0.42136">
        <ele>129</ele>
        <time>2015-09-22T14:30:15Z</time>
      </trkpt>
      <trkpt lat="45.28957" lon="0.4213">
        <ele>128</ele>
        <time>2015-09-22T14:30:19Z</time>
      </trkpt>
      <trkpt lat="45.28959" lon="0.42123">
        <ele>127</ele>
        <time>2015-09-22T14:30:23Z</time>
      </trkpt>
      <trkpt lat="45.28961" lon="0.42116">
        <ele>126</ele>
        <time>2015-09-22T14:30:28Z</time>
      </trkpt>
      <trkpt lat="45.28964" lon="0.42109">
        <ele>126</ele>
        <time>2015-09-22T14:30:33Z</time>
      </trkpt>
      <trkpt lat="45.28966" lon="0.42104">
        <ele>128</ele>
        <time>2015-09-22T14:30:37Z</time>
      </trkpt>
      <trkpt lat="45.28966" lon="0.42093">
        <ele>126</ele>
        <time>2015-09-22T14:30:42Z</time>
      </trkpt>
      <trkpt lat="45.28967" lon="0.42084">
        <ele>125</ele>
        <time>2015-09-22T14:30:47Z</time>
      </trkpt>
      <trkpt lat="45.28968" lon="0.42075">
        <ele>125</ele>
        <time>2015-09-22T14:30:51Z</time>
      </trkpt>
      <trkpt lat="45.28968" lon="0.42065">
        <ele>124</ele>
        <time>2015-09-22T14:30:56Z</time>
      </trkpt>
      <trkpt lat="45.2897" lon="0.42057">
        <ele>123</ele>
        <time>2015-09-22T14:31:01Z</time>
      </trkpt>
      <trkpt lat="45.2897" lon="0.4205">
        <ele>123</ele>
        <time>2015-09-22T14:31:05Z</time>
      </trkpt>
      <trkpt lat="45.28971" lon="0.42043">
        <ele>124</ele>
        <time>2015-09-22T14:31:09Z</time>
      </trkpt>
      <trkpt lat="45.28972" lon="0.42037">
        <ele>125</ele>
        <time>2015-09-22T14:31:13Z</time>
      </trkpt>
      <trkpt lat="45.28973" lon="0.42027">
        <ele>124</ele>
        <time>2015-09-22T14:31:18Z</time>
      </trkpt>
      <trkpt lat="45.28974" lon="0.4202">
        <ele>123</ele>
        <time>2015-09-22T14:31:22Z</time>
      </trkpt>
      <trkpt lat="45.28976" lon="0.42012">
        <ele>125</ele>
        <time>2015-09-22T14:31:27Z</time>
      </trkpt>
      <trkpt lat="45.28977" lon="0.42">
        <ele>122</ele>
        <time>2015-09-22T14:31:32Z</time>
      </trkpt>
      <trkpt lat="45.28979" lon="0.41993">
        <ele>122</ele>
        <time>2015-09-22T14:31:36Z</time>
      </trkpt>
      <trkpt lat="45.28981" lon="0.41986">
        <ele>122</ele>
        <time>2015-09-22T14:31:40Z</time>
      </trkpt>
      <trkpt lat="45.28983" lon="0.4198">
        <ele>123</ele>
        <time>2015-09-22T14:31:45Z</time>
      </trkpt>
      <trkpt lat="45.28987" lon="0.41969">
        <ele>123</ele>
        <time>2015-09-22T14:31:50Z</time>
      </trkpt>
      <trkpt lat="45.28989" lon="0.41963">
        <ele>123</ele>
        <time>2015-09-22T14:31:54Z</time>
      </trkpt>
      <trkpt lat="45.28992" lon="0.41954">
        <ele>122</ele>
        <time>2015-09-22T14:31:59Z</time>
      </trkpt>
      <trkpt lat="45.28996" lon="0.41947">
        <ele>122</ele>
        <time>2015-09-22T14:32:04Z</time>
      </trkpt>
      <trkpt lat="45.28999" lon="0.4194">
        <ele>121</ele>
        <time>2015-09-22T14:32:08Z</time>
      </trkpt>
      <trkpt lat="45.29003" lon="0.41933">
        <ele>119</ele>
        <time>2015-09-22T14:32:12Z</time>
      </trkpt>
      <trkpt lat="45.29007" lon="0.41926">
        <ele>119</ele>
        <time>2015-09-22T14:32:17Z</time>
      </trkpt>
      <trkpt lat="45.2901" lon="0.41921">
        <ele>118</ele>
        <time>2015-09-22T14:32:21Z</time>
      </trkpt>
      <trkpt lat="45.29013" lon="0.41915">
        <ele>118</ele>
        <time>2015-09-22T14:32:25Z</time>
      </trkpt>
      <trkpt lat="45.29017" lon="0.41908">
        <ele>118</ele>
        <time>2015-09-22T14:32:29Z</time>
      </trkpt>
      <trkpt lat="45.2902" lon="0.41902">
        <ele>117</ele>
        <time>2015-09-22T14:32:33Z</time>
      </trkpt>
      <trkpt lat="45.29024" lon="0.41894">
        <ele>118</ele>
        <time>2015-09-22T14:32:38Z</time>
      </trkpt>
      <trkpt lat="45.29027" lon="0.41888">
        <ele>117</ele>
        <time>2015-09-22T14:32:42Z</time>
      </trkpt>
      <trkpt lat="45.29031" lon="0.41882">
        <ele>118</ele>
        <time>2015-09-22T14:32:47Z</time>
      </trkpt>
      <trkpt lat="45.29034" lon="0.41875">
        <ele>118</ele>
        <time>2015-09-22T14:32:51Z</time>
      </trkpt>
      <trkpt lat="45.29037" lon="0.41871">
        <ele>118</ele>
        <time>2015-09-22T14:32:55Z</time>
      </trkpt>
      <trkpt lat="45.29041" lon="0.41865">
        <ele>117</ele>
        <time>2015-09-22T14:33:00Z</time>
      </trkpt>
      <trkpt lat="45.29045" lon="0.41858">
        <ele>117</ele>
        <time>2015-09-22T14:33:04Z</time>
      </trkpt>
      <trkpt lat="45.2905" lon="0.41849">
        <ele>117</ele>
        <time>2015-09-22T14:33:09Z</time>
      </trkpt>
      <trkpt lat="45.29054" lon="0.41842">
        <ele>116</ele>
        <time>2015-09-22T14:33:14Z</time>
      </trkpt>
      <trkpt lat="45.29059" lon="0.41835">
        <ele>116</ele>
        <time>2015-09-22T14:33:19Z</time>
      </trkpt>
      <trkpt lat="45.29064" lon="0.41829">
        <ele>115</ele>
        <time>2015-09-22T14:33:23Z</time>
      </trkpt>
      <trkpt lat="45.29069" lon="0.41823">
        <ele>115</ele>
        <time>2015-09-22T14:33:28Z</time>
      </trkpt>
      <trkpt lat="45.29073" lon="0.41817">
        <ele>114</ele>
        <time>2015-09-22T14:33:32Z</time>
      </trkpt>
      <trkpt lat="45.29077" lon="0.4181">
        <ele>114</ele>
        <time>2015-09-22T14:33:37Z</time>
      </trkpt>
      <trkpt lat="45.2908" lon="0.41804">
        <ele>114</ele>
        <time>2015-09-22T14:33:41Z</time>
      </trkpt>
      <trkpt lat="45.29085" lon="0.41799">
        <ele>114</ele>
        <time>2015-09-22T14:33:45Z</time>
      </trkpt>
      <trkpt lat="45.29089" lon="0.41793">
        <ele>114</ele>
        <time>2015-09-22T14:33:50Z</time>
      </trkpt>
      <trkpt lat="45.29093" lon="0.41786">
        <ele>114</ele>
        <time>2015-09-22T14:33:54Z</time>
      </trkpt>
      <trkpt lat="45.29097" lon="0.41781">
        <ele>114</ele>
        <time>2015-09-22T14:33:58Z</time>
      </trkpt>
      <trkpt lat="45.29101" lon="0.41776">
        <ele>114</ele>
        <time>2015-09-22T14:34:02Z</time>
      </trkpt>
      <trkpt lat="45.29105" lon="0.41771">
        <ele>114</ele>
        <time>2015-09-22T14:34:06Z</time>
      </trkpt>
      <trkpt lat="45.2911" lon="0.41765">
        <ele>114</ele>
        <time>2015-09-22T14:34:11Z</time>
      </trkpt>
      <trkpt lat="45.29114" lon="0.41759">
        <ele>114</ele>
        <time>2015-09-22T14:34:15Z</time>
      </trkpt>
      <trkpt lat="45.29118" lon="0.41753">
        <ele>113</ele>
        <time>2015-09-22T14:34:20Z</time>
      </trkpt>
      <trkpt lat="45.29121" lon="0.41747">
        <ele>112</ele>
        <time>2015-09-22T14:34:24Z</time>
      </trkpt>
      <trkpt lat="45.29126" lon="0.4174">
        <ele>111</ele>
        <time>2015-09-22T14:34:29Z</time>
      </trkpt>
      <trkpt lat="45.29128" lon="0.41738">
        <ele>111</ele>
        <time>2015-09-22T14:34:32Z</time>
      </trkpt>
      <trkpt lat="45.29133" lon="0.41731">
        <ele>112</ele>
        <time>2015-09-22T14:34:36Z</time>
      </trkpt>
      <trkpt lat="45.29137" lon="0.41726">
        <ele>112</ele>
        <time>2015-09-22T14:34:40Z</time>
      </trkpt>
      <trkpt lat="45.2914" lon="0.41721">
        <ele>112</ele>
        <time>2015-09-22T14:34:44Z</time>
      </trkpt>
      <trkpt lat="45.29145" lon="0.41716">
        <ele>113</ele>
        <time>2015-09-22T14:34:48Z</time>
      </trkpt>
      <trkpt lat="45.29148" lon="0.41711">
        <ele>113</ele>
        <time>2015-09-22T14:34:52Z</time>
      </trkpt>
      <trkpt lat="45.29152" lon="0.41703">
        <ele>113</ele>
        <time>2015-09-22T14:34:57Z</time>
      </trkpt>
      <trkpt lat="45.29156" lon="0.41698">
        <ele>113</ele>
        <time>2015-09-22T14:35:01Z</time>
      </trkpt>
      <trkpt lat="45.29158" lon="0.41691">
        <ele>113</ele>
        <time>2015-09-22T14:35:06Z</time>
      </trkpt>
      <trkpt lat="45.29161" lon="0.41687">
        <ele>113</ele>
        <time>2015-09-22T14:35:24Z</time>
      </trkpt>
      <trkpt lat="45.29163" lon="0.41679">
        <ele>113</ele>
        <time>2015-09-22T14:35:28Z</time>
      </trkpt>
      <trkpt lat="45.29166" lon="0.41671">
        <ele>114</ele>
        <time>2015-09-22T14:35:32Z</time>
      </trkpt>
      <trkpt lat="45.29168" lon="0.41664">
        <ele>113</ele>
        <time>2015-09-22T14:35:36Z</time>
      </trkpt>
      <trkpt lat="45.29171" lon="0.41654">
        <ele>113</ele>
        <time>2015-09-22T14:35:41Z</time>
      </trkpt>
      <trkpt lat="45.29173" lon="0.41646">
        <ele>113</ele>
        <time>2015-09-22T14:35:46Z</time>
      </trkpt>
      <trkpt lat="45.29175" lon="0.41639">
        <ele>114</ele>
        <time>2015-09-22T14:35:50Z</time>
      </trkpt>
      <trkpt lat="45.29178" lon="0.41631">
        <ele>115</ele>
        <time>2015-09-22T14:35:55Z</time>
      </trkpt>
      <trkpt lat="45.29179" lon="0.41623">
        <ele>115</ele>
        <time>2015-09-22T14:35:59Z</time>
      </trkpt>
      <trkpt lat="45.29181" lon="0.41617">
        <ele>115</ele>
        <time>2015-09-22T14:36:03Z</time>
      </trkpt>
      <trkpt lat="45.29182" lon="0.41611">
        <ele>116</ele>
        <time>2015-09-22T14:36:07Z</time>
      </trkpt>
      <trkpt lat="45.29184" lon="0.41601">
        <ele>117</ele>
        <time>2015-09-22T14:36:12Z</time>
      </trkpt>
      <trkpt lat="45.29185" lon="0.41593">
        <ele>118</ele>
        <time>2015-09-22T14:36:16Z</time>
      </trkpt>
      <trkpt lat="45.29188" lon="0.41584">
        <ele>117</ele>
        <time>2015-09-22T14:36:21Z</time>
      </trkpt>
      <trkpt lat="45.2919" lon="0.41577">
        <ele>117</ele>
        <time>2015-09-22T14:36:25Z</time>
      </trkpt>
      <trkpt lat="45.29192" lon="0.4157">
        <ele>118</ele>
        <time>2015-09-22T14:36:30Z</time>
      </trkpt>
      <trkpt lat="45.29194" lon="0.41563">
        <ele>118</ele>
        <time>2015-09-22T14:36:35Z</time>
      </trkpt>
      <trkpt lat="45.29195" lon="0.41558">
        <ele>118</ele>
        <time>2015-09-22T14:36:38Z</time>
      </trkpt>
      <trkpt lat="45.29197" lon="0.41552">
        <ele>117</ele>
        <time>2015-09-22T14:36:42Z</time>
      </trkpt>
      <trkpt lat="45.29198" lon="0.41542">
        <ele>116</ele>
        <time>2015-09-22T14:36:47Z</time>
      </trkpt>
      <trkpt lat="45.29201" lon="0.41537">
        <ele>119</ele>
        <time>2015-09-22T14:36:52Z</time>
      </trkpt>
      <trkpt lat="45.29204" lon="0.41531">
        <ele>119</ele>
        <time>2015-09-22T14:36:56Z</time>
      </trkpt>
      <trkpt lat="45.29206" lon="0.41525">
        <ele>118</ele>
        <time>2015-09-22T14:37:00Z</time>
      </trkpt>
      <trkpt lat="45.29208" lon="0.41519">
        <ele>121</ele>
        <time>2015-09-22T14:37:05Z</time>
      </trkpt>
      <trkpt lat="45.2921" lon="0.41513">
        <ele>121</ele>
        <time>2015-09-22T14:37:09Z</time>
      </trkpt>
      <trkpt lat="45.29212" lon="0.41505">
        <ele>120</ele>
        <time>2015-09-22T14:37:14Z</time>
      </trkpt>
      <trkpt lat="45.29216" lon="0.41494">
        <ele>119</ele>
        <time>2015-09-22T14:37:19Z</time>
      </trkpt>
      <trkpt lat="45.2922" lon="0.4149">
        <ele>119</ele>
        <time>2015-09-22T14:37:23Z</time>
      </trkpt>
      <trkpt lat="45.29224" lon="0.41481">
        <ele>118</ele>
        <time>2015-09-22T14:37:27Z</time>
      </trkpt>
      <trkpt lat="45.29226" lon="0.41472">
        <ele>120</ele>
        <time>2015-09-22T14:37:32Z</time>
      </trkpt>
      <trkpt lat="45.29227" lon="0.41466">
        <ele>122</ele>
        <time>2015-09-22T14:37:36Z</time>
      </trkpt>
      <trkpt lat="45.29231" lon="0.4146">
        <ele>120</ele>
        <time>2015-09-22T14:37:40Z</time>
      </trkpt>
      <trkpt lat="45.29236" lon="0.41454">
        <ele>120</ele>
        <time>2015-09-22T14:37:44Z</time>
      </trkpt>
      <trkpt lat="45.29239" lon="0.41445">
        <ele>119</ele>
        <time>2015-09-22T14:37:49Z</time>
      </trkpt>
      <trkpt lat="45.29241" lon="0.41437">
        <ele>119</ele>
        <time>2015-09-22T14:37:53Z</time>
      </trkpt>
      <trkpt lat="45.29244" lon="0.41431">
        <ele>119</ele>
        <time>2015-09-22T14:37:57Z</time>
      </trkpt>
      <trkpt lat="45.29249" lon="0.41424">
        <ele>119</ele>
        <time>2015-09-22T14:38:01Z</time>
      </trkpt>
      <trkpt lat="45.29251" lon="0.41417">
        <ele>117</ele>
        <time>2015-09-22T14:38:05Z</time>
      </trkpt>
      <trkpt lat="45.29256" lon="0.41409">
        <ele>116</ele>
        <time>2015-09-22T14:38:10Z</time>
      </trkpt>
      <trkpt lat="45.29259" lon="0.41401">
        <ele>116</ele>
        <time>2015-09-22T14:38:15Z</time>
      </trkpt>
      <trkpt lat="45.29265" lon="0.41394">
        <ele>116</ele>
        <time>2015-09-22T14:38:20Z</time>
      </trkpt>
      <trkpt lat="45.29268" lon="0.41388">
        <ele>115</ele>
        <time>2015-09-22T14:38:24Z</time>
      </trkpt>
      <trkpt lat="45.29272" lon="0.41381">
        <ele>114</ele>
        <time>2015-09-22T14:38:29Z</time>
      </trkpt>
      <trkpt lat="45.29274" lon="0.41374">
        <ele>116</ele>
        <time>2015-09-22T14:38:33Z</time>
      </trkpt>
      <trkpt lat="45.29276" lon="0.41369">
        <ele>116</ele>
        <time>2015-09-22T14:38:36Z</time>
      </trkpt>
      <trkpt lat="45.29279" lon="0.41362">
        <ele>114</ele>
        <time>2015-09-22T14:38:40Z</time>
      </trkpt>
      <trkpt lat="45.29282" lon="0.41355">
        <ele>114</ele>
        <time>2015-09-22T14:38:44Z</time>
      </trkpt>
      <trkpt lat="45.29286" lon="0.41349">
        <ele>114</ele>
        <time>2015-09-22T14:38:49Z</time>
      </trkpt>
      <trkpt lat="45.29291" lon="0.41343">
        <ele>114</ele>
        <time>2015-09-22T14:38:53Z</time>
      </trkpt>
      <trkpt lat="45.29293" lon="0.41338">
        <ele>116</ele>
        <time>2015-09-22T14:38:58Z</time>
      </trkpt>
      <trkpt lat="45.29297" lon="0.41335">
        <ele>117</ele>
        <time>2015-09-22T14:39:02Z</time>
      </trkpt>
      <trkpt lat="45.29302" lon="0.41332">
        <ele>114</ele>
        <time>2015-09-22T14:39:06Z</time>
      </trkpt>
      <trkpt lat="45.29306" lon="0.41327">
        <ele>112</ele>
        <time>2015-09-22T14:39:11Z</time>
      </trkpt>
      <trkpt lat="45.2931" lon="0.41322">
        <ele>111</ele>
        <time>2015-09-22T14:39:15Z</time>
      </trkpt>
      <trkpt lat="45.29317" lon="0.41316">
        <ele>110</ele>
        <time>2015-09-22T14:39:20Z</time>
      </trkpt>
      <trkpt lat="45.29322" lon="0.41312">
        <ele>109</ele>
        <time>2015-09-22T14:39:24Z</time>
      </trkpt>
      <trkpt lat="45.29326" lon="0.41309">
        <ele>110</ele>
        <time>2015-09-22T14:39:28Z</time>
      </trkpt>
      <trkpt lat="45.29328" lon="0.41303">
        <ele>110</ele>
        <time>2015-09-22T14:39:32Z</time>
      </trkpt>
      <trkpt lat="45.29332" lon="0.41294">
        <ele>109</ele>
        <time>2015-09-22T14:39:37Z</time>
      </trkpt>
      <trkpt lat="45.29335" lon="0.41289">
        <ele>108</ele>
        <time>2015-09-22T14:39:41Z</time>
      </trkpt>
      <trkpt lat="45.29338" lon="0.41284">
        <ele>107</ele>
        <time>2015-09-22T14:39:45Z</time>
      </trkpt>
      <trkpt lat="45.29342" lon="0.41277">
        <ele>107</ele>
        <time>2015-09-22T14:39:50Z</time>
      </trkpt>
      <trkpt lat="45.29345" lon="0.41275">
        <ele>108</ele>
        <time>2015-09-22T14:39:54Z</time>
      </trkpt>
      <trkpt lat="45.2935" lon="0.41272">
        <ele>107</ele>
        <time>2015-09-22T14:39:59Z</time>
      </trkpt>
      <trkpt lat="45.29355" lon="0.41268">
        <ele>107</ele>
        <time>2015-09-22T14:40:03Z</time>
      </trkpt>
      <trkpt lat="45.29354" lon="0.41259">
        <ele>106</ele>
        <time>2015-09-22T14:40:08Z</time>
      </trkpt>
      <trkpt lat="45.29351" lon="0.41251">
        <ele>106</ele>
        <time>2015-09-22T14:40:13Z</time>
      </trkpt>
      <trkpt lat="45.29348" lon="0.41245">
        <ele>107</ele>
        <time>2015-09-22T14:40:18Z</time>
      </trkpt>
      <trkpt lat="45.29345" lon="0.41239">
        <ele>106</ele>
        <time>2015-09-22T14:40:22Z</time>
      </trkpt>
      <trkpt lat="45.29342" lon="0.41234">
        <ele>106</ele>
        <time>2015-09-22T14:40:26Z</time>
      </trkpt>
      <trkpt lat="45.29337" lon="0.41228">
        <ele>105</ele>
        <time>2015-09-22T14:40:31Z</time>
      </trkpt>
      <trkpt lat="45.29332" lon="0.41222">
        <ele>104</ele>
        <time>2015-09-22T14:40:36Z</time>
      </trkpt>
      <trkpt lat="45.29328" lon="0.41218">
        <ele>102</ele>
        <time>2015-09-22T14:40:40Z</time>
      </trkpt>
      <trkpt lat="45.29323" lon="0.41215">
        <ele>102</ele>
        <time>2015-09-22T14:40:44Z</time>
      </trkpt>
      <trkpt lat="45.29317" lon="0.41211">
        <ele>102</ele>
        <time>2015-09-22T14:40:49Z</time>
      </trkpt>
      <trkpt lat="45.29313" lon="0.41209">
        <ele>101</ele>
        <time>2015-09-22T14:40:53Z</time>
      </trkpt>
      <trkpt lat="45.29308" lon="0.41207">
        <ele>100</ele>
        <time>2015-09-22T14:40:57Z</time>
      </trkpt>
      <trkpt lat="45.29302" lon="0.41204">
        <ele>100</ele>
        <time>2015-09-22T14:41:01Z</time>
      </trkpt>
      <trkpt lat="45.29298" lon="0.41203">
        <ele>100</ele>
        <time>2015-09-22T14:41:05Z</time>
      </trkpt>
      <trkpt lat="45.29293" lon="0.41201">
        <ele>99</ele>
        <time>2015-09-22T14:41:10Z</time>
      </trkpt>
      <trkpt lat="45.29288" lon="0.41201">
        <ele>100</ele>
        <time>2015-09-22T14:41:14Z</time>
      </trkpt>
      <trkpt lat="45.29281" lon="0.41198">
        <ele>99</ele>
        <time>2015-09-22T14:41:19Z</time>
      </trkpt>
      <trkpt lat="45.29279" lon="0.41193">
        <ele>98</ele>
        <time>2015-09-22T14:41:23Z</time>
      </trkpt>
      <trkpt lat="45.29281" lon="0.41188">
        <ele>98</ele>
        <time>2015-09-22T14:41:27Z</time>
      </trkpt>
      <trkpt lat="45.29284" lon="0.41181">
        <ele>99</ele>
        <time>2015-09-22T14:41:32Z</time>
      </trkpt>
      <trkpt lat="45.29287" lon="0.41177">
        <ele>98</ele>
        <time>2015-09-22T14:41:36Z</time>
      </trkpt>
      <trkpt lat="45.29291" lon="0.41172">
        <ele>99</ele>
        <time>2015-09-22T14:41:41Z</time>
      </trkpt>
      <trkpt lat="45.29295" lon="0.41167">
        <ele>98</ele>
        <time>2015-09-22T14:41:45Z</time>
      </trkpt>
      <trkpt lat="45.29299" lon="0.41161">
        <ele>98</ele>
        <time>2015-09-22T14:41:50Z</time>
      </trkpt>
      <trkpt lat="45.29302" lon="0.41156">
        <ele>98</ele>
        <time>2015-09-22T14:41:54Z</time>
      </trkpt>
      <trkpt lat="45.29305" lon="0.41151">
        <ele>99</ele>
        <time>2015-09-22T14:41:58Z</time>
      </trkpt>
      <trkpt lat="45.29309" lon="0.41145">
        <ele>98</ele>
        <time>2015-09-22T14:42:02Z</time>
      </trkpt>
      <trkpt lat="45.29312" lon="0.4114">
        <ele>99</ele>
        <time>2015-09-22T14:42:06Z</time>
      </trkpt>
      <trkpt lat="45.29316" lon="0.41134">
        <ele>98</ele>
        <time>2015-09-22T14:42:11Z</time>
      </trkpt>
      <trkpt lat="45.2932" lon="0.4113">
        <ele>99</ele>
        <time>2015-09-22T14:42:16Z</time>
      </trkpt>
      <trkpt lat="45.29325" lon="0.41124">
        <ele>100</ele>
        <time>2015-09-22T14:42:21Z</time>
      </trkpt>
      <trkpt lat="45.29328" lon="0.41119">
        <ele>99</ele>
        <time>2015-09-22T14:42:25Z</time>
      </trkpt>
      <trkpt lat="45.29333" lon="0.41112">
        <ele>100</ele>
        <time>2015-09-22T14:42:30Z</time>
      </trkpt>
      <trkpt lat="45.29336" lon="0.41108">
        <ele>101</ele>
        <time>2015-09-22T14:42:34Z</time>
      </trkpt>
      <trkpt lat="45.2934" lon="0.41103">
        <ele>100</ele>
        <time>2015-09-22T14:42:38Z</time>
      </trkpt>
      <trkpt lat="45.29343" lon="0.41098">
        <ele>99</ele>
        <time>2015-09-22T14:42:42Z</time>
      </trkpt>
      <trkpt lat="45.29347" lon="0.41091">
        <ele>99</ele>
        <time>2015-09-22T14:42:47Z</time>
      </trkpt>
      <trkpt lat="45.2935" lon="0.41086">
        <ele>98</ele>
        <time>2015-09-22T14:42:51Z</time>
      </trkpt>
      <trkpt lat="45.29354" lon="0.41079">
        <ele>97</ele>
        <time>2015-09-22T14:42:56Z</time>
      </trkpt>
      <trkpt lat="45.29357" lon="0.41074">
        <ele>97</ele>
        <time>2015-09-22T14:43:00Z</time>
      </trkpt>
      <trkpt lat="45.2936" lon="0.41068">
        <ele>97</ele>
        <time>2015-09-22T14:43:04Z</time>
      </trkpt>
      <trkpt lat="45.29363" lon="0.41062">
        <ele>97</ele>
        <time>2015-09-22T14:43:09Z</time>
      </trkpt>
      <trkpt lat="45.29367" lon="0.41058">
        <ele>98</ele>
        <time>2015-09-22T14:43:13Z</time>
      </trkpt>
      <trkpt lat="45.29372" lon="0.41053">
        <ele>98</ele>
        <time>2015-09-22T14:43:18Z</time>
      </trkpt>
      <trkpt lat="45.29378" lon="0.41049">
        <ele>98</ele>
        <time>2015-09-22T14:43:23Z</time>
      </trkpt>
      <trkpt lat="45.29382" lon="0.41048">
        <ele>99</ele>
        <time>2015-09-22T14:43:26Z</time>
      </trkpt>
      <trkpt lat="45.29384" lon="0.41047">
        <ele>98</ele>
        <time>2015-09-22T14:43:28Z</time>
      </trkpt>
      <trkpt lat="45.2939" lon="0.41046">
        <ele>97</ele>
        <time>2015-09-22T14:43:33Z</time>
      </trkpt>
      <trkpt lat="45.29395" lon="0.41046">
        <ele>96</ele>
        <time>2015-09-22T14:43:37Z</time>
      </trkpt>
      <trkpt lat="45.294" lon="0.41045">
        <ele>96</ele>
        <time>2015-09-22T14:43:41Z</time>
      </trkpt>
      <trkpt lat="45.29405" lon="0.41044">
        <ele>96</ele>
        <time>2015-09-22T14:43:45Z</time>
      </trkpt>
      <trkpt lat="45.29409" lon="0.41042">
        <ele>96</ele>
        <time>2015-09-22T14:43:52Z</time>
      </trkpt>
      <trkpt lat="45.29414" lon="0.4104">
        <ele>96</ele>
        <time>2015-09-22T14:43:57Z</time>
      </trkpt>
      <trkpt lat="45.29418" lon="0.4104">
        <ele>97</ele>
        <time>2015-09-22T14:44:01Z</time>
      </trkpt>
      <trkpt lat="45.29422" lon="0.41039">
        <ele>97</ele>
        <time>2015-09-22T14:44:07Z</time>
      </trkpt>
      <trkpt lat="45.29425" lon="0.41038">
        <ele>96</ele>
        <time>2015-09-22T14:44:12Z</time>
      </trkpt>
      <trkpt lat="45.29429" lon="0.41033">
        <ele>94</ele>
        <time>2015-09-22T14:44:17Z</time>
      </trkpt>
      <trkpt lat="45.29425" lon="0.41031">
        <ele>95</ele>
        <time>2015-09-22T14:46:32Z</time>
      </trkpt>
      <trkpt lat="45.29425" lon="0.41031">
        <ele>95</ele>
        <time>2015-09-22T14:46:32Z</time>
      </trkpt>
    </trkseg>
  </trk>
</gpx>